[[{"header":{"parameterUnit":"m.s-1","parameterCategory":1,"la1":31.0,"la2":29.5877,"lo1":-88.7671,"lo2":-86.6584,"dy":0.0162,"dx":0.0185,"nx":115,"ny":88,"refTime":"2023-03-22T06:00:00:Z","depth":0,"parameterNumber":2,"parameterNumberName":"U-component_of_WINDS"},"data":[0.0,0.0,0.0,0.0,0.0,0.0,0.0,0.0,0.0,0.0,0.0,0.0,0.0,0.0,0.0,0.0,0.0,0.0,0.0,0.0,0.0,0.0,0.0,0.0,0.0,0.0,0.0,0.0,0.0,0.0,0.0,0.0,0.0,0.0,0.0,0.0,0.0,0.0,0.0,0.0,0.0,0.0,0.0,0.0,0.0,0.0,0.0,0.0,0.0,0.0,0.0,0.0,0.0,0.0,0.0,0.0,0.0,0.0,0.0,0.0,0.0,0.0,0.0,0.0,0.0,0.0,0.0,0.0,0.0,0.0,0.0,0.0,0.0,0.0,0.0,0.0,0.0,0.0,0.0,0.0,0.0,0.0,0.0,0.0,0.0,0.0,0.0,0.0,0.0,0.0,0.0,0.0,0.0,0.0,0.0,0.0,0.0,0.0,0.0,0.0,0.0,0.0,0.0,0.0,0.0,0.0,0.0,0.0,0.0,0.0,0.0,0.0,0.0,0.0,0.0,0.0,0.0,0.0,0.0,0.0,0.0,0.0,0.0,0.0,0.0,0.0,0.0,0.0,0.0,0.0,0.0,0.0,0.0,0.0,0.0,0.0,0.0,0.0,0.0,0.0,0.0,0.0,0.0,0.0,0.0,0.0,0.0,0.0,0.0,0.0,0.0,0.0,0.0,0.0,0.0,0.0,0.0,0.0,0.0,0.0,0.0,0.0,0.0,0.0,0.0,0.0,0.0,0.0,0.0,0.0,0.0,0.0,0.0,0.0,0.0,0.0,0.0,0.0,0.0,0.0,0.0,0.0,0.0,0.0,0.0,0.0,0.0,0.0,0.0,0.0,0.0,0.0,0.0,0.0,0.0,0.0,0.0,0.0,0.0,0.0,0.0,0.0,0.0,0.0,0.0,0.0,0.0,0.0,0.0,0.0,0.0,0.0,0.0,0.0,0.0,0.0,0.0,0.0,0.0,0.0,0.0,0.0,0.0,0.0,0.0,0.0,0.0,0.0,0.0,0.0,0.0,0.0,0.0,0.0,0.0,0.0,0.0,0.0,0.0,0.0,0.0,0.0,0.0,0.0,0.0,0.0,0.0,0.0,0.0,0.0,0.0,0.0,0.0,0.0,0.0,0.0,0.0,0.0,0.0,0.0,0.0,0.0,0.0,0.0,0.0,0.0,0.0,0.0,0.0,0.0,0.0,0.0,0.0,0.0,0.0,0.0,0.0,0.0,0.0,0.0,0.0,0.0,0.0,0.0,0.0,0.0,0.0,0.0,0.0,0.0,0.0,0.0,0.0,0.0,0.0,0.0,0.0,0.0,0.0,0.0,0.0,0.0,0.0,0.0,0.0,0.0,0.0,0.0,0.0,0.0,0.0,0.0,0.0,0.0,0.0,0.0,0.0,0.0,0.0,0.0,0.0,0.0,0.0,0.0,0.0,0.0,0.0,0.0,0.0,0.0,0.0,0.0,0.0,0.0,0.0,0.0,0.0,0.0,0.0,0.0,0.0,0.0,0.0,0.0,0.0,0.0,0.0,0.0,0.0,0.0,0.0,0.0,0.0,0.0,0.0,0.0,0.0,0.0,0.0,0.0,0.0,0.0,0.0,0.0,0.0,0.0,0.0,0.0,0.0,0.0,0.0,0.0,0.0,0.0,0.0,0.0,0.0,0.0,0.0,0.0,0.0,0.0,0.0,0.0,0.0,0.0,0.0,0.0,0.0,0.0,0.0,0.0,0.0,0.0,0.0,0.0,0.0,0.0,0.0,0.0,0.0,0.0,0.0,0.0,0.0,0.0,0.0,0.0,0.0,0.0,0.0,0.0,0.0,0.0,0.0,0.0,0.0,0.0,0.0,0.0,0.0,0.0,0.0,0.0,0.0,0.0,0.0,0.0,0.0,0.0,0.0,0.0,0.0,0.0,0.0,0.0,0.0,0.0,0.0,0.0,0.0,0.0,0.0,0.0,0.0,0.0,0.0,0.0,0.0,0.0,0.0,0.0,0.0,0.0,0.0,0.0,0.0,0.0,0.0,0.0,0.0,0.0,0.0,0.0,0.0,0.0,0.0,0.0,0.0,0.0,0.0,0.0,0.0,0.0,0.0,0.0,0.0,0.0,0.0,0.0,0.0,0.0,0.0,0.0,0.0,0.0,0.0,0.0,0.0,0.0,0.0,0.0,0.0,0.0,0.0,0.0,0.0,0.0,0.0,0.0,0.0,0.0,0.0,0.0,0.0,0.0,0.0,0.0,0.0,0.0,0.0,0.0,0.0,0.0,0.0,0.0,0.0,0.0,0.0,0.0,0.0,0.0,0.0,0.0,0.0,0.0,0.0,0.0,0.0,0.0,0.0,0.0,0.0,0.0,0.0,0.0,0.0,0.0,0.0,0.0,0.0,0.0,0.0,0.0,0.0,0.0,0.0,0.0,0.0,0.0,0.0,0.0,0.0,0.0,0.0,0.0,0.0,0.0,0.0,0.0,0.0,0.0,0.0,0.0,0.0,0.0,0.0,0.0,0.0,0.0,0.0,0.0,0.0,0.0,0.0,0.0,0.0,0.0,0.0,0.0,0.0,0.0,0.0,0.0,0.0,0.0,0.0,0.0,0.0,0.0,0.0,0.0,0.0,0.0,0.0,0.0,0.0,0.0,0.0,0.0,0.0,0.0,0.0,0.0,0.0,0.0,0.0,0.0,0.0,0.0,0.0,0.0,0.0,0.0,0.0,0.0,0.0,0.0,0.0,0.0,0.0,0.0,0.0,0.0,0.0,0.0,0.0,0.0,0.0,0.0,0.0,0.0,0.0,0.0,0.0,0.0,0.0,0.0,0.0,0.0,0.0,0.0,0.0,0.0,0.0,0.0,0.0,0.0,0.0,0.0,0.0,0.0,0.0,0.0,0.0,0.0,0.0,0.0,0.0,0.0,0.0,0.0,0.0,0.0,0.0,0.0,0.0,0.0,0.0,0.0,0.0,0.0,0.0,0.0,0.0,0.0,0.0,0.0,0.0,0.0,0.0,0.0,0.0,0.0,0.0,0.0,0.0,0.0,0.0,0.0,0.0,0.0,0.0,0.0,0.0,0.0,0.0,0.0,0.0,0.0,0.0,0.0,0.0,0.0,0.0,0.0,0.0,0.0,0.0,0.0,0.0,0.0,0.0,0.0,0.0,0.0,0.0,0.0,0.0,0.0,0.0,0.0,0.0,0.0,0.0,0.0,0.0,0.0,0.0,0.0,0.0,0.0,0.0,0.0,0.0,0.0,0.0,0.0,0.0,0.0,0.0,0.0,0.0,0.0,0.0,0.0,0.0,0.0,0.0,0.0,0.0,0.0,0.0,0.0,0.0,0.0,0.0,0.0,0.0,0.0,0.0,0.0,0.0,0.0,0.0,0.0,0.0,0.0,0.0,0.0,0.0,0.0,0.0,0.0,0.0,0.0,0.0,0.0,0.0,0.0,0.0,0.0,0.0,0.0,0.0,0.0,0.0,0.0,0.0,0.0,0.0,0.0,0.0,0.0,0.0,0.0,0.0,0.0,0.0,0.0,0.0,0.0,0.0,0.0,0.0,0.0,0.0,0.0,0.0,0.0,0.0,0.0,0.0,0.0,0.0,0.0,0.0,0.0,0.0,0.0,0.0,0.0,0.0,0.0,0.0,0.0,0.0,0.0,0.0,0.0,0.0,0.0,0.0,0.0,0.0,0.0,0.0,0.0,0.0,0.0,0.0,0.0,0.0,0.0,0.0,0.0,0.0,0.0,0.0,0.0,0.0,0.0,0.0,0.0,0.0,0.0,0.0,0.0,0.0,0.0,0.0,0.0,0.0,0.0,0.0,0.0,0.0,0.0,0.0,0.0,0.0,0.0,0.0,0.0,0.0,0.0,0.0,0.0,0.0,0.0,0.0,0.0,0.0,0.0,0.0,0.0,0.0,0.0,0.0,0.0,0.0,0.0,0.0,0.0,0.0,0.0,0.0,0.0,0.0,0.0,0.0,0.0,0.0,0.0,0.0,0.0,0.0,0.0,0.0,0.0,0.0,0.0,0.0,0.0,0.0,0.0,0.0,0.0,0.0,0.0,0.0,0.0,0.0,0.0,0.0,0.0,0.0,0.0,0.0,0.0,0.0,0.0,0.0,0.0,0.0,0.0,0.0,0.0,0.0,0.0,0.0,0.0,0.0,0.0,0.0,0.0,0.0,0.0,0.0,0.0,0.0,0.0,0.0,0.0,0.0,0.0,0.0,0.0,0.0,0.0,0.0,0.0,0.0,0.0,0.0,0.0,-3.1648,0.0,0.0,0.0,0.0,0.0,0.0,0.0,0.0,0.0,0.0,0.0,0.0,0.0,0.0,0.0,0.0,0.0,0.0,0.0,0.0,0.0,0.0,0.0,0.0,0.0,0.0,0.0,0.0,0.0,0.0,0.0,0.0,0.0,0.0,0.0,0.0,0.0,0.0,0.0,0.0,0.0,0.0,0.0,0.0,0.0,0.0,0.0,0.0,0.0,0.0,0.0,0.0,0.0,0.0,0.0,0.0,0.0,0.0,0.0,0.0,0.0,0.0,0.0,0.0,0.0,0.0,0.0,0.0,0.0,0.0,0.0,0.0,0.0,0.0,0.0,0.0,0.0,0.0,0.0,0.0,0.0,0.0,0.0,0.0,0.0,0.0,0.0,0.0,0.0,0.0,0.0,0.0,0.0,0.0,0.0,0.0,0.0,0.0,0.0,0.0,0.0,0.0,0.0,0.0,0.0,0.0,0.0,0.0,0.0,0.0,-3.4859,-3.3538,-3.3115,-3.2257,-3.0951,0.0,0.0,0.0,0.0,0.0,0.0,0.0,0.0,0.0,0.0,0.0,0.0,0.0,0.0,0.0,0.0,0.0,0.0,0.0,0.0,0.0,0.0,0.0,0.0,0.0,0.0,0.0,0.0,0.0,0.0,0.0,0.0,0.0,0.0,0.0,0.0,0.0,0.0,0.0,0.0,0.0,0.0,0.0,0.0,0.0,0.0,0.0,0.0,0.0,0.0,0.0,0.0,0.0,0.0,0.0,0.0,0.0,0.0,0.0,0.0,0.0,0.0,0.0,0.0,0.0,0.0,0.0,0.0,0.0,0.0,0.0,0.0,0.0,0.0,0.0,0.0,0.0,0.0,0.0,0.0,0.0,0.0,0.0,0.0,0.0,0.0,0.0,0.0,0.0,0.0,0.0,0.0,0.0,0.0,0.0,0.0,0.0,0.0,0.0,0.0,0.0,0.0,0.0,0.0,0.0,0.0,0.0,0.0,0.0,0.0,0.0,0.0,-3.2883,-3.2057,-3.0375,0.0,0.0,0.0,0.0,0.0,0.0,0.0,0.0,0.0,0.0,0.0,0.0,0.0,0.0,0.0,0.0,0.0,0.0,0.0,0.0,0.0,0.0,0.0,0.0,0.0,0.0,0.0,0.0,0.0,0.0,0.0,0.0,0.0,0.0,0.0,0.0,0.0,0.0,0.0,0.0,0.0,0.0,0.0,0.0,0.0,0.0,0.0,0.0,0.0,0.0,0.0,0.0,0.0,0.0,0.0,0.0,0.0,0.0,0.0,0.0,0.0,0.0,0.0,0.0,0.0,0.0,0.0,0.0,0.0,0.0,0.0,0.0,0.0,0.0,0.0,0.0,0.0,0.0,0.0,0.0,0.0,0.0,0.0,0.0,0.0,0.0,0.0,0.0,0.0,0.0,0.0,0.0,0.0,0.0,0.0,0.0,0.0,0.0,0.0,0.0,0.0,0.0,0.0,0.0,0.0,0.0,0.0,0.0,0.0,0.0,-3.4592,-3.2861,-3.2804,0.0,-3.0355,0.0,0.0,0.0,0.0,0.0,0.0,0.0,0.0,0.0,0.0,0.0,0.0,0.0,0.0,0.0,0.0,0.0,0.0,0.0,0.0,0.0,0.0,0.0,0.0,0.0,0.0,0.0,0.0,0.0,0.0,0.0,0.0,0.0,0.0,0.0,0.0,0.0,0.0,0.0,0.0,0.0,0.0,0.0,0.0,0.0,0.0,0.0,0.0,0.0,0.0,0.0,0.0,0.0,0.0,0.0,0.0,0.0,0.0,0.0,0.0,0.0,0.0,0.0,0.0,0.0,0.0,0.0,0.0,0.0,0.0,0.0,0.0,0.0,0.0,0.0,0.0,0.0,0.0,0.0,0.0,0.0,0.0,0.0,0.0,0.0,0.0,0.0,0.0,0.0,0.0,0.0,0.0,0.0,0.0,0.0,0.0,0.0,0.0,0.0,0.0,0.0,0.0,0.0,0.0,0.0,0.0,0.0,0.0,0.0,0.0,-3.4529,-3.2833,-3.1816,-3.0934,0.0,0.0,0.0,0.0,0.0,0.0,0.0,0.0,0.0,0.0,0.0,0.0,0.0,0.0,0.0,0.0,0.0,0.0,0.0,0.0,0.0,0.0,0.0,0.0,0.0,0.0,0.0,0.0,0.0,0.0,0.0,0.0,0.0,0.0,0.0,0.0,0.0,0.0,0.0,0.0,0.0,0.0,0.0,0.0,0.0,0.0,0.0,0.0,0.0,0.0,0.0,0.0,0.0,0.0,0.0,0.0,0.0,0.0,0.0,0.0,0.0,0.0,0.0,0.0,0.0,0.0,0.0,0.0,0.0,0.0,0.0,0.0,0.0,0.0,0.0,0.0,0.0,0.0,0.0,0.0,0.0,0.0,0.0,0.0,0.0,0.0,0.0,0.0,0.0,0.0,0.0,0.0,0.0,0.0,0.0,0.0,0.0,0.0,0.0,0.0,0.0,0.0,0.0,0.0,0.0,0.0,0.0,0.0,0.0,0.0,-3.5285,-3.4492,-3.2816,-3.1104,-3.0178,-3.0171,0.0,0.0,0.0,0.0,0.0,0.0,0.0,0.0,0.0,0.0,0.0,0.0,0.0,0.0,0.0,0.0,0.0,0.0,0.0,0.0,0.0,0.0,0.0,0.0,0.0,0.0,0.0,0.0,0.0,0.0,0.0,0.0,0.0,0.0,0.0,0.0,0.0,0.0,0.0,0.0,0.0,0.0,0.0,0.0,0.0,0.0,0.0,0.0,0.0,0.0,0.0,0.0,0.0,0.0,0.0,0.0,0.0,0.0,0.0,0.0,0.0,0.0,0.0,0.0,0.0,0.0,0.0,0.0,0.0,0.0,0.0,0.0,0.0,0.0,0.0,0.0,0.0,0.0,0.0,0.0,0.0,0.0,0.0,0.0,0.0,0.0,0.0,0.0,0.0,0.0,0.0,0.0,0.0,0.0,0.0,0.0,0.0,0.0,0.0,0.0,0.0,0.0,0.0,0.0,0.0,0.0,0.0,0.0,-3.5209,-3.525,-3.4466,-3.2726,-3.1064,-3.0171,0.0,0.0,0.0,0.0,0.0,0.0,0.0,0.0,0.0,0.0,0.0,0.0,0.0,0.0,0.0,0.0,0.0,0.0,0.0,0.0,0.0,0.0,0.0,0.0,0.0,0.0,0.0,0.0,0.0,0.0,0.0,0.0,0.0,0.0,0.0,0.0,0.0,0.0,0.0,0.0,0.0,0.0,0.0,0.0,0.0,0.0,0.0,0.0,0.0,0.0,0.0,0.0,0.0,0.0,0.0,0.0,0.0,0.0,0.0,0.0,0.0,0.0,0.0,0.0,0.0,0.0,0.0,0.0,0.0,0.0,0.0,0.0,0.0,0.0,0.0,0.0,0.0,0.0,0.0,0.0,0.0,0.0,0.0,0.0,0.0,0.0,0.0,0.0,0.0,0.0,0.0,0.0,0.0,0.0,0.0,0.0,0.0,0.0,0.0,0.0,0.0,0.0,0.0,0.0,0.0,0.0,0.0,0.0,0.0,-3.5149,-3.4178,-3.3318,-3.2611,-3.1008,-3.0116,0.0,0.0,0.0,0.0,0.0,0.0,0.0,0.0,0.0,0.0,0.0,0.0,0.0,0.0,0.0,0.0,0.0,0.0,0.0,0.0,0.0,0.0,0.0,0.0,0.0,0.0,0.0,0.0,0.0,0.0,0.0,0.0,0.0,0.0,0.0,0.0,0.0,0.0,0.0,0.0,0.0,0.0,0.0,0.0,0.0,0.0,0.0,0.0,0.0,0.0,0.0,0.0,0.0,0.0,0.0,0.0,0.0,0.0,0.0,0.0,0.0,0.0,0.0,0.0,0.0,0.0,0.0,0.0,0.0,0.0,0.0,0.0,0.0,0.0,0.0,0.0,0.0,0.0,0.0,0.0,0.0,0.0,0.0,0.0,0.0,0.0,0.0,0.0,0.0,0.0,0.0,0.0,0.0,0.0,0.0,0.0,0.0,0.0,0.0,0.0,0.0,0.0,0.0,0.0,0.0,0.0,0.0,0.0,0.0,-3.5126,0.0,-3.2893,-3.2572,-3.123,-3.0342,0.0,0.0,0.0,0.0,0.0,0.0,0.0,0.0,0.0,0.0,0.0,0.0,0.0,0.0,0.0,0.0,0.0,0.0,0.0,0.0,0.0,0.0,0.0,0.0,0.0,0.0,0.0,0.0,0.0,0.0,0.0,0.0,0.0,0.0,0.0,0.0,0.0,0.0,0.0,0.0,0.0,0.0,0.0,0.0,0.0,0.0,0.0,0.0,0.0,0.0,0.0,0.0,0.0,0.0,0.0,0.0,0.0,0.0,0.0,0.0,0.0,0.0,0.0,0.0,0.0,0.0,0.0,0.0,0.0,0.0,0.0,0.0,0.0,0.0,0.0,0.0,0.0,0.0,0.0,0.0,0.0,0.0,0.0,0.0,0.0,0.0,0.0,0.0,0.0,0.0,0.0,0.0,0.0,0.0,0.0,0.0,0.0,0.0,0.0,0.0,0.0,0.0,0.0,0.0,0.0,0.0,0.0,0.0,-3.5039,-3.5054,-3.4217,-3.3407,-3.2618,-3.1754,-3.085,0.0,0.0,0.0,0.0,0.0,0.0,0.0,0.0,0.0,0.0,0.0,0.0,0.0,0.0,0.0,0.0,0.0,0.0,0.0,0.0,0.0,0.0,0.0,0.0,0.0,0.0,0.0,0.0,0.0,0.0,0.0,0.0,0.0,0.0,0.0,0.0,0.0,0.0,0.0,0.0,0.0,0.0,0.0,0.0,0.0,0.0,0.0,0.0,0.0,0.0,0.0,0.0,0.0,0.0,0.0,0.0,0.0,0.0,0.0,0.0,0.0,0.0,0.0,0.0,0.0,0.0,0.0,0.0,0.0,0.0,0.0,0.0,0.0,0.0,0.0,0.0,0.0,0.0,0.0,0.0,0.0,0.0,0.0,0.0,0.0,0.0,0.0,0.0,0.0,0.0,0.0,0.0,0.0,0.0,0.0,0.0,0.0,0.0,0.0,0.0,0.0,0.0,0.0,0.0,0.0,0.0,0.0,0.0,0.0,-3.5001,-3.4219,-3.3678,-3.3323,-3.1986,-3.1052,0.0,0.0,0.0,0.0,0.0,0.0,0.0,0.0,0.0,0.0,0.0,0.0,0.0,0.0,0.0,0.0,0.0,0.0,0.0,0.0,0.0,0.0,0.0,0.0,0.0,0.0,0.0,0.0,0.0,0.0,0.0,0.0,0.0,0.0,0.0,0.0,0.0,0.0,0.0,0.0,0.0,0.0,0.0,0.0,0.0,0.0,0.0,0.0,0.0,0.0,0.0,0.0,0.0,0.0,0.0,0.0,0.0,0.0,0.0,0.0,0.0,0.0,0.0,0.0,0.0,0.0,0.0,0.0,0.0,0.0,0.0,0.0,0.0,0.0,0.0,0.0,0.0,0.0,0.0,0.0,0.0,0.0,0.0,0.0,0.0,0.0,0.0,0.0,0.0,0.0,0.0,0.0,0.0,0.0,0.0,0.0,0.0,0.0,0.0,0.0,0.0,0.0,0.0,0.0,0.0,0.0,0.0,0.0,0.0,-3.4898,-3.4443,-3.3988,-3.3639,-3.2608,-3.1712,-3.0998,0.0,0.0,0.0,0.0,0.0,0.0,0.0,0.0,0.0,0.0,0.0,0.0,0.0,0.0,0.0,0.0,0.0,0.0,0.0,0.0,0.0,0.0,0.0,0.0,0.0,0.0,0.0,0.0,0.0,0.0,0.0,0.0,0.0,0.0,0.0,0.0,0.0,0.0,0.0,0.0,0.0,0.0,0.0,0.0,0.0,0.0,0.0,0.0,0.0,0.0,0.0,0.0,0.0,0.0,0.0,0.0,0.0,0.0,0.0,0.0,0.0,0.0,0.0,0.0,0.0,0.0,0.0,0.0,0.0,0.0,0.0,0.0,0.0,0.0,0.0,0.0,0.0,0.0,0.0,0.0,0.0,0.0,0.0,0.0,0.0,0.0,0.0,0.0,0.0,0.0,0.0,0.0,0.0,0.0,0.0,0.0,0.0,0.0,0.0,0.0,0.0,0.0,0.0,0.0,0.0,0.0,0.0,0.0,-3.4778,-3.4778,-3.4401,-3.3609,-3.3505,-3.2721,0.0,0.0,0.0,0.0,0.0,0.0,0.0,0.0,0.0,0.0,0.0,0.0,0.0,0.0,0.0,0.0,0.0,0.0,0.0,0.0,0.0,0.0,0.0,0.0,0.0,0.0,0.0,0.0,0.0,0.0,0.0,0.0,0.0,0.0,0.0,0.0,0.0,0.0,0.0,0.0,0.0,0.0,0.0,0.0,0.0,0.0,0.0,0.0,0.0,0.0,0.0,0.0,0.0,0.0,0.0,0.0,0.0,0.0,0.0,0.0,0.0,0.0,0.0,0.0,0.0,0.0,0.0,0.0,0.0,0.0,0.0,0.0,0.0,0.0,0.0,0.0,0.0,0.0,0.0,0.0,0.0,0.0,0.0,0.0,0.0,0.0,0.0,0.0,0.0,0.0,0.0,0.0,0.0,0.0,0.0,0.0,0.0,0.0,0.0,0.0,0.0,0.0,0.0,0.0,0.0,0.0,0.0,0.0,0.0,-3.4572,-3.4591,-3.4489,-3.4306,-3.3742,-3.3154,0.0,0.0,0.0,0.0,0.0,0.0,0.0,0.0,0.0,0.0,0.0,0.0,0.0,0.0,0.0,0.0,0.0,0.0,0.0,0.0,0.0,0.0,0.0,0.0,0.0,0.0,0.0,0.0,0.0,0.0,0.0,0.0,0.0,0.0,0.0,0.0,0.0,0.0,0.0,0.0,0.0,0.0,0.0,0.0,0.0,0.0,0.0,0.0,0.0,0.0,0.0,0.0,0.0,0.0,0.0,0.0,0.0,0.0,0.0,0.0,0.0,0.0,0.0,0.0,0.0,0.0,0.0,0.0,0.0,0.0,0.0,0.0,0.0,0.0,0.0,0.0,0.0,0.0,0.0,0.0,0.0,0.0,0.0,0.0,0.0,0.0,0.0,0.0,0.0,0.0,0.0,0.0,0.0,0.0,0.0,0.0,0.0,0.0,0.0,0.0,0.0,0.0,0.0,0.0,0.0,0.0,0.0,0.0,-3.4539,-3.4487,-3.4473,-3.4431,-3.442,-3.4034,-3.359,0.0,0.0,0.0,0.0,0.0,0.0,0.0,0.0,0.0,0.0,0.0,0.0,0.0,0.0,0.0,0.0,0.0,0.0,0.0,0.0,0.0,0.0,0.0,0.0,0.0,0.0,0.0,0.0,0.0,0.0,0.0,0.0,0.0,0.0,0.0,0.0,0.0,0.0,0.0,0.0,0.0,0.0,0.0,0.0,0.0,0.0,0.0,0.0,0.0,0.0,0.0,0.0,0.0,0.0,0.0,0.0,0.0,0.0,0.0,0.0,0.0,0.0,0.0,0.0,0.0,0.0,0.0,0.0,0.0,0.0,0.0,0.0,0.0,0.0,0.0,0.0,0.0,0.0,0.0,0.0,0.0,0.0,0.0,0.0,0.0,0.0,0.0,0.0,0.0,0.0,0.0,0.0,0.0,0.0,0.0,0.0,0.0,0.0,0.0,0.0,0.0,0.0,0.0,0.0,0.0,0.0,0.0,0.0,-3.4626,-3.4604,-3.4547,-3.4447,-3.4327,-3.436,-3.3981,0.0,0.0,0.0,0.0,0.0,0.0,0.0,0.0,0.0,0.0,0.0,0.0,0.0,0.0,0.0,0.0,0.0,0.0,0.0,0.0,0.0,0.0,0.0,0.0,0.0,0.0,0.0,0.0,0.0,0.0,0.0,0.0,0.0,0.0,0.0,0.0,0.0,0.0,0.0,0.0,0.0,0.0,0.0,0.0,0.0,0.0,0.0,0.0,0.0,0.0,0.0,0.0,0.0,0.0,0.0,0.0,0.0,0.0,0.0,0.0,0.0,0.0,0.0,0.0,0.0,0.0,0.0,0.0,0.0,0.0,0.0,0.0,0.0,0.0,0.0,0.0,0.0,0.0,0.0,0.0,0.0,0.0,0.0,0.0,0.0,0.0,0.0,0.0,0.0,0.0,0.0,0.0,0.0,0.0,0.0,0.0,0.0,0.0,0.0,0.0,0.0,0.0,0.0,0.0,0.0,0.0,0.0,0.0,-3.5413,-3.5366,-3.5305,-3.5213,-3.5156,-3.455,-3.4111,0.0,0.0,0.0,0.0,0.0,0.0,0.0,0.0,0.0,0.0,0.0,0.0,0.0,0.0,0.0,0.0,0.0,0.0,0.0,0.0,0.0,0.0,0.0,0.0,0.0,0.0,0.0,0.0,0.0,0.0,0.0,0.0,0.0,0.0,0.0,0.0,0.0,0.0,0.0,0.0,0.0,0.0,0.0,0.0,0.0,0.0,0.0,0.0,-2.7635,0.0,0.0,0.0,0.0,0.0,0.0,0.0,0.0,0.0,0.0,0.0,0.0,0.0,0.0,0.0,0.0,0.0,0.0,0.0,0.0,0.0,0.0,0.0,0.0,0.0,0.0,0.0,0.0,0.0,0.0,0.0,0.0,0.0,0.0,0.0,0.0,0.0,0.0,0.0,0.0,0.0,0.0,0.0,0.0,0.0,0.0,0.0,0.0,0.0,0.0,0.0,0.0,0.0,0.0,0.0,0.0,0.0,0.0,0.0,-3.5535,-3.5498,-3.5447,-3.5388,-3.5285,-3.4473,-3.3985,0.0,0.0,0.0,0.0,0.0,0.0,0.0,0.0,0.0,0.0,0.0,0.0,0.0,0.0,0.0,0.0,0.0,0.0,0.0,0.0,0.0,0.0,0.0,0.0,0.0,0.0,0.0,0.0,0.0,0.0,0.0,0.0,0.0,0.0,0.0,0.0,0.0,0.0,0.0,0.0,0.0,0.0,0.0,0.0,0.0,0.0,0.0,0.0,0.0,0.0,0.0,0.0,0.0,0.0,0.0,0.0,0.0,0.0,0.0,0.0,0.0,0.0,0.0,0.0,0.0,0.0,0.0,0.0,0.0,0.0,0.0,0.0,0.0,0.0,0.0,0.0,0.0,0.0,0.0,0.0,0.0,0.0,0.0,0.0,0.0,0.0,0.0,0.0,0.0,0.0,0.0,0.0,0.0,0.0,0.0,0.0,0.0,0.0,0.0,0.0,0.0,0.0,0.0,0.0,0.0,0.0,0.0,-3.5169,-3.5577,-3.5564,-3.5483,-3.5427,-3.5358,-3.4334,-3.378,-3.3721,0.0,0.0,0.0,0.0,0.0,0.0,0.0,0.0,0.0,0.0,0.0,0.0,0.0,0.0,0.0,0.0,0.0,0.0,0.0,0.0,0.0,0.0,0.0,0.0,0.0,0.0,0.0,0.0,0.0,0.0,0.0,0.0,0.0,0.0,0.0,0.0,0.0,0.0,-2.9189,-2.9178,0.0,0.0,0.0,0.0,0.0,0.0,0.0,0.0,-2.8987,0.0,0.0,0.0,0.0,0.0,0.0,0.0,0.0,0.0,0.0,0.0,0.0,0.0,0.0,0.0,0.0,0.0,0.0,0.0,0.0,0.0,0.0,0.0,0.0,0.0,0.0,0.0,0.0,0.0,0.0,0.0,0.0,0.0,0.0,0.0,0.0,0.0,0.0,0.0,0.0,0.0,0.0,0.0,0.0,0.0,0.0,0.0,0.0,0.0,0.0,0.0,0.0,0.0,0.0,0.0,0.0,-3.4148,-3.5631,-3.6369,-3.6301,-3.6251,-3.62,-3.6093,-3.4559,-3.3647,-3.3477,0.0,0.0,0.0,0.0,0.0,0.0,0.0,0.0,0.0,0.0,0.0,0.0,0.0,0.0,0.0,0.0,0.0,0.0,0.0,0.0,0.0,0.0,0.0,0.0,0.0,0.0,0.0,0.0,0.0,0.0,0.0,0.0,0.0,0.0,0.0,0.0,0.0,0.0,0.0,-2.9119,-2.9096,0.0,0.0,0.0,0.0,0.0,0.0,0.0,0.0,-2.8913,0.0,0.0,0.0,0.0,0.0,0.0,0.0,0.0,0.0,0.0,0.0,0.0,0.0,0.0,0.0,0.0,0.0,0.0,0.0,0.0,0.0,0.0,0.0,0.0,0.0,0.0,0.0,0.0,0.0,0.0,0.0,0.0,0.0,0.0,0.0,0.0,0.0,0.0,0.0,0.0,0.0,0.0,0.0,0.0,0.0,0.0,0.0,0.0,0.0,0.0,0.0,0.0,0.0,0.0,0.0,-3.4141,-3.5655,-3.6279,-3.5851,-3.6103,-3.6032,-3.5581,-3.4254,-3.3509,0.0,0.0,0.0,0.0,0.0,0.0,0.0,0.0,0.0,0.0,0.0,0.0,0.0,0.0,0.0,0.0,0.0,0.0,0.0,0.0,0.0,0.0,0.0,0.0,0.0,0.0,0.0,0.0,0.0,0.0,0.0,0.0,0.0,0.0,0.0,0.0,0.0,0.0,0.0,0.0,-2.9051,-2.904,-2.9005,0.0,0.0,0.0,0.0,0.0,0.0,-2.8987,-2.8987,0.0,0.0,0.0,0.0,0.0,0.0,0.0,0.0,0.0,0.0,0.0,0.0,0.0,0.0,0.0,0.0,0.0,0.0,0.0,0.0,0.0,0.0,0.0,0.0,0.0,0.0,0.0,0.0,0.0,0.0,0.0,0.0,0.0,0.0,0.0,0.0,0.0,0.0,0.0,0.0,0.0,0.0,0.0,0.0,0.0,0.0,0.0,0.0,0.0,0.0,0.0,0.0,0.0,0.0,0.0,-3.4041,-3.5399,-3.5786,-3.5184,-3.5589,-3.5517,-3.4863,-3.3895,-3.3382,0.0,0.0,0.0,0.0,0.0,0.0,0.0,0.0,0.0,0.0,0.0,0.0,0.0,0.0,0.0,0.0,0.0,0.0,0.0,0.0,0.0,0.0,0.0,0.0,0.0,0.0,0.0,0.0,0.0,0.0,0.0,0.0,0.0,0.0,0.0,0.0,0.0,0.0,0.0,0.0,0.0,-2.8987,-2.8987,-2.8987,0.0,0.0,0.0,0.0,-2.8987,-2.8994,0.0,0.0,0.0,0.0,0.0,0.0,0.0,0.0,0.0,0.0,0.0,0.0,0.0,0.0,0.0,0.0,0.0,0.0,0.0,0.0,0.0,0.0,0.0,0.0,0.0,0.0,0.0,0.0,0.0,0.0,0.0,0.0,0.0,0.0,0.0,0.0,0.0,0.0,0.0,0.0,0.0,0.0,0.0,0.0,0.0,0.0,0.0,0.0,0.0,0.0,0.0,0.0,0.0,0.0,0.0,0.0,-3.3944,-3.4747,-3.5082,-3.4948,-3.4954,-3.4834,-3.4646,-3.3824,-3.3289,0.0,0.0,0.0,0.0,0.0,0.0,0.0,0.0,0.0,0.0,0.0,0.0,0.0,0.0,0.0,0.0,0.0,0.0,0.0,0.0,0.0,0.0,0.0,0.0,0.0,0.0,0.0,0.0,0.0,0.0,0.0,0.0,0.0,0.0,0.0,0.0,0.0,0.0,0.0,0.0,0.0,-2.8987,-2.8987,-2.8987,-2.8987,0.0,0.0,-2.8987,-2.8987,-2.894,0.0,0.0,0.0,0.0,0.0,0.0,0.0,0.0,0.0,0.0,0.0,0.0,0.0,0.0,0.0,0.0,0.0,0.0,0.0,0.0,0.0,0.0,0.0,0.0,0.0,0.0,0.0,0.0,0.0,0.0,0.0,0.0,0.0,0.0,0.0,0.0,0.0,0.0,0.0,0.0,0.0,0.0,0.0,0.0,0.0,0.0,0.0,0.0,0.0,0.0,0.0,0.0,0.0,0.0,0.0,-3.3766,-3.3781,-3.496,-3.51,-3.4227,-3.495,-3.4897,-3.3951,-3.3421,-3.3122,0.0,0.0,0.0,0.0,0.0,0.0,0.0,0.0,0.0,0.0,0.0,0.0,0.0,0.0,0.0,0.0,0.0,0.0,0.0,0.0,0.0,0.0,0.0,0.0,0.0,0.0,0.0,0.0,0.0,0.0,0.0,0.0,0.0,0.0,0.0,0.0,0.0,0.0,0.0,0.0,0.0,0.0,-2.8881,-2.89,0.0,0.0,0.0,-2.89,-2.8881,0.0,0.0,0.0,0.0,0.0,0.0,0.0,0.0,0.0,0.0,0.0,0.0,0.0,0.0,0.0,0.0,0.0,0.0,0.0,0.0,0.0,0.0,0.0,0.0,0.0,0.0,0.0,0.0,0.0,0.0,0.0,0.0,0.0,0.0,0.0,0.0,0.0,0.0,0.0,0.0,0.0,0.0,0.0,0.0,0.0,0.0,0.0,0.0,0.0,0.0,0.0,0.0,0.0,0.0,0.0,0.0,0.0,-3.3933,-3.5071,-3.515,-3.4171,-3.4981,-3.4852,-3.3632,-3.3196,0.0,0.0,0.0,0.0,0.0,0.0,0.0,0.0,0.0,0.0,0.0,0.0,0.0,0.0,0.0,0.0,0.0,0.0,0.0,0.0,0.0,0.0,0.0,0.0,0.0,0.0,0.0,-2.8549,0.0,0.0,0.0,0.0,0.0,0.0,0.0,0.0,0.0,0.0,0.0,0.0,0.0,0.0,-2.9107,-2.9089,-2.9271,-2.9399,0.0,0.0,-2.9399,-2.9399,-2.9223,-2.9083,0.0,0.0,0.0,0.0,0.0,0.0,0.0,0.0,0.0,0.0,0.0,0.0,0.0,0.0,0.0,0.0,0.0,0.0,0.0,0.0,0.0,0.0,0.0,0.0,0.0,0.0,0.0,0.0,0.0,0.0,0.0,0.0,0.0,0.0,0.0,0.0,0.0,0.0,0.0,0.0,0.0,0.0,0.0,0.0,0.0,0.0,0.0,0.0,0.0,0.0,0.0,0.0,0.0,0.0,0.0,-3.4685,-3.4715,-3.4987,-3.5496,-3.4794,-3.4325,-3.4137,-3.3405,-3.2981,0.0,0.0,0.0,0.0,0.0,0.0,0.0,0.0,0.0,0.0,0.0,0.0,0.0,0.0,0.0,0.0,0.0,0.0,0.0,0.0,0.0,0.0,0.0,0.0,0.0,0.0,0.0,0.0,0.0,0.0,0.0,0.0,0.0,0.0,0.0,0.0,0.0,0.0,0.0,0.0,0.0,-2.9922,-2.9922,-3.0578,-3.1021,0.0,0.0,-3.1039,-3.1021,-3.035,-2.9839,-2.9821,0.0,0.0,0.0,0.0,0.0,0.0,0.0,0.0,0.0,0.0,0.0,0.0,0.0,0.0,0.0,0.0,0.0,0.0,0.0,0.0,0.0,0.0,0.0,0.0,0.0,0.0,0.0,0.0,0.0,0.0,0.0,0.0,0.0,0.0,0.0,0.0,0.0,0.0,0.0,0.0,0.0,0.0,0.0,0.0,0.0,0.0,0.0,0.0,0.0,0.0,0.0,0.0,0.0,-3.4956,-3.5216,-3.5674,-3.5788,-3.5589,-3.5671,-3.5229,-3.4228,-3.3859,-3.3434,0.0,0.0,0.0,0.0,0.0,0.0,0.0,0.0,0.0,0.0,0.0,0.0,0.0,0.0,0.0,0.0,0.0,0.0,0.0,0.0,0.0,0.0,0.0,0.0,0.0,0.0,0.0,0.0,-2.8432,-2.8432,-2.8432,0.0,0.0,0.0,0.0,0.0,0.0,0.0,0.0,0.0,0.0,-3.0496,-3.0482,-3.0767,0.0,0.0,-3.0934,-3.0948,-3.0948,-3.0667,-3.0441,-3.0441,-3.0161,0.0,0.0,0.0,0.0,0.0,0.0,0.0,0.0,0.0,0.0,0.0,0.0,0.0,0.0,0.0,0.0,0.0,0.0,0.0,0.0,0.0,0.0,0.0,0.0,0.0,0.0,0.0,0.0,0.0,0.0,0.0,0.0,0.0,0.0,0.0,0.0,0.0,0.0,0.0,0.0,0.0,0.0,0.0,0.0,0.0,0.0,0.0,0.0,0.0,0.0,0.0,0.0,-3.5665,-3.5867,-3.6373,-3.6499,-3.6176,-3.6396,-3.5879,-3.4573,-3.4237,-3.3723,0.0,0.0,0.0,0.0,0.0,0.0,0.0,0.0,0.0,0.0,0.0,0.0,0.0,0.0,0.0,0.0,0.0,0.0,0.0,0.0,0.0,0.0,0.0,0.0,0.0,0.0,0.0,0.0,-2.9071,-2.9089,-2.9089,0.0,0.0,0.0,0.0,0.0,0.0,0.0,0.0,0.0,0.0,-3.116,-3.1157,-3.134,-3.1484,-3.1484,-3.1484,-3.1484,-3.1484,-3.1304,-3.116,-3.116,0.0,0.0,0.0,0.0,0.0,0.0,0.0,0.0,0.0,0.0,0.0,0.0,0.0,0.0,0.0,0.0,0.0,0.0,0.0,0.0,0.0,0.0,0.0,0.0,0.0,0.0,0.0,0.0,0.0,0.0,-3.5932,0.0,0.0,0.0,0.0,0.0,0.0,0.0,0.0,0.0,0.0,0.0,0.0,0.0,0.0,0.0,0.0,0.0,0.0,0.0,0.0,0.0,0.0,-3.5921,-3.6641,-3.6592,-3.6879,-3.7578,-3.6845,-3.6024,-3.5221,-3.4491,-3.374,-3.2953,0.0,0.0,0.0,0.0,0.0,0.0,0.0,0.0,0.0,0.0,0.0,0.0,0.0,0.0,0.0,0.0,0.0,0.0,0.0,0.0,0.0,0.0,0.0,0.0,0.0,0.0,-3.0524,-3.0632,-3.0614,0.0,0.0,0.0,0.0,0.0,0.0,0.0,0.0,0.0,0.0,-3.1484,-3.1984,-3.1969,-3.258,-3.2993,-3.3011,-3.3029,-3.3029,-3.3011,-3.2418,-3.1987,0.0,0.0,0.0,0.0,0.0,0.0,0.0,0.0,0.0,0.0,0.0,0.0,0.0,0.0,0.0,0.0,0.0,0.0,0.0,0.0,0.0,0.0,0.0,0.0,0.0,0.0,0.0,-3.7921,-3.7903,0.0,0.0,0.0,0.0,0.0,0.0,0.0,0.0,0.0,0.0,0.0,-3.7899,-3.7899,0.0,0.0,0.0,0.0,0.0,0.0,0.0,0.0,0.0,0.0,0.0,0.0,-3.7076,-3.7292,-3.7256,-3.7363,-3.7613,-3.7327,-3.6809,-3.6024,-3.5757,-3.4973,-3.3606,0.0,0.0,0.0,0.0,0.0,0.0,0.0,0.0,0.0,0.0,0.0,0.0,0.0,0.0,0.0,0.0,0.0,0.0,0.0,0.0,0.0,0.0,0.0,0.0,0.0,-3.0243,0.0,0.0,0.0,0.0,0.0,0.0,0.0,0.0,0.0,0.0,0.0,-3.1604,-3.2138,-3.2424,-3.2585,-3.2603,-3.2818,-3.2979,0.0,0.0,0.0,0.0,0.0,0.0,0.0,0.0,0.0,0.0,0.0,0.0,0.0,0.0,-3.2134,-3.1202,-3.1084,-3.1151,-3.1211,0.0,0.0,0.0,0.0,0.0,0.0,0.0,0.0,0.0,0.0,0.0,0.0,0.0,0.0,-3.8511,0.0,-3.8174,0.0,0.0,0.0,0.0,0.0,0.0,0.0,0.0,-3.7828,-3.781,-3.7793,-3.7811,-3.7793,0.0,-3.7793,-3.7793,0.0,0.0,0.0,0.0,0.0,0.0,0.0,0.0,-3.7631,-3.7595,-3.7595,-3.7595,-3.7595,-3.7595,-3.7202,-3.6435,-3.6096,-3.5313,-3.3913,-3.333,-3.2889,0.0,0.0,0.0,0.0,0.0,0.0,0.0,0.0,0.0,0.0,0.0,0.0,0.0,0.0,0.0,0.0,0.0,0.0,0.0,0.0,0.0,0.0,0.0,-3.1332,0.0,0.0,0.0,0.0,0.0,0.0,0.0,0.0,0.0,-3.2186,-3.2099,-3.2311,-3.2829,-3.29,-3.29,-3.29,0.0,0.0,0.0,0.0,0.0,0.0,0.0,-3.29,-3.29,-3.29,-3.2916,-3.2948,-3.3011,-3.3024,-3.3024,0.0,0.0,-3.1949,-3.184,-3.191,-3.1969,-3.205,-3.2117,-3.2112,-3.219,-3.2137,0.0,0.0,0.0,0.0,0.0,0.0,0.0,0.0,-3.9458,-3.9007,0.0,-3.8198,0.0,0.0,0.0,0.0,0.0,-3.7917,0.0,0.0,-3.7793,-3.7721,-3.7684,-3.772,-3.7684,-3.7666,-3.772,-3.772,-3.772,-3.7864,0.0,0.0,0.0,0.0,0.0,0.0,-3.7595,-3.7595,-3.7595,-3.7595,-3.7595,-3.7595,-3.7238,-3.647,-3.5598,-3.4782,-3.3951,-3.3828,-3.3456,-3.2677,-3.2625,0.0,0.0,0.0,0.0,0.0,0.0,0.0,0.0,0.0,0.0,0.0,0.0,0.0,0.0,0.0,0.0,0.0,0.0,0.0,0.0,-3.29,0.0,0.0,0.0,0.0,0.0,0.0,0.0,0.0,0.0,0.0,-3.2936,-3.29,-3.29,-3.29,0.0,0.0,0.0,0.0,-3.29,-3.29,-3.29,-3.29,-3.29,-3.29,-3.29,-3.29,0.0,0.0,-3.29,-3.29,-3.29,-3.29,-3.2981,-3.306,-3.3211,-3.3202,-3.328,-3.3375,-3.3439,-3.3583,-3.3652,-3.3588,-3.3458,-4.3452,0.0,0.0,0.0,0.0,-4.0617,-4.0419,-4.022,-4.0149,-3.9969,-3.9752,-3.9644,0.0,0.0,0.0,0.0,0.0,0.0,-3.8507,-3.8524,-3.9024,-3.9255,-3.9236,-3.9254,-3.9236,-3.9236,-3.9254,-3.9254,-3.9218,-3.8775,-3.8239,-3.7631,0.0,0.0,0.0,0.0,-3.7595,-3.7595,-3.7595,-3.7595,-3.7595,-3.7595,-3.7451,-3.711,-3.6218,-3.5612,-3.5382,-3.478,-3.4058,-3.3266,-3.3248,0.0,0.0,0.0,0.0,0.0,0.0,0.0,0.0,0.0,0.0,0.0,0.0,0.0,0.0,0.0,0.0,0.0,0.0,0.0,-3.2882,-3.29,-3.29,0.0,0.0,0.0,0.0,0.0,0.0,0.0,0.0,0.0,-3.3669,-3.3257,-3.29,0.0,0.0,-3.29,-3.29,-3.29,-3.29,-3.29,0.0,0.0,0.0,-3.29,-3.29,-3.29,-3.29,-3.29,-3.29,-3.29,-3.29,-3.29,-3.2948,-3.3026,-3.3152,-3.3247,-3.3304,-3.3408,-3.3524,-3.3587,-3.3615,-3.3712,-3.3733,-4.4865,-4.3286,-4.294,-4.2305,-4.1579,-4.1488,-4.127,-4.0944,-4.0889,-4.0671,-4.0292,-4.0199,-4.0161,-4.0143,-3.9565,0.0,0.0,0.0,-3.9236,-3.9253,-3.9698,-3.9877,-3.9877,-3.9877,-3.9877,-3.9877,-3.9877,-3.9877,-3.9877,-3.9468,-3.9004,-3.8522,0.0,0.0,-3.8076,-3.8362,-3.8504,-3.8522,-3.8504,-3.8487,-3.8504,-3.8164,-3.7768,-3.728,-3.6724,-3.6259,-3.5922,-3.5428,-3.4793,-3.4021,-3.3967,-3.3792,0.0,0.0,0.0,0.0,0.0,0.0,0.0,0.0,0.0,0.0,0.0,-3.29,0.0,0.0,0.0,0.0,-3.29,-3.29,-3.29,-3.29,0.0,0.0,0.0,0.0,0.0,0.0,0.0,-3.381,-3.3812,-3.399,-3.4472,-3.4115,-3.3794,-3.381,-3.3794,-3.3812,-3.3794,0.0,-3.3812,-3.3794,-3.3794,-3.3794,-3.3794,-3.3812,-3.3812,-3.3828,-3.3828,-3.3828,-3.3812,-3.3812,-3.3828,-3.3843,-3.3677,-3.351,-3.3617,-3.3496,-3.3307,-3.3396,-3.3491,-3.3591,-3.3605,-3.3698,-3.3807,-4.6124,-4.5327,-4.4584,-4.3843,-4.31,-4.3028,-4.2536,-4.181,-4.1719,-4.1194,-4.0378,-4.0282,-4.0226,-4.0173,-4.004,0.0,-3.9895,-3.9948,-4.0002,-3.9984,-4.0075,-4.0091,-4.0091,-4.011,-4.0091,-4.0073,-4.0073,-4.0092,-4.011,-4.0037,-4.0002,-3.9966,-3.9343,-3.8932,-3.8933,-3.9556,-3.9877,-3.9877,-3.9859,-3.9877,-3.9877,-3.905,-3.8132,-3.7232,-3.7143,-3.6716,-3.5952,-3.588,-3.5583,-3.4934,-3.4863,-3.4899,-3.4899,0.0,0.0,0.0,0.0,0.0,0.0,0.0,0.0,0.0,0.0,0.0,0.0,0.0,0.0,0.0,-3.3096,0.0,-3.3078,-3.3078,0.0,0.0,0.0,-3.4187,-3.4204,-3.4775,-3.5222,-3.5276,0.0,0.0,-3.5472,0.0,-3.5507,-3.5561,-3.5418,-3.5293,-3.5276,-3.5329,-3.54,-3.5418,-3.5365,-3.5382,-3.5239,-3.515,-3.5061,-3.5043,-3.5204,-3.5097,-3.5096,-3.5132,-3.5238,-3.5286,-3.4784,-3.4365,-3.456,-3.3978,-3.3412,-3.3538,-3.3578,-3.3605,-3.3601,-3.3712,-3.3807,-4.6939,-4.6196,-4.6015,-4.5454,-4.4675,-4.4059,-4.3677,-4.3361,-4.265,-4.2212,-4.1932,-4.1832,-4.1453,-4.0864,-4.0824,-4.0485,-3.9912,-4.0519,-4.0824,-4.086,-4.1448,-4.1716,-4.1734,-4.1734,-4.1734,-4.1716,-4.1734,-4.1716,-4.1698,-4.1109,-4.0824,-4.0806,-4.0646,-4.0253,-3.9682,-3.9805,-3.9877,-3.9877,-3.9877,-3.9873,-3.9813,-3.897,-3.8375,-3.8023,-3.7365,-3.6939,-3.6707,-3.6726,-3.6638,-3.6463,-3.6463,-3.6445,-3.6463,-3.6463,0.0,0.0,0.0,0.0,0.0,0.0,0.0,0.0,0.0,-3.465,-3.465,0.0,-3.465,0.0,-3.465,-3.465,-3.465,-3.4668,0.0,0.0,-3.4829,-3.4919,-3.4937,-3.5079,-3.5435,-3.6042,-3.6114,-3.6577,-3.7809,-3.7933,-3.8147,-3.8664,-3.722,-3.6114,-3.6131,-3.6649,-3.7023,-3.7023,-3.7023,-3.6792,-3.6221,-3.5578,-3.5257,-3.5204,-3.5221,-3.5204,-3.5204,-3.529,-3.5359,-3.5393,-3.5383,-3.5353,-3.5401,-3.4798,-3.4356,-3.4337,-3.3989,-3.3619,-3.3675,-3.3739,-3.3807,-4.7425,-4.7026,-4.7047,-4.6776,-4.6269,-4.5128,-4.456,-4.4399,-4.3888,-4.3389,-4.2923,-4.2489,-4.2076,-4.1645,-4.1645,-4.1395,-4.102,-4.1448,-4.1627,-4.1645,-4.2093,-4.2308,-4.2308,-4.2308,-4.2308,-4.2308,-4.2308,-4.2308,-4.2272,-4.1823,-4.1627,-4.1627,-4.1627,-4.1395,-4.1002,-4.0967,-4.0967,-4.0967,-4.0967,-4.0744,-4.0246,-3.978,-3.9113,-3.8227,-3.7727,-3.7321,-3.7007,-3.6989,-3.7148,-3.7481,-3.7496,-3.7674,-3.7988,-3.8006,-3.8023,0.0,0.0,0.0,0.0,0.0,0.0,0.0,0.0,0.0,0.0,0.0,-3.6274,-3.6256,-3.6274,-3.6274,-3.6256,-3.6274,-3.6274,-3.6274,-3.6577,-3.6809,-3.6809,-3.7095,-3.747,-3.7898,-3.7969,-3.8165,-3.8718,-3.8789,-3.8808,-3.8879,-3.8076,-3.7594,-3.7933,-3.8344,-3.8611,-3.8611,-3.8611,-3.8344,-3.7594,-3.7113,-3.6684,-3.6345,-3.6256,-3.6274,-3.6327,-3.6379,-3.6448,-3.6533,-3.6364,-3.623,-3.6226,-3.5643,-3.5162,-3.5142,-3.467,-3.4075,-3.3758,-3.3753,-3.3807,-4.7787,-4.7699,-4.7699,-4.7699,-4.7569,-4.6214,-4.5423,-4.5165,-4.5036,-4.448,-4.3607,-4.2787,-4.2468,-4.243,-4.2341,-4.2308,-4.2308,-4.2308,-4.2308,-4.2308,-4.2308,-4.2308,-4.2308,-4.2308,-4.2308,-4.2308,-4.2308,-4.2308,-4.2308,-4.2308,-4.2308,-4.2308,-4.2308,-4.2308,-4.2308,-4.2308,-4.2308,-4.2308,-4.2308,-4.1866,-4.1002,-4.0858,-4.0047,-3.8518,-3.8322,-3.79,-3.7183,-3.7148,-3.7446,-3.8058,-3.8199,-3.8638,-3.941,-3.9547,-3.9582,0.0,-3.9603,0.0,0.0,0.0,0.0,0.0,0.0,0.0,0.0,-3.7842,-3.7898,-3.7916,-3.7898,-3.7898,-3.7898,-3.788,-3.7863,-3.7773,-3.838,-3.8772,-3.8701,-3.9236,-3.9645,-3.9753,-3.9752,-3.9502,-3.9039,-3.8932,-3.8665,-3.8255,-3.8594,-3.9039,-3.97,-3.977,-3.977,-3.9877,-3.9877,-3.9484,-3.9004,-3.8789,-3.8451,-3.7862,-3.7559,-3.7631,-3.7596,-3.7649,-3.7756,-3.7841,-3.7405,-3.7059,-3.7142,-3.6508,-3.6012,-3.6094,-3.5501,-3.475,-3.4101,-3.3858,-3.3807,-4.8294,-4.7717,-4.7699,-4.7699,-4.7681,-4.7352,-4.6783,-4.6008,-4.5312,-4.4785,-4.4357,-4.3607,-4.3286,-4.3233,-4.259,-4.2308,-4.2308,-4.2308,-4.2308,-4.2308,-4.2308,-4.2308,-4.2308,-4.2308,-4.2308,-4.2308,-4.2308,-4.2308,-4.2308,-4.2308,-4.2308,-4.2308,-4.2308,-4.2308,-4.2308,0.0,0.0,0.0,-4.2308,-4.2154,-4.1851,-4.1165,-4.058,-4.0134,-3.9452,0.0,-3.7935,-3.79,-3.7953,-3.8111,-3.8722,0.0,0.0,0.0,0.0,0.0,0.0,0.0,0.0,0.0,0.0,0.0,-4.1053,-4.0495,-3.9469,-3.9409,-3.9468,-3.9449,-3.9468,-3.9468,-3.9486,-3.9468,-3.9236,-3.8665,-3.8701,-3.8558,-3.7952,-3.8005,-3.8255,-3.8914,-3.9022,-3.9181,-3.9575,-3.9698,-3.9611,-3.9343,-3.9593,-3.9734,-3.9823,-3.9841,-3.9877,-3.9877,-3.9877,-3.9841,-3.9698,-3.9163,-3.8735,-3.854,-3.7987,-3.7667,-3.7703,-3.781,-3.7881,-3.7984,-3.798,-3.7904,-3.7955,-3.7339,-3.6808,-3.6947,-3.634,-3.5564,-3.4889,-3.4252,-3.3807,-4.8656,0.0,-4.7841,-4.7699,0.0,-4.7699,-4.744,-4.6961,-4.644,-4.5893,-4.5243,-4.4432,-4.4032,-4.3996,-4.3233,-4.2894,-4.2876,-4.2465,-4.2308,-4.2308,-4.2308,-4.2308,-4.2308,-4.2308,-4.2308,-4.2308,-4.2308,-4.2308,-4.2308,-4.2308,-4.2308,-4.2308,-4.2308,-4.2308,-4.2308,-4.2308,-4.2308,-4.2308,-4.2308,-4.2246,-4.2086,-4.1644,-4.1128,-4.0613,0.0,0.0,0.0,0.0,0.0,0.0,0.0,0.0,0.0,0.0,0.0,-4.1042,-4.0691,-4.0459,-4.0481,-4.0459,-4.0463,-4.0463,-4.057,-4.0739,-4.091,-4.0633,-4.0461,-4.0465,-4.0146,-3.9877,-3.9877,-3.9877,-3.9752,-3.9395,-3.9324,-3.9165,-3.8826,-3.8719,-3.8897,-3.9235,-3.9361,-3.9377,-3.9361,-3.9342,-3.9182,-3.8843,-3.8772,-3.879,-3.8843,-3.9431,-3.9877,-3.9877,-3.9877,-3.9752,-3.9432,-3.9092,-3.8629,-3.8272,-3.788,-3.7703,-3.7775,-3.7864,-3.7934,-3.8054,-3.8175,-3.8209,-3.8191,-3.7865,-3.7644,-3.763,-3.7111,-3.6553,-3.6128,-3.5215,-3.4399,-4.9018,-4.8837,-4.804,-4.7699,-4.7699,-4.7699,-4.7699,-4.7696,0.0,0.0,0.0,-4.5243,-4.4821,-4.4763,-4.4014,-4.3675,-4.364,-4.3001,-4.2697,-4.2697,-4.2697,-4.2697,-4.2697,-4.2697,-4.2697,-4.2697,-4.2697,-4.2697,-4.2697,-4.2697,-4.2697,-4.2697,-4.2697,-4.268,-4.2715,-4.2697,-4.2697,-4.2697,-4.243,-4.2246,-4.2124,-4.2055,-4.1648,-4.0867,-4.0781,-4.0348,-3.955,-3.9533,-3.9761,-4.0256,-4.0432,-4.0762,-4.1341,-4.0937,-4.0695,-4.0678,-4.0077,-3.9687,-3.9705,-3.9726,-3.9656,-3.9533,-3.9476,-4.0061,-4.1564,-4.1123,-4.0811,-4.0895,-4.0269,-3.9877,-3.9877,-3.9877,-3.9841,-3.9716,-3.9698,-3.9645,-3.9486,-3.9484,-3.9361,-3.9504,-3.9379,-3.9272,-3.8665,-3.8594,-3.8362,-3.7791,-3.7738,-3.7595,-3.7755,-3.8647,-3.9343,-3.9343,-3.9431,-3.9449,-3.9004,-3.8826,-3.854,-3.8058,-3.7755,-3.7649,-3.781,-3.7881,-3.7987,-3.8123,-3.8192,-3.8209,-3.8209,-3.8172,-3.8207,-3.829,-3.7845,-3.7413,-3.7381,-3.6413,-3.5481,-4.9528,-4.8837,-4.8022,-4.7699,-4.7699,-4.7699,-4.7699,-4.7696,-4.7554,-4.7327,-4.6963,-4.6153,-4.573,-4.5588,-4.4799,-4.4442,-4.4442,-4.4339,-4.4264,0.0,-4.4264,-4.4285,-4.4285,-4.4264,-4.4264,-4.4282,-4.4285,-4.4264,-4.4264,-4.4246,-4.4264,-4.4268,-4.4285,-4.4246,-4.4264,-4.4264,-4.4264,-4.4228,-4.2965,-4.2287,-4.2267,-4.2124,-4.2002,-4.1825,-4.1664,-4.1225,-4.0362,-4.0344,-4.0042,-3.9533,-4.0112,-4.0555,-4.066,-4.1183,-4.1446,-4.1446,-4.1341,-4.1288,-4.1271,-4.1288,-4.1007,-4.0358,-3.9729,-3.9514,-3.9916,-3.9946,-4.0012,-4.0055,-3.9912,-3.9877,-3.9877,-3.9823,-3.9574,-3.9074,-3.8967,-3.8719,-3.8148,-3.8076,-3.8112,-3.8148,-3.7934,-3.8023,-3.8005,-3.7952,-3.7916,-3.7684,-3.7648,-3.7595,-3.7631,-3.7773,-3.7898,-3.8005,-3.8522,-3.8843,-3.8736,-3.8789,-3.8665,-3.8683,-3.8005,-3.7631,-3.7739,-3.7828,-3.7916,-3.8019,-3.8122,-3.8174,-3.8192,-3.8209,-3.8242,-3.829,-3.8154,-3.8177,-3.8204,-3.7564,-3.689,-5.0289,-4.9492,-4.8695,-4.8098,-4.7699,-4.7699,-4.7699,-4.7696,-4.7636,-4.7529,-4.7341,-4.6898,-4.6671,-4.6534,-4.5738,-4.5354,-4.5354,-4.4842,-4.4585,-4.4585,-4.4585,-4.4585,-4.4585,-4.4585,-4.4585,-4.4585,-4.4585,-4.4585,-4.4585,-4.4585,-4.4585,-4.4585,-4.4585,-4.4585,-4.4585,-4.4585,-4.4585,-4.4585,-4.3911,-4.3554,-4.3554,-4.3038,-4.274,-4.2715,-4.2196,-4.17,-4.1221,-4.1204,-4.1217,-4.1218,-4.1552,-4.192,-4.2329,-4.2289,-4.2254,-4.2254,-4.185,-4.1604,-4.1604,-4.1604,-4.1446,-4.1135,-4.0826,-4.0722,-4.0887,-3.9724,-3.9134,-3.9251,-3.8933,-3.8647,-3.8647,-3.8665,-3.8683,-3.8789,-3.8789,-3.8826,-3.8861,-3.8843,-3.8843,-3.8843,-3.8843,-3.8843,-3.8843,-3.8843,-3.8647,-3.8326,-3.7952,-3.7631,-3.7631,-3.7631,-3.7613,-3.7631,-3.7916,-3.8094,-3.8165,-3.8148,-3.8148,-3.813,-3.7845,-3.7649,-3.7667,-3.7775,-3.7845,-3.7966,-3.8053,-3.8105,-3.8192,-3.8209,-3.8225,-3.8241,-3.832,-3.8399,-3.8392,-3.8248,-3.7734,-5.0941,-5.0289,-4.9311,-4.842,-4.7717,-4.7699,-4.7699,-4.7699,-4.7699,-4.7636,-4.7533,-4.7407,-4.7323,-4.7226,-4.6603,-4.6291,-4.6197,-4.5537,-4.5225,-4.5207,-4.5207,-4.5207,-4.519,-4.5207,-4.519,-4.5207,-4.5207,-4.5186,-4.5203,-4.5182,-4.5182,-4.5142,-4.516,-4.5142,-4.5138,-4.516,-4.5142,-4.512,-4.512,-4.4963,-4.4603,-4.395,-4.3586,-4.3525,-4.2945,-4.2518,-4.2374,-4.2374,-4.2591,-4.3054,-4.3089,-4.333,-4.3834,-4.336,-4.3061,-4.3009,-4.2464,-4.2113,-4.2113,-4.1978,-4.1912,-4.1912,-4.1864,-4.1905,-4.1867,-4.0344,-3.9325,-3.9483,-3.92,-3.8827,-3.8916,-3.8809,-3.8916,-3.9521,-3.9593,-3.9896,-4.0342,-4.0449,-4.034,-4.0253,-4.0162,-4.0092,-3.9948,-3.9877,-3.9646,-3.9075,-3.8487,-3.8148,-3.8113,-3.813,-3.8112,-3.8059,-3.7863,-3.7666,-3.7595,-3.7631,-3.7648,-3.7595,-3.7613,-3.7613,-3.7649,-3.7685,-3.7757,-3.7897,-3.7967,-3.8019,-3.8123,-3.8157,-3.8157,-3.8209,-3.8289,-3.8385,-3.843,-3.8559,-3.8343,-5.1253,-5.0959,-4.9582,-4.842,-4.7772,-4.7717,-4.7699,-4.7699,-4.7699,-4.7696,-4.7657,-4.7533,-4.7407,-4.7302,-4.7212,-4.7154,-4.7136,-4.7078,-4.6988,-4.6988,-4.7042,-4.7042,-4.6952,-4.7006,-4.706,-4.6988,-4.697,-4.6851,-4.682,-4.6869,-4.6861,-4.6788,-4.6766,-4.673,-4.673,-4.6712,-4.673,-4.6766,-4.6766,-4.6088,-4.4674,-4.4514,-4.4452,-4.4383,-4.4311,-4.421,-4.3992,-4.4058,-4.4009,-4.3983,-4.3983,-4.395,-4.3927,-4.3851,-4.3816,-4.3816,-4.3728,-4.3676,-4.3664,-4.3193,-4.2921,-4.282,-4.2436,-4.219,-4.2239,-4.1976,-4.1843,-4.1928,-4.1912,-4.1629,-4.1861,-4.1718,-4.1629,-4.1716,-4.1843,-4.2022,-4.2058,-4.2073,-4.1805,-4.1056,-4.1181,-4.077,-4.0376,-4.0199,-3.9985,-3.986,-3.9593,-3.9414,-3.9432,-3.945,-3.9449,-3.9325,-3.8576,-3.7773,-3.7684,-3.7613,-3.7666,-3.7648,-3.7595,-3.7595,-3.7631,-3.7667,-3.7721,-3.7757,-3.7828,-3.7933,-3.7984,-3.8018,-3.8088,-3.8174,-3.8257,-3.8354,-3.8462,-3.8609,-3.849,-5.1814,-5.1361,-5.0703,-4.9666,-4.846,-4.7895,-4.7699,-4.7699,-4.7699,-4.7699,-4.7696,-4.7636,-4.7593,-4.7533,-4.7468,-4.7425,-4.7407,-4.7323,-4.7298,-4.7298,-4.7298,-4.7298,-4.7298,-4.7298,-4.7298,-4.7298,-4.7298,-4.728,-4.7272,-4.7254,-4.7232,-4.7183,-4.7138,-4.7111,-4.7111,-4.7043,-4.6998,-4.6998,-4.6998,-4.6659,-4.6052,-4.5552,-4.5298,-4.5218,-4.4826,-4.4515,-4.4445,-4.4423,-4.4569,-4.4898,-4.491,-4.5117,-4.5476,-4.5494,-4.5494,-4.5494,-4.5494,-4.5494,-4.5494,-4.5258,-4.514,-4.5122,-4.4959,-4.4854,-4.4858,-4.4943,-4.5009,-4.4856,-4.3393,-4.2308,-4.2361,-4.2325,-4.2465,-4.2876,-4.3019,-4.3179,-4.3625,-4.3661,-4.35,-4.3215,-4.3179,-4.3054,-4.2605,-4.1877,-4.1181,-4.0681,-4.0251,-3.9966,-3.9912,-3.9877,-3.9877,-3.9823,-3.9325,-3.8826,-3.8415,-3.8308,-3.8112,-3.7755,-3.7595,-3.7595,-3.7631,-3.7631,-3.7631,-3.7685,-3.7739,-3.7828,-3.7916,-3.7966,-3.8018,-3.8122,-3.8272,-3.8366,-3.846,-3.859,-3.8673,-5.2344,-5.1853,-5.1617,-5.066,-4.9264,-4.8665,-4.8264,-4.8022,-4.8022,-4.7913,-4.7717,-4.7699,-4.7699,-4.7678,-4.7575,-4.7572,-4.7533,-4.7468,-4.7407,-4.7407,-4.7407,-4.7425,-4.7407,-4.7407,-4.7407,-4.7407,-4.7407,-4.7385,-4.7345,-4.732,-4.7298,-4.7298,-4.7249,-4.7205,-4.7223,-4.7116,-4.7088,-4.7066,-4.7048,-4.7043,-4.6913,-4.6427,-4.6123,-4.6088,-4.557,-4.5223,-4.5196,-4.5174,-4.5396,-4.5827,-4.5863,-4.607,-4.656,-4.6613,-4.6613,-4.6613,-4.6613,-4.6613,-4.6613,-4.6637,-4.6661,-4.6661,-4.6795,-4.6865,-4.6865,-4.6952,-4.6998,-4.6748,-4.4714,-4.3393,-4.3575,-4.3572,-4.3857,-4.4392,-4.4464,-4.4714,-4.5195,-4.5267,-4.516,-4.4959,-4.4514,-4.4389,-4.3893,-4.2894,-4.1966,-4.1466,-4.0967,-4.0556,-4.0556,-4.0628,-4.0628,-4.0574,-4.0574,-4.0128,-3.9324,-3.9111,-3.8772,-3.8504,-3.8326,-3.829,-3.8005,-3.7933,-3.772,-3.781,-3.7757,-3.7721,-3.781,-3.788,-3.8001,-3.8087,-3.8221,-3.8366,-3.8446,-3.8578,-3.8658,-5.2765,-5.2619,-5.193,-5.106,-5.0228,-5.0137,-4.9637,-4.8876,-4.8837,-4.846,-4.788,-4.7808,-4.7735,-4.7808,-4.7841,-4.7714,-4.7714,-4.7766,-4.782,-4.7802,-4.7747,-4.7714,-4.7696,-4.7696,-4.7678,-4.7636,-4.7744,-4.7666,-4.7544,-4.7403,-4.7298,-4.7302,-4.7298,-4.7298,-4.7298,-4.7298,-4.7232,-4.7178,-4.7196,-4.7133,-4.702,-4.6926,-4.6895,-4.6855,-4.6855,-4.6766,-4.6801,-4.6855,-4.6827,-4.6724,-4.6689,-4.6695,-4.6637,-4.6596,-4.6613,-4.6613,-4.6613,-4.6613,-4.6637,-4.6725,-4.676,-4.6765,-4.6799,-4.6926,-4.6743,-4.6748,-4.6766,-4.689,-4.5873,-4.557,-4.6141,-4.5909,-4.6177,-4.6355,-4.6587,-4.6569,-4.6676,-4.6391,-4.6462,-4.5731,-4.4999,-4.4143,-4.2751,-4.2361,-4.2343,-4.2218,-4.2126,-4.2055,-4.193,-4.2019,-4.2002,-4.1984,-4.1912,-4.1627,-4.0271,-3.9878,-3.9841,-3.9484,-3.9236,-3.945,-3.9075,-3.8683,-3.829,-3.7952,-3.7881,-3.781,-3.7775,-3.7828,-3.7968,-3.8088,-3.8206,-3.8338,-3.8433,-3.8478,-3.8559,-5.2915,-5.2842,-5.197,-5.1416,-5.1082,-5.0544,-5.0115,-4.9782,-4.9677,-4.951,-4.9275,-4.922,-4.922,-4.9238,-4.9238,-4.8949,-4.8568,-4.9003,-4.9238,-4.9166,-4.8731,-4.8456,-4.8402,-4.795,-4.7699,-4.7772,-4.8224,-4.8435,-4.8341,-4.7825,-4.7554,-4.7533,-4.745,-4.7428,-4.7407,-4.7341,-4.7298,-4.7272,-4.7272,-4.7227,-4.7133,-4.7151,-4.7088,-4.7002,-4.6998,-4.6998,-4.6998,-4.6998,-4.6975,-4.6934,-4.6911,-4.6911,-4.6865,-4.6865,-4.6865,-4.6865,-4.6865,-4.6865,-4.6847,-4.6888,-4.6679,-4.6216,-4.6208,-4.5998,-4.5588,-4.5481,-4.5481,-4.5427,-4.5285,-4.5231,-4.5334,-4.5463,-4.5481,-4.5481,-4.5481,-4.5534,-4.5463,-4.5481,-4.5356,-4.5071,-4.471,-4.4178,-4.3322,-4.3072,-4.2858,-4.2415,-4.2308,-4.2308,-4.2308,-4.2308,-4.2308,-4.2308,-4.229,-4.2129,-4.1683,-4.0949,-4.0556,-4.0073,-3.9805,-3.9788,-3.9556,-3.9502,-3.9236,-3.8629,-3.8362,-3.813,-3.8133,-3.7864,-3.7987,-3.8054,-3.8172,-3.8305,-3.8401,-3.8446,-3.8544,-5.3082,-5.295,-5.2392,-5.209,-5.1974,-5.1435,-5.0987,-5.0726,-5.0598,-5.0409,-5.021,-5.0112,-5.0112,-5.0166,-5.0343,-5.0216,-4.9727,-4.9981,-5.0112,-5.0075,-4.9528,-4.9311,-4.922,-4.8731,-4.8333,-4.8152,-4.8351,-4.8601,-4.8818,-4.8348,-4.8242,-4.8478,-4.8374,-4.8352,-4.8312,-4.8247,-4.8113,-4.7835,-4.7759,-4.7625,-4.7299,-4.7219,-4.7174,-4.7066,-4.702,-4.6998,-4.6998,-4.6998,-4.6998,-4.6998,-4.6998,-4.6873,-4.6623,-4.6373,-4.6212,-4.623,-4.6212,-4.623,-4.623,-4.623,-4.598,-4.5481,-4.541,-4.516,-4.4638,-4.4585,-4.4585,-4.4567,-4.4335,-4.4246,-4.4175,-4.4014,-4.4053,-4.4424,-4.4585,-4.4585,-4.4585,-4.4603,-4.4514,-4.43,-4.421,-4.3875,-4.3304,-4.3126,-4.2822,-4.2361,-4.2308,-4.2308,-4.2308,-4.2308,-4.2308,-4.2308,-4.2308,-4.2308,-4.2076,-4.1645,-4.1448,-4.1038,-4.077,-4.0592,-4.0305,-4.0307,-4.0039,-3.9414,-3.8968,-3.8684,-3.8401,-3.8062,-3.7988,-3.8039,-3.8122,-3.8274,-3.8354,-3.8415,-3.8512,-5.3185,-5.3185,-5.3185,-5.303,-5.2871,-5.2776,-5.2404,-5.1675,-5.1544,-5.1115,-5.0624,-5.0301,-5.0401,-5.0401,-5.1013,-5.1267,-5.1104,-5.0615,-5.0383,-5.0329,-5.0162,-5.009,-5.0112,-4.993,-4.9582,-4.9021,-4.8185,-4.8257,-4.8985,-4.8963,-4.9238,-4.9836,-4.9818,-4.9782,-4.9999,-4.9796,-4.9499,-4.8887,-4.8702,-4.8293,-4.7445,-4.7465,-4.7398,-4.7281,-4.7155,-4.7092,-4.6998,-4.6998,-4.6998,-4.6998,-4.6998,-4.6623,-4.6016,-4.5338,-4.4763,-4.4928,-4.4767,-4.4674,-4.4692,-4.4763,-4.4835,-4.4603,-4.4603,-4.4531,-4.4317,-4.4317,-4.4335,-4.421,-4.3818,-4.35,-4.3375,-4.2929,-4.3001,-4.4246,-4.4317,-4.43,-4.4389,-4.4496,-4.4282,-4.3658,-4.35,-4.3161,-4.2573,-4.2412,-4.2397,-4.2361,-4.2308,-4.2308,-4.2308,-4.2308,-4.2308,-4.2308,-4.2308,-4.2308,-4.2308,-4.229,-4.2254,-4.2183,-4.1986,-4.1772,-4.127,-4.1092,-4.0735,-4.0182,-3.9646,-3.9326,-3.8971,-3.8635,-3.8294,-3.8291,-3.8304,-3.8297,-3.8305,-3.8385,-3.8446,-5.3185,-5.3185,-5.3185,-5.3185,-5.3124,-5.3042,-5.2794,-5.255,-5.2353,-5.2118,-5.1877,-5.1787,-5.1756,-5.1774,-5.2027,-5.2118,-5.21,-5.1846,-5.1737,-5.1611,-5.1158,-5.0945,-5.0814,-5.0365,-5.0271,-5.0379,-4.9727,-4.9456,-4.9655,-4.9727,-4.9637,-4.942,-4.9872,-5.0112,-5.0148,-5.0093,-4.9886,-4.972,-4.9665,-4.9436,-4.9131,-4.9068,-4.8744,-4.8097,-4.7979,-4.7678,-4.7056,-4.6998,-4.6998,-4.6998,-4.6998,-4.6873,-4.6516,-4.5873,-4.5445,-4.5356,-4.487,-4.4585,-4.4585,-4.4549,-4.4335,-4.3961,-4.3836,-4.3554,-4.3108,-4.3072,-4.309,-4.3036,-4.2787,-4.2662,-4.2608,-4.2465,-4.2608,-4.2965,-4.3001,-4.3108,-4.3233,-4.3161,-4.2912,-4.2733,-4.268,-4.2537,-4.2379,-4.2308,-4.2308,-4.2308,-4.2308,-4.2308,-4.2308,-4.2308,-4.2308,-4.2308,-4.2308,-4.2308,-4.2308,-4.2308,-4.2308,-4.2308,-4.229,-4.2272,-4.1933,-4.168,-4.1324,-4.0931,-4.0396,-3.9951,-3.9598,-3.9226,-3.8888,-3.8599,-3.8613,-3.8517,-3.8347,-3.8354,-3.8417,-5.3185,-5.3185,-5.3185,-5.3185,-5.3185,-5.3103,-5.3082,-5.3042,-5.285,-5.2702,-5.2654,-5.254,-5.2526,-5.2498,-5.2498,-5.2498,-5.2498,-5.2498,-5.2498,-5.2426,-5.2027,-5.1756,-5.1629,-5.0923,-5.076,-5.1072,-5.0492,-5.0275,-5.0546,-5.0546,-5.0289,-4.9999,-5.0597,-5.0854,-5.0637,-5.0832,-5.0909,-5.0619,-5.0542,-5.0375,-5.0037,-4.992,-4.9613,-4.9023,-4.886,-4.8499,-4.7964,-4.7877,-4.7586,-4.7051,-4.673,-4.6551,-4.6498,-4.5802,-4.5374,-4.5267,-4.4906,-4.4496,-4.4246,-4.4121,-4.3857,-4.3233,-4.3054,-4.2876,-4.2433,-4.2308,-4.2308,-4.2308,-4.2325,-4.2308,-4.2343,-4.2608,-4.2715,-4.2751,-4.2501,-4.2448,-4.2644,-4.3001,-4.3019,-4.2965,-4.2804,-4.2608,-4.2376,-4.2308,-4.2308,-4.2308,-4.2308,-4.2308,-4.2308,-4.2308,-4.2308,-4.2308,-4.2308,-4.2308,-4.2308,-4.2308,-4.2308,-4.2308,-4.2308,-4.2308,-4.2147,-4.2111,-4.1877,-4.1538,-4.1056,-4.0722,-4.035,-3.9891,-3.9499,-3.9265,-3.912,-3.8917,-3.882,-3.8432,-3.8423,-5.3185,-5.3185,-5.3185,-5.3185,-5.3185,-5.3185,-5.3185,-5.3185,-5.3042,-5.2893,-5.2783,-5.2654,-5.2559,-5.2503,-5.2498,-5.2498,-5.2498,-5.2498,-5.2498,-5.2498,-5.2389,-5.2371,-5.2245,-5.1665,-5.143,-5.1339,-5.0741,-5.0691,-5.1144,-5.1307,-5.1344,-5.1176,-5.1792,-5.2027,-5.147,-5.2027,-5.1919,-5.1267,-5.1285,-5.1013,-5.0416,-5.0236,-5.006,-4.9965,-4.9742,-4.9494,-4.9268,-4.9079,-4.8508,-4.7283,-4.6712,-4.648,-4.6034,-4.5285,-4.5138,-4.5231,-4.4874,-4.4567,-4.3979,-4.4214,-4.3875,-4.3286,-4.3197,-4.2575,-4.3039,-4.3054,-4.2968,-4.2915,-4.2733,-4.2573,-4.2715,-4.3126,-4.3518,-4.3483,-4.3054,-4.3001,-4.35,-4.4107,-4.4032,-4.3658,-4.3497,-4.3322,-4.2733,-4.2644,-4.2608,-4.259,-4.2573,-4.2519,-4.2448,-4.2483,-4.2343,-4.2308,-4.2325,-4.2308,-4.2308,-4.2308,-4.2308,-4.2308,-4.2308,-4.2308,-4.2308,-4.2308,-4.2308,-4.1986,-4.1718,-4.1403,-4.1105,-4.0682,-4.0399,-4.0311,-4.0041,-3.9641,-3.933,-3.9072,-3.8957,-5.3185,-5.3185,-5.3185,-5.3185,-5.3185,-5.3185,-5.3185,-5.3185,-5.3042,-5.2915,-5.2806,-5.2654,-5.2581,-5.248,-5.2498,-5.2498,-5.2498,-5.2498,-5.2498,-5.2498,-5.2498,-5.2498,-5.248,-5.2299,-5.2154,-5.21,-5.1828,-5.1683,-5.1357,-5.1864,-5.181,-5.1321,-5.2063,-5.21,-5.1538,-5.2082,-5.2027,-5.1502,-5.1919,-5.2045,-5.1828,-5.1733,-5.1452,-5.0818,-5.062,-5.0192,-4.9596,-4.9389,-4.9168,-4.8782,-4.8532,-4.8366,-4.8152,-4.7551,-4.7087,-4.7033,-4.6641,-4.6284,-4.6088,-4.6016,-4.5909,-4.5802,-4.5427,-4.5749,-4.5771,-4.5178,-4.4928,-4.4767,-4.4392,-4.3964,-4.4018,-4.4196,-4.43,-4.4282,-4.4143,-4.4089,-4.4264,-4.4424,-4.4496,-4.4335,-4.4317,-4.4139,-4.3964,-4.3857,-4.3857,-4.3786,-4.35,-4.3161,-4.3108,-4.2787,-4.2697,-4.2433,-4.2343,-4.2325,-4.2308,-4.2308,-4.2308,-4.2308,-4.2308,-4.2308,-4.2308,-4.2308,-4.2308,-4.22,-4.2114,-4.185,-4.1805,-4.1579,-4.1461,-4.1286,-4.0763,-4.0275,-4.0256,-4.0109,-4.0087,-5.3185,-5.3185,-5.3185,-5.3185,-5.3185,-5.3185,-5.3185,-5.3185,-5.3143,-5.2999,-5.2872,-5.2743,-5.2608,-5.2554,-5.2503,-5.2498,-5.2498,-5.2498,-5.2498,-5.2498,-5.2498,-5.2498,-5.2498,-5.2498,-5.2498,-5.2498,-5.2498,-5.2226,-5.1937,-5.2299,-5.2027,-5.1574,-5.21,-5.2063,-5.1393,-5.2045,-5.21,-5.1543,-5.1796,-5.1991,-5.1991,-5.1991,-5.1986,-5.1623,-5.1542,-5.1131,-5.0588,-5.0407,-5.0066,-4.9489,-4.9275,-4.9293,-4.9257,-4.8925,-4.8657,-4.8639,-4.8211,-4.7854,-4.7556,-4.752,-4.7342,-4.7074,-4.6998,-4.6998,-4.6855,-4.6534,-4.6302,-4.6177,-4.557,-4.5195,-4.5124,-4.5124,-4.5285,-4.557,-4.5606,-4.5481,-4.516,-4.5463,-4.541,-4.5249,-4.5084,-4.4924,-4.4674,-4.4621,-4.4603,-4.4496,-4.4193,-4.4036,-4.3929,-4.3483,-4.3179,-4.3054,-4.2858,-4.2876,-4.2751,-4.268,-4.2522,-4.2468,-4.2308,-4.2308,-4.2308,-4.2308,-4.2308,-4.2308,-4.2366,-4.2371,-4.2275,-4.223,-4.224,-4.192,-4.1397,-4.1089,-4.1053,-4.0908,-4.0961,-5.3185,-5.3185,-5.3185,-5.3185,-5.3185,-5.3185,-5.3185,-5.3185,-5.3185,-5.3103,-5.2977,-5.285,-5.2698,-5.259,-5.2508,-5.2498,-5.2498,-5.2498,-5.2498,-5.2498,-5.2516,-5.2552,-5.2752,-5.2552,-5.2498,-5.2498,-5.2498,-5.2462,-5.2371,-5.2462,-5.2136,-5.181,-5.2226,-5.2009,-5.1593,-5.2082,-5.2027,-5.147,-5.138,-5.1448,-5.1375,-5.1303,-5.1357,-5.1733,-5.1907,-5.1754,-5.1555,-5.1479,-5.1019,-4.9638,-4.9543,-4.9685,-4.9632,-4.9603,-4.962,-4.9632,-4.9603,-4.9299,-4.8764,-4.8788,-4.8431,-4.7997,-4.7818,-4.7479,-4.78,-4.7783,-4.7622,-4.764,-4.6659,-4.6373,-4.6123,-4.6034,-4.6159,-4.6569,-4.6837,-4.6587,-4.6266,-4.6551,-4.6712,-4.607,-4.5927,-4.5552,-4.512,-4.4835,-4.4928,-4.5445,-4.5106,-4.4799,-4.4642,-4.4285,-4.4161,-4.4139,-4.3889,-4.3586,-4.3375,-4.3126,-4.2858,-4.2662,-4.2397,-4.2308,-4.2308,-4.2308,-4.2308,-4.2308,-4.2366,-4.2468,-4.2514,-4.256,-4.2658,-4.259,-4.2067,-4.1904,-4.1814,-4.1578,-4.1524,-5.3185,-5.3185,-5.3185,-5.3185,-5.3185,-5.3185,-5.3185,-5.3185,-5.3185,-5.3124,-5.2999,-5.2868,-5.2721,-5.259,-5.2531,-5.2498,-5.2498,-5.2498,-5.2498,-5.2498,-5.2498,-5.2896,-5.315,-5.2896,-5.257,-5.2589,-5.2534,-5.2534,-5.257,-5.2679,-5.2462,-5.2389,-5.2516,-5.2136,-5.1683,-5.2299,-5.2118,-5.147,-5.1362,-5.1393,-5.123,-5.0778,-5.0601,-5.0796,-5.1153,-5.1196,-5.1185,-5.1535,-5.1611,-5.1287,-5.103,-5.078,-5.0869,-5.0923,-5.0852,-5.0816,-5.0959,-5.0941,-5.0869,-5.0608,-5.0823,-5.0281,-5.0049,-5.0691,-5.0637,-4.9852,-4.9656,-4.9585,-4.9026,-4.8032,-4.7426,-4.6998,-4.6837,-4.6926,-4.698,-4.6926,-4.6801,-4.6873,-4.6855,-4.6748,-4.6676,-4.6659,-4.6462,-4.632,-4.6302,-4.6355,-4.6034,-4.5641,-4.5374,-4.5102,-4.5066,-4.5124,-4.4692,-4.4371,-4.421,-4.3911,-4.3536,-4.3161,-4.2787,-4.2537,-4.2519,-4.2308,-4.2308,-4.2346,-4.2405,-4.2488,-4.2589,-4.2688,-4.2768,-4.2753,-4.2737,-4.2556,-4.2339,-4.2176,-4.2068,-5.3185,-5.3185,-5.3185,-5.3185,-5.3185,-5.3185,-5.3185,-5.3185,-5.3185,-5.3164,-5.306,-5.289,-5.2743,-5.2694,-5.2554,-5.2498,-5.2498,-5.2498,-5.2498,-5.2589,-5.2824,-5.3295,-5.3657,-5.3711,-5.3639,-5.3603,-5.3657,-5.3639,-5.3621,-5.3585,-5.3711,-5.3621,-5.3603,-5.3566,-5.3059,-5.3349,-5.3222,-5.2643,-5.2408,-5.2263,-5.181,-5.1086,-5.0379,-5.0158,-5.0394,-5.041,-5.0318,-5.0528,-5.067,-5.0608,-5.0602,-5.078,-5.0976,-5.078,-5.062,-5.0584,-5.0584,-5.0584,-5.0548,-5.0584,-5.0459,-5.062,-5.0584,-5.0584,-5.053,-5.0156,-4.9971,-4.9757,-4.9174,-4.8425,-4.7734,-4.7319,-4.7015,-4.6998,-4.6998,-4.6998,-4.6998,-4.6998,-4.6998,-4.6998,-4.6944,-4.6944,-4.698,-4.6998,-4.6944,-4.6659,-4.6659,-4.632,-4.6355,-4.6141,-4.6034,-4.5927,-4.5481,-4.5178,-4.5066,-4.4745,-4.4282,-4.3875,-4.3429,-4.3179,-4.3036,-4.268,-4.2308,-4.2346,-4.2405,-4.2508,-4.2607,-4.2725,-4.2822,-4.2826,-4.2865,-4.2901,-4.2829,-4.2574,-4.2557,-5.3185,-5.3185,-5.3185,-5.3185,-5.3185,-5.3185,-5.3185,-5.3185,-5.3185,-5.3185,-5.3164,-5.2934,-5.2828,-5.2739,-5.2599,-5.2526,-5.248,-5.2498,-5.2498,-5.257,-5.3005,-5.3403,-5.3766,-5.4309,-5.4798,-5.5033,-5.478,-5.4744,-5.4744,-5.4888,-5.4599,-5.4798,-5.4834,-5.4581,-5.4762,-5.4834,-5.4418,-5.382,-5.353,-5.3259,-5.2643,-5.1882,-5.114,-5.052,-5.0615,-5.0303,-5.0057,-4.9941,-4.9746,-4.9359,-4.921,-4.9513,-4.9781,-4.9721,-4.9293,-4.9347,-4.9489,-4.9543,-4.9596,-4.9471,-4.9436,-4.9293,-4.9347,-4.9347,-4.9382,-4.9436,-4.9418,-4.9156,-4.8728,-4.8074,-4.7306,-4.7069,-4.7033,-4.6998,-4.6998,-4.6998,-4.6998,-4.6998,-4.6998,-4.6998,-4.6998,-4.6998,-4.6998,-4.6998,-4.6998,-4.6998,-4.6998,-4.6998,-4.6998,-4.6944,-4.6712,-4.6605,-4.6195,-4.6016,-4.5927,-4.5427,-4.4999,-4.4678,-4.4178,-4.3768,-4.3536,-4.3126,-4.2715,-4.2399,-4.2407,-4.2508,-4.2607,-4.2725,-4.2822,-4.2881,-4.2919,-4.2919,-4.2919,-4.2919,-4.2919,-5.3185,-5.3185,-5.3185,-5.3185,-5.3185,-5.3185,-5.3185,-5.3185,-5.3185,-5.3185,-5.3185,-5.302,-5.2912,-5.2783,-5.2654,-5.2559,-5.2503,-5.2498,-5.2498,-5.2516,-5.2842,-5.315,-5.3802,-5.4526,-5.5142,-5.5504,-5.5269,-5.4943,-5.5051,-5.4907,-5.5178,-5.4997,-5.5033,-5.5051,-5.5088,-5.4925,-5.507,-5.4816,-5.4381,-5.3929,-5.3512,-5.2733,-5.19,-5.123,-5.142,-5.1044,-5.0262,-5.0327,-5.03,-4.9496,-4.8799,-4.8556,-4.8675,-4.8978,-4.9097,-4.9079,-4.9043,-4.899,-4.9026,-4.9168,-4.924,-4.9293,-4.9133,-4.9168,-4.9186,-4.9186,-4.9008,-4.8925,-4.8532,-4.8074,-4.802,-4.7337,-4.7033,-4.6998,-4.6998,-4.6998,-4.6998,-4.6998,-4.6998,-4.6998,-4.6998,-4.6998,-4.6998,-4.6998,-4.6998,-4.6998,-4.6998,-4.6998,-4.6998,-4.6998,-4.6908,-4.689,-4.6873,-4.6819,-4.6783,-4.6141,-4.5624,-4.5463,-4.4999,-4.4303,-4.4,-4.3568,-4.3197,-4.2825,-4.253,-4.2468,-4.2606,-4.2704,-4.2803,-4.2861,-4.2881,-4.29,-4.2919,-4.2919,-4.2919,-5.3592,-5.3203,-5.3185,-5.3185,-5.3185,-5.3185,-5.3185,-5.3185,-5.3185,-5.3185,-5.3146,-5.3042,-5.2915,-5.2783,-5.2654,-5.2559,-5.2521,-5.2498,-5.2498,-5.2534,-5.2933,-5.3277,-5.382,-5.4544,-5.5015,-5.5251,-5.507,-5.5414,-5.6011,-5.612,-5.5993,-5.6102,-5.6084,-5.6084,-5.6084,-5.6156,-5.6066,-5.5921,-5.5649,-5.5233,-5.478,-5.3802,-5.2788,-5.2226,-5.1882,-5.1343,-5.0818,-5.0194,-4.9839,-4.9023,-4.8459,-4.802,-4.7895,-4.7907,-4.8157,-4.8193,-4.8193,-4.8139,-4.8139,-4.8122,-4.8068,-4.8086,-4.8139,-4.8104,-4.8122,-4.805,-4.8211,-4.8068,-4.7925,-4.7592,-4.752,-4.7212,-4.7033,-4.6998,-4.6998,-4.6998,-4.6998,-4.6998,-4.6998,-4.6998,-4.6998,-4.6998,-4.6998,-4.6998,-4.6998,-4.6998,-4.6998,-4.6998,-4.6998,-4.6998,-4.6998,-4.6998,-4.6998,-4.6998,-4.6998,-4.6641,-4.6212,-4.607,-4.5802,-4.5106,-4.4642,-4.4321,-4.3768,-4.3215,-4.2938,-4.2624,-4.2506,-4.2604,-4.2706,-4.2804,-4.2823,-4.2842,-4.2881,-4.2919,-4.29,-5.4032,-5.3424,-5.328,-5.3185,-5.3185,-5.3185,-5.3185,-5.3185,-5.3185,-5.3185,-5.3185,-5.3082,-5.2977,-5.2882,-5.2858,-5.2831,-5.277,-5.2915,-5.3114,-5.3241,-5.3657,-5.3965,-5.4164,-5.4653,-5.5233,-5.5377,-5.5595,-5.5903,-5.6446,-5.6645,-5.6935,-5.6971,-5.7116,-5.7188,-5.708,-5.6935,-5.7188,-5.7188,-5.717,-5.6826,-5.6066,-5.507,-5.4019,-5.3277,-5.257,-5.2216,-5.1749,-5.0984,-5.0124,-4.9344,-4.8726,-4.8222,-4.7627,-4.7319,-4.7252,-4.7235,-4.7105,-4.7015,-4.7051,-4.7127,-4.7247,-4.7265,-4.7069,-4.7033,-4.7069,-4.7247,-4.7122,-4.6998,-4.7033,-4.7069,-4.7122,-4.7015,-4.6998,-4.6998,-4.6998,-4.6998,-4.6998,-4.6998,-4.6998,-4.6998,-4.6998,-4.6998,-4.6998,-4.6998,-4.6998,-4.6998,-4.6998,-4.6998,-4.6998,-4.6998,-4.6998,-4.6998,-4.6998,-4.6998,-4.6998,-4.6998,-4.6712,-4.6623,-4.6373,-4.5891,-4.5517,-4.5195,-4.4535,-4.3875,-4.3161,-4.2867,-4.2693,-4.2521,-4.2625,-4.2706,-4.2745,-4.2765,-4.2842,-4.2862,-4.2862,-5.4344,-5.4197,-5.35,-5.3185,-5.3185,-5.3185,-5.3185,-5.3185,-5.3185,-5.3185,-5.3295,-5.3222,-5.3155,-5.3208,-5.3536,-5.3593,-5.3753,-5.411,-5.4327,-5.4345,-5.4544,-5.4635,-5.4798,-5.5522,-5.5577,-5.5631,-5.6283,-5.65,-5.641,-5.6265,-5.6536,-5.6971,-5.6989,-5.7152,-5.7007,-5.7007,-5.7188,-5.7188,-5.7188,-5.7116,-5.6971,-5.6681,-5.6138,-5.5631,-5.516,-5.4544,-5.3374,-5.2443,-5.1555,-5.0658,-4.9805,-4.9311,-4.8966,-4.8371,-4.8145,-4.7859,-4.7502,-4.6998,-4.6998,-4.6998,-4.6998,-4.6998,-4.6998,-4.6998,-4.6998,-4.6998,-4.6998,-4.6998,-4.6998,-4.6998,-4.6998,-4.6998,-4.6998,-4.6998,-4.6998,-4.6998,-4.6998,-4.6998,-4.6998,-4.6998,-4.6998,-4.6998,-4.6998,-4.6998,-4.6998,-4.6998,-4.6998,-4.6998,-4.6998,-4.6998,-4.6998,-4.6998,-4.6998,-4.6998,-4.6998,-4.6998,-4.6998,-4.6998,-4.6783,-4.6516,-4.6212,-4.5802,-4.5338,-4.466,-4.3911,-4.3144,-4.2851,-4.2698,-4.2618,-4.2586,-4.2627,-4.2706,-4.2783,-4.2822,-4.2842,-5.5225,-5.4381,-5.4032,-5.361,-5.3203,-5.3185,-5.3185,-5.3185,-5.3185,-5.3463,-5.383,-5.3904,-5.3997,-5.4186,-5.4459,-5.4446,-5.4478,-5.4816,-5.4907,-5.4979,-5.4979,-5.4943,-5.4943,-5.5214,-5.5359,-5.5631,-5.5721,-5.5903,-5.5866,-5.6029,-5.6247,-5.641,-5.6192,-5.6084,-5.6464,-5.6518,-5.6808,-5.7043,-5.7188,-5.7188,-5.7188,-5.717,-5.7025,-5.6663,-5.6247,-5.5631,-5.4973,-5.4134,-5.3219,-5.2306,-5.1353,-5.0569,-4.9948,-4.9299,-4.8817,-4.8746,-4.8104,-4.752,-4.711,-4.7033,-4.6998,-4.6998,-4.6998,-4.6998,-4.6998,-4.6998,-4.6998,-4.6998,-4.6998,-4.6998,-4.6998,-4.6998,-4.6998,-4.6998,-4.6998,-4.6998,-4.6998,-4.6998,-4.6998,-4.6998,-4.6998,-4.6998,-4.6998,-4.6998,-4.6998,-4.6998,-4.6998,-4.6998,-4.6998,-4.6998,-4.6998,-4.6998,-4.6998,-4.6998,-4.6998,-4.6998,-4.6998,-4.6998,-4.6998,-4.6766,-4.6676,-4.6337,-4.5909,-4.5606,-4.5088,-4.4271,-4.3349,-4.2762,-4.2588,-4.2557,-4.2546,-4.2625,-4.2686,-4.2783,-4.2823,-5.6271,-5.4987,-5.4785,-5.4344,-5.3812,-5.3812,-5.3849,-5.383,-5.3849,-5.4161,-5.4564,-5.4711,-5.4932,-5.5204,-5.5265,-5.531,-5.5245,-5.5359,-5.5468,-5.5486,-5.5486,-5.5558,-5.5685,-5.5631,-5.5631,-5.5468,-5.5866,-5.6047,-5.6192,-5.6138,-5.6011,-5.5975,-5.5758,-5.5486,-5.5613,-5.5758,-5.5975,-5.6355,-5.6446,-5.6573,-5.6772,-5.6844,-5.6989,-5.6917,-5.6663,-5.6301,-5.6174,-5.5449,-5.453,-5.3907,-5.3017,-5.2229,-5.1555,-5.0923,-5.0477,-5.0209,-4.9549,-4.8693,-4.805,-4.7604,-4.7122,-4.6998,-4.6998,-4.6998,-4.6998,-4.6998,-4.6998,-4.6998,-4.6998,-4.6998,-4.6998,-4.6998,-4.6998,-4.6998,-4.6998,-4.6998,-4.6998,-4.6998,-4.6998,-4.6998,-4.6998,-4.6998,-4.6998,-4.6998,-4.6998,-4.6998,-4.6998,-4.6998,-4.6998,-4.6998,-4.6998,-4.6998,-4.6998,-4.6998,-4.6998,-4.6998,-4.6998,-4.6998,-4.6998,-4.6962,-4.6855,-4.6801,-4.6551,-4.6284,-4.5998,-4.5356,-4.4436,-4.345,-4.2557,-4.2494,-4.2447,-4.2506,-4.2586,-4.2686,-4.2803,-5.7428,-5.6583,-5.5831,-5.5464,-5.5335,-5.5427,-5.5394,-5.5225,-5.5317,-5.5372,-5.55,-5.5556,-5.5599,-5.5647,-5.6075,-5.623,-5.611,-5.6749,-5.6797,-5.6844,-5.7025,-5.679,-5.6736,-5.6717,-5.6826,-5.6844,-5.6699,-5.679,-5.6899,-5.6373,-5.6156,-5.5939,-5.5504,-5.5341,-5.5251,-5.5196,-5.5178,-5.5414,-5.5414,-5.5649,-5.5939,-5.6156,-5.6391,-5.6917,-5.7062,-5.7098,-5.7025,-5.6095,-5.5428,-5.4968,-5.4126,-5.3562,-5.2865,-5.2243,-5.1851,-5.1547,-5.0637,-4.9924,-4.9478,-4.8139,-4.7163,-4.7015,-4.6998,-4.6998,-4.6998,-4.6998,-4.6998,-4.6998,-4.6998,-4.6998,-4.6998,-4.6998,-4.6998,-4.6998,-4.6998,-4.6998,-4.6998,-4.6998,-4.6998,-4.6998,-4.6998,-4.6998,-4.6998,-4.6998,-4.6998,-4.6998,-4.6998,-4.6998,-4.6998,-4.6998,-4.6998,-4.6998,-4.6998,-4.6998,-4.6998,-4.6998,-4.6998,-4.6998,-4.6998,-4.6998,-4.6962,-4.6926,-4.6873,-4.6712,-4.6355,-4.5945,-4.5481,-4.4482,-4.3536,-4.2682,-4.2328,-4.2427,-4.2526,-4.2625,-4.2743,-5.7813,-5.7501,-5.7189,-5.6492,-5.5614,-5.5614,-5.5614,-5.5614,-5.5614,-5.5904,-5.6381,-5.6822,-5.6992,-5.6973,-5.7032,-5.7145,-5.6994,-5.7181,-5.7245,-5.7213,-5.7188,-5.7188,-5.7188,-5.7188,-5.717,-5.7188,-5.7188,-5.7188,-5.7098,-5.6772,-5.6373,-5.5975,-5.5305,-5.4925,-5.4744,-5.478,-5.478,-5.4834,-5.4852,-5.5106,-5.5196,-5.5323,-5.5486,-5.5721,-5.5794,-5.5794,-5.5685,-5.5486,-5.5169,-5.4802,-5.4169,-5.3803,-5.3437,-5.2751,-5.244,-5.2304,-5.1244,-5.0762,-5.0352,-4.8871,-4.7609,-4.7033,-4.6998,-4.7051,-4.7176,-4.7051,-4.6998,-4.6998,-4.7087,-4.7212,-4.7033,-4.7015,-4.6998,-4.6998,-4.7069,-4.714,-4.7105,-4.7158,-4.7015,-4.7033,-4.7015,-4.6998,-4.6998,-4.6998,-4.6998,-4.6998,-4.6998,-4.6998,-4.6998,-4.6998,-4.6998,-4.6998,-4.6998,-4.6998,-4.6998,-4.6998,-4.6998,-4.6998,-4.6998,-4.6998,-4.6998,-4.698,-4.6926,-4.6837,-4.673,-4.6337,-4.5891,-4.5338,-4.4446,-4.3286,-4.2647,-4.2366,-4.2465,-4.2584,-4.2645,-5.7978,-5.7978,-5.7978,-5.7354,-5.6363,-5.633,-5.633,-5.6308,-5.6345,-5.6583,-5.7207,-5.7776,-5.795,-5.7862,-5.7774,-5.7684,-5.748,-5.7419,-5.7338,-5.7264,-5.7213,-5.7188,-5.7188,-5.7188,-5.7188,-5.7188,-5.7188,-5.7188,-5.7188,-5.7188,-5.688,-5.6156,-5.5124,-5.4852,-5.4291,-5.4291,-5.42,-5.4182,-5.42,-5.4399,-5.4454,-5.4544,-5.4798,-5.4925,-5.5051,-5.507,-5.5088,-5.5009,-5.4832,-5.4485,-5.4019,-5.3587,-5.3149,-5.2761,-5.244,-5.2101,-5.1708,-5.1191,-5.078,-4.9567,-4.8354,-4.7961,-4.7836,-4.78,-4.7676,-4.7676,-4.7925,-4.7836,-4.7765,-4.7658,-4.7622,-4.7854,-4.7925,-4.8086,-4.805,-4.8068,-4.7676,-4.7574,-4.7265,-4.7069,-4.7033,-4.7015,-4.7015,-4.7015,-4.7015,-4.7015,-4.6998,-4.6998,-4.6998,-4.6998,-4.6998,-4.6998,-4.6998,-4.6998,-4.6998,-4.6998,-4.6998,-4.6998,-4.6998,-4.6998,-4.6998,-4.6998,-4.6998,-4.6926,-4.6819,-4.6659,-4.6302,-4.5802,-4.4821,-4.3697,-4.3075,-4.2435,-4.2387,-4.2486,-4.2564,-5.7978,-5.7978,-5.7978,-5.7941,-5.7758,-5.7905,-5.7831,-5.7666,-5.7721,-5.7776,-5.7831,-5.7978,-5.7978,-5.7932,-5.7862,-5.7792,-5.7715,-5.7528,-5.7412,-5.7363,-5.7264,-5.7213,-5.7243,-5.7261,-5.7442,-5.7243,-5.7478,-5.7623,-5.7424,-5.7623,-5.7406,-5.7134,-5.6446,-5.5287,-5.3892,-5.2987,-5.2643,-5.2625,-5.2788,-5.3186,-5.3585,-5.3729,-5.4055,-5.4363,-5.4472,-5.4418,-5.4418,-5.4394,-5.4194,-5.3932,-5.3857,-5.3605,-5.3375,-5.3385,-5.3306,-5.3332,-5.2832,-5.2626,-5.2572,-5.0495,-4.9436,-4.9008,-4.8817,-4.8996,-4.9115,-4.915,-4.8972,-4.8764,-4.8865,-4.899,-4.9097,-4.9097,-4.8972,-4.8901,-4.8853,-4.8746,-4.8336,-4.8139,-4.7907,-4.78,-4.7372,-4.7051,-4.7051,-4.7051,-4.7051,-4.7033,-4.6998,-4.6998,-4.6998,-4.6998,-4.6998,-4.6998,-4.6998,-4.6998,-4.6998,-4.6998,-4.6998,-4.6998,-4.6998,-4.6998,-4.6998,-4.6998,-4.6998,-4.6998,-4.6926,-4.6819,-4.6587,-4.6302,-4.5302,-4.4321,-4.3144,-4.2522,-4.2435,-4.2405,-4.2465,-5.7978,-5.7978,-5.7978,-5.7978,-5.7978,-5.7978,-5.7978,-5.7978,-5.7978,-5.7978,-5.7978,-5.7978,-5.7978,-5.7955,-5.795,-5.7862,-5.7792,-5.7745,-5.7607,-5.7388,-5.7338,-5.7264,-5.734,-5.7695,-5.7949,-5.8148,-5.8383,-5.8673,-5.8854,-5.8619,-5.8728,-5.8601,-5.775,-5.6446,-5.487,-5.3766,-5.3313,-5.3222,-5.2915,-5.2661,-5.2915,-5.3005,-5.3114,-5.3458,-5.344,-5.3458,-5.3494,-5.3459,-5.3297,-5.3073,-5.3041,-5.2849,-5.2679,-5.2636,-5.2582,-5.2547,-5.2136,-5.2101,-5.2072,-5.1066,-5.0388,-4.9917,-4.981,-4.987,-4.9454,-4.9888,-4.9739,-4.9561,-4.9632,-4.9578,-4.924,-4.9257,-4.9204,-4.9168,-4.9133,-4.9115,-4.8942,-4.8919,-4.8812,-4.8817,-4.855,-4.8068,-4.789,-4.7765,-4.7693,-4.7372,-4.7319,-4.7069,-4.6998,-4.6998,-4.6998,-4.6998,-4.6998,-4.6998,-4.6998,-4.6998,-4.6998,-4.6998,-4.6998,-4.6998,-4.6998,-4.6998,-4.6998,-4.6998,-4.6998,-4.6962,-4.6748,-4.6444,-4.5873,-4.4963,-4.3982,-4.3233,-4.3147,-4.281,-4.2387,-5.7978,-5.7978,-5.7978,-5.7978,-5.7978,-5.7978,-5.7978,-5.7978,-5.7978,-5.7978,-5.7978,-5.7978,-5.7978,-5.7978,-5.7997,-5.7992,-5.7862,-5.7792,-5.7745,-5.751,-5.7431,-5.7556,-5.7844,-5.8174,-5.8492,-5.8854,-5.9253,-5.9542,-5.9452,-5.9561,-5.9506,-5.9325,-5.9072,-5.8076,-5.6663,-5.5812,-5.5015,-5.4888,-5.4508,-5.382,-5.3603,-5.3241,-5.2842,-5.2697,-5.2589,-5.257,-5.2511,-5.24,-5.224,-5.2102,-5.198,-5.1851,-5.1758,-5.169,-5.169,-5.169,-5.169,-5.1708,-5.169,-5.169,-5.0994,-5.0441,-5.0709,-5.078,-5.062,-5.1191,-5.1119,-5.0869,-5.0477,-5.0334,-5.0227,-5.0149,-5.006,-5.006,-5.0049,-5.0066,-4.9745,-4.9703,-4.9525,-4.9567,-4.9382,-4.9014,-4.8728,-4.8586,-4.8461,-4.8032,-4.764,-4.7372,-4.711,-4.7015,-4.6998,-4.6998,-4.6998,-4.6998,-4.6998,-4.6998,-4.6998,-4.6998,-4.6998,-4.6998,-4.6998,-4.6998,-4.6998,-4.6998,-4.6998,-4.6962,-4.689,-4.6587,-4.6248,-4.582,-4.516,-4.4517,-4.3996,-4.3375,-4.2792,-5.7978,-5.7978,-5.7978,-5.7978,-5.7978,-5.7978,-5.7978,-5.7978,-5.7978,-5.7978,-5.7978,-5.7978,-5.7978,-5.7978,-5.7978,-5.7978,-5.7973,-5.7862,-5.7792,-5.7794,-5.7759,-5.8044,-5.8355,-5.8678,-5.9188,-5.9524,-5.9905,-6.0231,-5.9814,-6.0086,-6.0068,-5.9905,-5.9959,-5.9561,-5.8945,-5.8275,-5.7351,-5.6772,-5.5993,-5.5377,-5.4979,-5.4399,-5.3892,-5.3512,-5.3222,-5.3023,-5.285,-5.2575,-5.233,-5.2156,-5.1956,-5.1815,-5.174,-5.169,-5.169,-5.169,-5.169,-5.169,-5.169,-5.169,-5.1672,-5.1244,-5.1458,-5.2065,-5.2279,-5.2225,-5.219,-5.2233,-5.2065,-5.1976,-5.1886,-5.1708,-5.1547,-5.1494,-5.1422,-5.1137,-5.0673,-5.0423,-5.0174,-5.0031,-4.981,-4.9561,-4.9418,-4.9317,-4.921,-4.8746,-4.83,-4.7854,-4.7533,-4.7056,-4.7038,-4.6998,-4.6998,-4.6998,-4.6998,-4.6998,-4.6998,-4.6998,-4.6998,-4.6998,-4.6998,-4.6998,-4.6998,-4.6998,-4.6998,-4.6962,-4.6926,-4.6926,-4.6873,-4.6427,-4.5927,-4.5445,-4.4817,-4.405,-4.3504,-5.7978,-5.7978,-5.7978,-5.7978,-5.7978,-5.7978,-5.7978,-5.7978,-5.7978,-5.7978,-5.7978,-5.7978,-5.7978,-5.7978,-5.7978,-5.7978,-5.7978,-5.7932,-5.7881,-5.7933,-5.8245,-5.8482,-5.8965,-5.9608,-6.0191,-6.0583,-6.0901,-6.1118,-6.1263,-6.1263,-6.12,-6.1326,-6.1082,-6.1154,-6.1009,-6.0783,-5.9542,-5.8402,-5.7496,-5.6971,-5.6627,-5.6174,-5.5504,-5.4997,-5.4762,-5.4381,-5.3628,-5.3225,-5.2888,-5.2221,-5.1918,-5.1733,-5.1715,-5.169,-5.169,-5.169,-5.169,-5.169,-5.169,-5.169,-5.169,-5.169,-5.169,-5.1744,-5.2101,-5.2511,-5.284,-5.2893,-5.2893,-5.2626,-5.244,-5.2332,-5.219,-5.2065,-5.1904,-5.153,-5.1137,-5.1066,-5.0834,-5.0798,-5.0584,-5.0405,-5.0263,-5.0131,-4.9995,-4.9495,-4.9032,-4.8586,-4.805,-4.7592,-4.7074,-4.7015,-4.6998,-4.6998,-4.6998,-4.6998,-4.6998,-4.6998,-4.6998,-4.6998,-4.6998,-4.6998,-4.6998,-4.6998,-4.6998,-4.6998,-4.698,-4.6998,-4.6998,-4.6998,-4.6587,-4.6141,-4.5624,-4.4874,-4.4196,-5.7927,-5.7927,-5.7973,-5.7978,-5.7978,-5.7978,-5.7978,-5.7978,-5.7978,-5.7978,-5.7978,-5.7978,-5.7978,-5.7978,-5.7978,-5.7978,-5.7978,-5.8015,-5.8097,-5.86,-5.884,-5.9359,-5.9928,-6.0474,-6.0988,-6.1398,-6.167,-6.1824,-6.1951,-6.2005,-6.1969,-6.1887,-6.2023,-6.2005,-6.1897,-6.1643,-6.1145,-6.0086,-5.918,-5.8565,-5.8202,-5.7858,-5.7188,-5.6717,-5.6536,-5.5733,-5.4719,-5.4323,-5.363,-5.2711,-5.2273,-5.2001,-5.1851,-5.169,-5.169,-5.169,-5.169,-5.169,-5.169,-5.169,-5.169,-5.169,-5.169,-5.1708,-5.1993,-5.2429,-5.2715,-5.2893,-5.2911,-5.2876,-5.2779,-5.2689,-5.2511,-5.2332,-5.2029,-5.1726,-5.1672,-5.1654,-5.1637,-5.1619,-5.1494,-5.1298,-5.1155,-5.103,-5.0869,-5.053,-5.012,-4.9674,-4.8978,-4.8288,-4.7556,-4.7051,-4.7015,-4.6998,-4.6998,-4.6998,-4.6998,-4.6998,-4.6998,-4.6998,-4.6998,-4.6998,-4.6998,-4.6998,-4.6998,-4.6998,-4.6998,-4.6998,-4.6998,-4.6998,-4.6998,-4.6659,-4.6195,-4.5659,-4.5053,-5.7768,-5.7792,-5.7909,-5.7997,-5.7978,-5.7978,-5.7978,-5.7978,-5.7978,-5.7978,-5.7978,-5.7978,-5.7978,-5.7978,-5.7978,-5.7978,-5.8088,-5.818,-5.8565,-5.9184,-5.9291,-5.978,-6.0473,-6.1076,-6.101,-6.1595,-6.1787,-6.1362,-6.1625,-6.1534,-6.1426,-6.1824,-6.1616,-6.1453,-6.1408,-6.1661,-6.1344,-6.1037,-6.0665,-6.0303,-5.9742,-5.909,-5.8311,-5.775,-5.7489,-5.712,-5.6252,-5.5577,-5.4963,-5.3823,-5.3006,-5.2643,-5.2154,-5.1726,-5.1708,-5.169,-5.169,-5.169,-5.169,-5.169,-5.169,-5.169,-5.169,-5.169,-5.194,-5.2197,-5.2465,-5.284,-5.2911,-5.2993,-5.2975,-5.2725,-5.2493,-5.2297,-5.2029,-5.1797,-5.169,-5.169,-5.169,-5.169,-5.1654,-5.153,-5.1512,-5.1333,-5.1298,-5.128,-5.1083,-5.0602,-4.9959,-4.9103,-4.8323,-4.7479,-4.7354,-4.7319,-4.6998,-4.6998,-4.6998,-4.6998,-4.6998,-4.6998,-4.6998,-4.6998,-4.6998,-4.6998,-4.6998,-4.6998,-4.6998,-4.6998,-4.6998,-4.6998,-4.6998,-4.6998,-4.6659,-4.6212,-4.5766,-5.7649,-5.7673,-5.781,-5.7904,-5.7997,-5.7978,-5.7978,-5.7978,-5.7978,-5.7978,-5.7978,-5.7978,-5.7978,-5.7978,-5.7997,-5.8015,-5.8143,-5.8584,-5.8964,-5.9404,-5.9687,-6.0005,-6.0469,-6.0546,-6.0511,-6.0321,-6.0326,-6.0473,-6.0448,-6.0375,-6.0249,-6.0249,-6.0339,-6.0448,-6.0466,-6.081,-6.1073,-6.1073,-6.1236,-6.1236,-6.1045,-6.1118,-6.0792,-6.0158,-5.9733,-5.8939,-5.7977,-5.6891,-5.6041,-5.4988,-5.4124,-5.3429,-5.2679,-5.2065,-5.1744,-5.169,-5.169,-5.169,-5.169,-5.169,-5.169,-5.169,-5.169,-5.169,-5.1779,-5.1922,-5.219,-5.2626,-5.2893,-5.301,-5.301,-5.2689,-5.2447,-5.2225,-5.2029,-5.1869,-5.169,-5.169,-5.169,-5.169,-5.169,-5.169,-5.169,-5.169,-5.169,-5.1654,-5.1583,-5.1244,-5.0727,-4.9995,-4.9281,-4.8532,-4.8074,-4.7859,-4.739,-4.7105,-4.7176,-4.7051,-4.6998,-4.6998,-4.6998,-4.6998,-4.6998,-4.6998,-4.6998,-4.6998,-4.6998,-4.6998,-4.6998,-4.6998,-4.6998,-4.6998,-4.6998,-4.6641,-4.6266,-5.751,-5.7528,-5.7649,-5.7792,-5.7904,-5.7927,-5.795,-5.7978,-5.7978,-5.7978,-5.7978,-5.7978,-5.7978,-5.7978,-5.7997,-5.829,-5.8492,-5.8969,-5.9428,-5.9832,-5.9992,-6.0243,-6.0304,-6.014,-6.0206,-6.0001,-5.9848,-5.9818,-5.9488,-5.9651,-5.9705,-5.9542,-5.9542,-5.9542,-5.9615,-6.0068,-6.024,-6.0285,-6.081,-6.1154,-6.1498,-6.1634,-6.1824,-6.1408,-6.1091,-6.0377,-5.9637,-5.8529,-5.7658,-5.643,-5.5232,-5.3929,-5.3125,-5.2493,-5.2065,-5.1815,-5.169,-5.169,-5.169,-5.169,-5.169,-5.169,-5.169,-5.169,-5.169,-5.1815,-5.1833,-5.219,-5.2208,-5.2315,-5.235,-5.2118,-5.2065,-5.194,-5.1851,-5.1762,-5.169,-5.169,-5.169,-5.169,-5.169,-5.169,-5.169,-5.169,-5.169,-5.169,-5.1672,-5.1672,-5.1208,-5.0869,-5.0156,-4.9603,-4.9121,-4.8448,-4.7877,-4.7609,-4.7484,-4.7306,-4.7176,-4.7087,-4.7122,-4.7033,-4.6998,-4.7069,-4.7069,-4.6998,-4.6998,-4.6998,-4.6998,-4.6998,-4.6998,-4.6998,-4.6998,-4.6998,-4.6694,-5.7115,-5.7249,-5.7474,-5.7649,-5.7768,-5.7792,-5.7862,-5.7973,-5.7978,-5.7978,-5.7978,-5.7978,-5.7978,-5.7978,-5.8015,-5.8602,-5.8982,-5.9111,-5.9648,-6.0089,-6.0144,-6.0065,-5.9968,-5.992,-5.964,-5.9438,-5.9306,-5.9165,-5.8999,-5.8999,-5.8999,-5.9271,-5.9307,-5.9271,-5.9325,-5.9416,-5.9452,-5.9524,-5.9832,-6.0122,-6.072,-6.1435,-6.1688,-6.1897,-6.1942,-6.1461,-6.0844,-6.0128,-5.9307,-5.8093,-5.649,-5.5339,-5.4135,-5.3492,-5.2779,-5.2422,-5.1833,-5.1779,-5.169,-5.169,-5.169,-5.169,-5.1708,-5.1744,-5.1762,-5.1762,-5.1779,-5.1754,-5.1772,-5.1754,-5.1747,-5.1747,-5.1729,-5.1736,-5.1701,-5.169,-5.169,-5.169,-5.169,-5.169,-5.169,-5.169,-5.169,-5.169,-5.169,-5.169,-5.169,-5.169,-5.1619,-5.1387,-5.0941,-5.0566,-5.0227,-4.9442,-4.8556,-4.8264,-4.8139,-4.8015,-4.7925,-4.7551,-4.7319,-4.7461,-4.7444,-4.7265,-4.7229,-4.7105,-4.7015,-4.6998,-4.6998,-4.7015,-4.6998,-4.6998,-4.6998,-4.6998,-4.6998,-5.5783,-5.6479,-5.7121,-5.751,-5.7631,-5.7745,-5.7834,-5.7857,-5.795,-5.7978,-5.7978,-5.7978,-5.7978,-5.7978,-5.7978,-5.8437,-5.9111,-5.9258,-5.9735,-6.0272,-5.9813,-5.9551,-5.9313,-5.9051,-5.8419,-5.8276,-5.8214,-5.7883,-5.8137,-5.7949,-5.7713,-5.7822,-5.7786,-5.7786,-5.7858,-5.813,-5.8637,-5.8746,-5.9126,-5.9524,-5.9868,-6.0593,-6.1362,-6.1716,-6.1978,-6.1722,-6.133,-6.0724,-6.0131,-5.9227,-5.8024,-5.7007,-5.5972,-5.4866,-5.4081,-5.3528,-5.2886,-5.2368,-5.235,-5.2279,-5.2332,-5.2065,-5.2083,-5.2011,-5.2011,-5.1993,-5.1943,-5.1841,-5.1805,-5.1637,-5.162,-5.1489,-5.1446,-5.1574,-5.1607,-5.1658,-5.1683,-5.169,-5.169,-5.169,-5.169,-5.169,-5.169,-5.169,-5.169,-5.169,-5.169,-5.169,-5.169,-5.1654,-5.1601,-5.1351,-5.1066,-5.0334,-4.9388,-4.9156,-4.9014,-4.8889,-4.871,-4.8425,-4.8229,-4.8139,-4.8091,-4.7943,-4.7515,-4.7252,-4.714,-4.7247,-4.7074,-4.7074,-4.7015,-4.6998,-4.6998,-4.6998,-4.6998]},{"header":{"parameterUnit":"m.s-1","parameterCategory":1,"la1":31.0,"la2":29.5877,"lo1":-88.7671,"lo2":-86.6584,"dy":0.0162,"dx":0.0185,"nx":115,"ny":88,"refTime":"2023-03-22T06:00:00:Z","depth":0,"parameterNumber":3,"parameterNumberName":"V-component_of_WINDS"},"data":[0.0,0.0,0.0,0.0,0.0,0.0,0.0,0.0,0.0,0.0,0.0,0.0,0.0,0.0,0.0,0.0,0.0,0.0,0.0,0.0,0.0,0.0,0.0,0.0,0.0,0.0,0.0,0.0,0.0,0.0,0.0,0.0,0.0,0.0,0.0,0.0,0.0,0.0,0.0,0.0,0.0,0.0,0.0,0.0,0.0,0.0,0.0,0.0,0.0,0.0,0.0,0.0,0.0,0.0,0.0,0.0,0.0,0.0,0.0,0.0,0.0,0.0,0.0,0.0,0.0,0.0,0.0,0.0,0.0,0.0,0.0,0.0,0.0,0.0,0.0,0.0,0.0,0.0,0.0,0.0,0.0,0.0,0.0,0.0,0.0,0.0,0.0,0.0,0.0,0.0,0.0,0.0,0.0,0.0,0.0,0.0,0.0,0.0,0.0,0.0,0.0,0.0,0.0,0.0,0.0,0.0,0.0,0.0,0.0,0.0,0.0,0.0,0.0,0.0,0.0,0.0,0.0,0.0,0.0,0.0,0.0,0.0,0.0,0.0,0.0,0.0,0.0,0.0,0.0,0.0,0.0,0.0,0.0,0.0,0.0,0.0,0.0,0.0,0.0,0.0,0.0,0.0,0.0,0.0,0.0,0.0,0.0,0.0,0.0,0.0,0.0,0.0,0.0,0.0,0.0,0.0,0.0,0.0,0.0,0.0,0.0,0.0,0.0,0.0,0.0,0.0,0.0,0.0,0.0,0.0,0.0,0.0,0.0,0.0,0.0,0.0,0.0,0.0,0.0,0.0,0.0,0.0,0.0,0.0,0.0,0.0,0.0,0.0,0.0,0.0,0.0,0.0,0.0,0.0,0.0,0.0,0.0,0.0,0.0,0.0,0.0,0.0,0.0,0.0,0.0,0.0,0.0,0.0,0.0,0.0,0.0,0.0,0.0,0.0,0.0,0.0,0.0,0.0,0.0,0.0,0.0,0.0,0.0,0.0,0.0,0.0,0.0,0.0,0.0,0.0,0.0,0.0,0.0,0.0,0.0,0.0,0.0,0.0,0.0,0.0,0.0,0.0,0.0,0.0,0.0,0.0,0.0,0.0,0.0,0.0,0.0,0.0,0.0,0.0,0.0,0.0,0.0,0.0,0.0,0.0,0.0,0.0,0.0,0.0,0.0,0.0,0.0,0.0,0.0,0.0,0.0,0.0,0.0,0.0,0.0,0.0,0.0,0.0,0.0,0.0,0.0,0.0,0.0,0.0,0.0,0.0,0.0,0.0,0.0,0.0,0.0,0.0,0.0,0.0,0.0,0.0,0.0,0.0,0.0,0.0,0.0,0.0,0.0,0.0,0.0,0.0,0.0,0.0,0.0,0.0,0.0,0.0,0.0,0.0,0.0,0.0,0.0,0.0,0.0,0.0,0.0,0.0,0.0,0.0,0.0,0.0,0.0,0.0,0.0,0.0,0.0,0.0,0.0,0.0,0.0,0.0,0.0,0.0,0.0,0.0,0.0,0.0,0.0,0.0,0.0,0.0,0.0,0.0,0.0,0.0,0.0,0.0,0.0,0.0,0.0,0.0,0.0,0.0,0.0,0.0,0.0,0.0,0.0,0.0,0.0,0.0,0.0,0.0,0.0,0.0,0.0,0.0,0.0,0.0,0.0,0.0,0.0,0.0,0.0,0.0,0.0,0.0,0.0,0.0,0.0,0.0,0.0,0.0,0.0,0.0,0.0,0.0,0.0,0.0,0.0,0.0,0.0,0.0,0.0,0.0,0.0,0.0,0.0,0.0,0.0,0.0,0.0,0.0,0.0,0.0,0.0,0.0,0.0,0.0,0.0,0.0,0.0,0.0,0.0,0.0,0.0,0.0,0.0,0.0,0.0,0.0,0.0,0.0,0.0,0.0,0.0,0.0,0.0,0.0,0.0,0.0,0.0,0.0,0.0,0.0,0.0,0.0,0.0,0.0,0.0,0.0,0.0,0.0,0.0,0.0,0.0,0.0,0.0,0.0,0.0,0.0,0.0,0.0,0.0,0.0,0.0,0.0,0.0,0.0,0.0,0.0,0.0,0.0,0.0,0.0,0.0,0.0,0.0,0.0,0.0,0.0,0.0,0.0,0.0,0.0,0.0,0.0,0.0,0.0,0.0,0.0,0.0,0.0,0.0,0.0,0.0,0.0,0.0,0.0,0.0,0.0,0.0,0.0,0.0,0.0,0.0,0.0,0.0,0.0,0.0,0.0,0.0,0.0,0.0,0.0,0.0,0.0,0.0,0.0,0.0,0.0,0.0,0.0,0.0,0.0,0.0,0.0,0.0,0.0,0.0,0.0,0.0,0.0,0.0,0.0,0.0,0.0,0.0,0.0,0.0,0.0,0.0,0.0,0.0,0.0,0.0,0.0,0.0,0.0,0.0,0.0,0.0,0.0,0.0,0.0,0.0,0.0,0.0,0.0,0.0,0.0,0.0,0.0,0.0,0.0,0.0,0.0,0.0,0.0,0.0,0.0,0.0,0.0,0.0,0.0,0.0,0.0,0.0,0.0,0.0,0.0,0.0,0.0,0.0,0.0,0.0,0.0,0.0,0.0,0.0,0.0,0.0,0.0,0.0,0.0,0.0,0.0,0.0,0.0,0.0,0.0,0.0,0.0,0.0,0.0,0.0,0.0,0.0,0.0,0.0,0.0,0.0,0.0,0.0,0.0,0.0,0.0,0.0,0.0,0.0,0.0,0.0,0.0,0.0,0.0,0.0,0.0,0.0,0.0,0.0,0.0,0.0,0.0,0.0,0.0,0.0,0.0,0.0,0.0,0.0,0.0,0.0,0.0,0.0,0.0,0.0,0.0,0.0,0.0,0.0,0.0,0.0,0.0,0.0,0.0,0.0,0.0,0.0,0.0,0.0,0.0,0.0,0.0,0.0,0.0,0.0,0.0,0.0,0.0,0.0,0.0,0.0,0.0,0.0,0.0,0.0,0.0,0.0,0.0,0.0,0.0,0.0,0.0,0.0,0.0,0.0,0.0,0.0,0.0,0.0,0.0,0.0,0.0,0.0,0.0,0.0,0.0,0.0,0.0,0.0,0.0,0.0,0.0,0.0,0.0,0.0,0.0,0.0,0.0,0.0,0.0,0.0,0.0,0.0,0.0,0.0,0.0,0.0,0.0,0.0,0.0,0.0,0.0,0.0,0.0,0.0,0.0,0.0,0.0,0.0,0.0,0.0,0.0,0.0,0.0,0.0,0.0,0.0,0.0,0.0,0.0,0.0,0.0,0.0,0.0,0.0,0.0,0.0,0.0,0.0,0.0,0.0,0.0,0.0,0.0,0.0,0.0,0.0,0.0,0.0,0.0,0.0,0.0,0.0,0.0,0.0,0.0,0.0,0.0,0.0,0.0,0.0,0.0,0.0,0.0,0.0,0.0,0.0,0.0,0.0,0.0,0.0,0.0,0.0,0.0,0.0,0.0,0.0,0.0,0.0,0.0,0.0,0.0,0.0,0.0,0.0,0.0,0.0,0.0,0.0,0.0,0.0,0.0,0.0,0.0,0.0,0.0,0.0,0.0,0.0,0.0,0.0,0.0,0.0,0.0,0.0,0.0,0.0,0.0,0.0,0.0,0.0,0.0,0.0,0.0,0.0,0.0,0.0,0.0,0.0,0.0,0.0,0.0,0.0,0.0,0.0,0.0,0.0,0.0,0.0,0.0,0.0,0.0,0.0,0.0,0.0,0.0,0.0,0.0,0.0,0.0,0.0,0.0,0.0,0.0,0.0,0.0,0.0,0.0,0.0,0.0,0.0,0.0,0.0,0.0,0.0,0.0,0.0,0.0,0.0,0.0,0.0,0.0,0.0,0.0,0.0,0.0,0.0,0.0,0.0,0.0,0.0,0.0,0.0,0.0,0.0,0.0,0.0,0.0,0.0,0.0,0.0,0.0,0.0,0.0,0.0,0.0,0.0,0.0,0.0,0.0,0.0,0.0,0.0,0.0,0.0,0.0,0.0,0.0,0.0,0.0,0.0,0.0,0.0,0.0,0.0,0.0,0.0,0.0,0.0,0.0,0.0,0.0,0.0,0.0,0.0,0.0,0.0,0.0,0.0,0.0,0.0,0.0,0.0,0.0,0.0,0.0,0.0,0.0,0.0,0.0,0.0,0.0,0.0,0.0,0.0,0.0,0.0,0.0,0.0,0.0,0.0,0.0,0.0,0.0,0.0,0.0,0.0,0.0,0.0,0.0,0.0,0.0,0.0,0.0,0.0,0.0,0.0,0.0,0.0,0.0,0.5759,0.0,0.0,0.0,0.0,0.0,0.0,0.0,0.0,0.0,0.0,0.0,0.0,0.0,0.0,0.0,0.0,0.0,0.0,0.0,0.0,0.0,0.0,0.0,0.0,0.0,0.0,0.0,0.0,0.0,0.0,0.0,0.0,0.0,0.0,0.0,0.0,0.0,0.0,0.0,0.0,0.0,0.0,0.0,0.0,0.0,0.0,0.0,0.0,0.0,0.0,0.0,0.0,0.0,0.0,0.0,0.0,0.0,0.0,0.0,0.0,0.0,0.0,0.0,0.0,0.0,0.0,0.0,0.0,0.0,0.0,0.0,0.0,0.0,0.0,0.0,0.0,0.0,0.0,0.0,0.0,0.0,0.0,0.0,0.0,0.0,0.0,0.0,0.0,0.0,0.0,0.0,0.0,0.0,0.0,0.0,0.0,0.0,0.0,0.0,0.0,0.0,0.0,0.0,0.0,0.0,0.0,0.0,0.0,0.0,0.0,0.6225,0.6065,0.5988,0.5906,0.5876,0.0,0.0,0.0,0.0,0.0,0.0,0.0,0.0,0.0,0.0,0.0,0.0,0.0,0.0,0.0,0.0,0.0,0.0,0.0,0.0,0.0,0.0,0.0,0.0,0.0,0.0,0.0,0.0,0.0,0.0,0.0,0.0,0.0,0.0,0.0,0.0,0.0,0.0,0.0,0.0,0.0,0.0,0.0,0.0,0.0,0.0,0.0,0.0,0.0,0.0,0.0,0.0,0.0,0.0,0.0,0.0,0.0,0.0,0.0,0.0,0.0,0.0,0.0,0.0,0.0,0.0,0.0,0.0,0.0,0.0,0.0,0.0,0.0,0.0,0.0,0.0,0.0,0.0,0.0,0.0,0.0,0.0,0.0,0.0,0.0,0.0,0.0,0.0,0.0,0.0,0.0,0.0,0.0,0.0,0.0,0.0,0.0,0.0,0.0,0.0,0.0,0.0,0.0,0.0,0.0,0.0,0.0,0.0,0.0,0.0,0.0,0.0,0.6169,0.6122,0.5973,0.0,0.0,0.0,0.0,0.0,0.0,0.0,0.0,0.0,0.0,0.0,0.0,0.0,0.0,0.0,0.0,0.0,0.0,0.0,0.0,0.0,0.0,0.0,0.0,0.0,0.0,0.0,0.0,0.0,0.0,0.0,0.0,0.0,0.0,0.0,0.0,0.0,0.0,0.0,0.0,0.0,0.0,0.0,0.0,0.0,0.0,0.0,0.0,0.0,0.0,0.0,0.0,0.0,0.0,0.0,0.0,0.0,0.0,0.0,0.0,0.0,0.0,0.0,0.0,0.0,0.0,0.0,0.0,0.0,0.0,0.0,0.0,0.0,0.0,0.0,0.0,0.0,0.0,0.0,0.0,0.0,0.0,0.0,0.0,0.0,0.0,0.0,0.0,0.0,0.0,0.0,0.0,0.0,0.0,0.0,0.0,0.0,0.0,0.0,0.0,0.0,0.0,0.0,0.0,0.0,0.0,0.0,0.0,0.0,0.0,0.6489,0.6388,0.6376,0.0,0.6176,0.0,0.0,0.0,0.0,0.0,0.0,0.0,0.0,0.0,0.0,0.0,0.0,0.0,0.0,0.0,0.0,0.0,0.0,0.0,0.0,0.0,0.0,0.0,0.0,0.0,0.0,0.0,0.0,0.0,0.0,0.0,0.0,0.0,0.0,0.0,0.0,0.0,0.0,0.0,0.0,0.0,0.0,0.0,0.0,0.0,0.0,0.0,0.0,0.0,0.0,0.0,0.0,0.0,0.0,0.0,0.0,0.0,0.0,0.0,0.0,0.0,0.0,0.0,0.0,0.0,0.0,0.0,0.0,0.0,0.0,0.0,0.0,0.0,0.0,0.0,0.0,0.0,0.0,0.0,0.0,0.0,0.0,0.0,0.0,0.0,0.0,0.0,0.0,0.0,0.0,0.0,0.0,0.0,0.0,0.0,0.0,0.0,0.0,0.0,0.0,0.0,0.0,0.0,0.0,0.0,0.0,0.0,0.0,0.0,0.0,0.6712,0.6531,0.6437,0.6364,0.0,0.0,0.0,0.0,0.0,0.0,0.0,0.0,0.0,0.0,0.0,0.0,0.0,0.0,0.0,0.0,0.0,0.0,0.0,0.0,0.0,0.0,0.0,0.0,0.0,0.0,0.0,0.0,0.0,0.0,0.0,0.0,0.0,0.0,0.0,0.0,0.0,0.0,0.0,0.0,0.0,0.0,0.0,0.0,0.0,0.0,0.0,0.0,0.0,0.0,0.0,0.0,0.0,0.0,0.0,0.0,0.0,0.0,0.0,0.0,0.0,0.0,0.0,0.0,0.0,0.0,0.0,0.0,0.0,0.0,0.0,0.0,0.0,0.0,0.0,0.0,0.0,0.0,0.0,0.0,0.0,0.0,0.0,0.0,0.0,0.0,0.0,0.0,0.0,0.0,0.0,0.0,0.0,0.0,0.0,0.0,0.0,0.0,0.0,0.0,0.0,0.0,0.0,0.0,0.0,0.0,0.0,0.0,0.0,0.0,0.7019,0.69,0.6714,0.6505,0.6449,0.6482,0.0,0.0,0.0,0.0,0.0,0.0,0.0,0.0,0.0,0.0,0.0,0.0,0.0,0.0,0.0,0.0,0.0,0.0,0.0,0.0,0.0,0.0,0.0,0.0,0.0,0.0,0.0,0.0,0.0,0.0,0.0,0.0,0.0,0.0,0.0,0.0,0.0,0.0,0.0,0.0,0.0,0.0,0.0,0.0,0.0,0.0,0.0,0.0,0.0,0.0,0.0,0.0,0.0,0.0,0.0,0.0,0.0,0.0,0.0,0.0,0.0,0.0,0.0,0.0,0.0,0.0,0.0,0.0,0.0,0.0,0.0,0.0,0.0,0.0,0.0,0.0,0.0,0.0,0.0,0.0,0.0,0.0,0.0,0.0,0.0,0.0,0.0,0.0,0.0,0.0,0.0,0.0,0.0,0.0,0.0,0.0,0.0,0.0,0.0,0.0,0.0,0.0,0.0,0.0,0.0,0.0,0.0,0.0,0.7484,0.7292,0.713,0.6956,0.6603,0.6482,0.0,0.0,0.0,0.0,0.0,0.0,0.0,0.0,0.0,0.0,0.0,0.0,0.0,0.0,0.0,0.0,0.0,0.0,0.0,0.0,0.0,0.0,0.0,0.0,0.0,0.0,0.0,0.0,0.0,0.0,0.0,0.0,0.0,0.0,0.0,0.0,0.0,0.0,0.0,0.0,0.0,0.0,0.0,0.0,0.0,0.0,0.0,0.0,0.0,0.0,0.0,0.0,0.0,0.0,0.0,0.0,0.0,0.0,0.0,0.0,0.0,0.0,0.0,0.0,0.0,0.0,0.0,0.0,0.0,0.0,0.0,0.0,0.0,0.0,0.0,0.0,0.0,0.0,0.0,0.0,0.0,0.0,0.0,0.0,0.0,0.0,0.0,0.0,0.0,0.0,0.0,0.0,0.0,0.0,0.0,0.0,0.0,0.0,0.0,0.0,0.0,0.0,0.0,0.0,0.0,0.0,0.0,0.0,0.0,0.7672,0.7265,0.7082,0.7118,0.6768,0.6642,0.0,0.0,0.0,0.0,0.0,0.0,0.0,0.0,0.0,0.0,0.0,0.0,0.0,0.0,0.0,0.0,0.0,0.0,0.0,0.0,0.0,0.0,0.0,0.0,0.0,0.0,0.0,0.0,0.0,0.0,0.0,0.0,0.0,0.0,0.0,0.0,0.0,0.0,0.0,0.0,0.0,0.0,0.0,0.0,0.0,0.0,0.0,0.0,0.0,0.0,0.0,0.0,0.0,0.0,0.0,0.0,0.0,0.0,0.0,0.0,0.0,0.0,0.0,0.0,0.0,0.0,0.0,0.0,0.0,0.0,0.0,0.0,0.0,0.0,0.0,0.0,0.0,0.0,0.0,0.0,0.0,0.0,0.0,0.0,0.0,0.0,0.0,0.0,0.0,0.0,0.0,0.0,0.0,0.0,0.0,0.0,0.0,0.0,0.0,0.0,0.0,0.0,0.0,0.0,0.0,0.0,0.0,0.0,0.0,0.7868,0.0,0.7292,0.7296,0.7031,0.697,0.0,0.0,0.0,0.0,0.0,0.0,0.0,0.0,0.0,0.0,0.0,0.0,0.0,0.0,0.0,0.0,0.0,0.0,0.0,0.0,0.0,0.0,0.0,0.0,0.0,0.0,0.0,0.0,0.0,0.0,0.0,0.0,0.0,0.0,0.0,0.0,0.0,0.0,0.0,0.0,0.0,0.0,0.0,0.0,0.0,0.0,0.0,0.0,0.0,0.0,0.0,0.0,0.0,0.0,0.0,0.0,0.0,0.0,0.0,0.0,0.0,0.0,0.0,0.0,0.0,0.0,0.0,0.0,0.0,0.0,0.0,0.0,0.0,0.0,0.0,0.0,0.0,0.0,0.0,0.0,0.0,0.0,0.0,0.0,0.0,0.0,0.0,0.0,0.0,0.0,0.0,0.0,0.0,0.0,0.0,0.0,0.0,0.0,0.0,0.0,0.0,0.0,0.0,0.0,0.0,0.0,0.0,0.0,0.8331,0.8093,0.79,0.7674,0.7531,0.7368,0.7371,0.0,0.0,0.0,0.0,0.0,0.0,0.0,0.0,0.0,0.0,0.0,0.0,0.0,0.0,0.0,0.0,0.0,0.0,0.0,0.0,0.0,0.0,0.0,0.0,0.0,0.0,0.0,0.0,0.0,0.0,0.0,0.0,0.0,0.0,0.0,0.0,0.0,0.0,0.0,0.0,0.0,0.0,0.0,0.0,0.0,0.0,0.0,0.0,0.0,0.0,0.0,0.0,0.0,0.0,0.0,0.0,0.0,0.0,0.0,0.0,0.0,0.0,0.0,0.0,0.0,0.0,0.0,0.0,0.0,0.0,0.0,0.0,0.0,0.0,0.0,0.0,0.0,0.0,0.0,0.0,0.0,0.0,0.0,0.0,0.0,0.0,0.0,0.0,0.0,0.0,0.0,0.0,0.0,0.0,0.0,0.0,0.0,0.0,0.0,0.0,0.0,0.0,0.0,0.0,0.0,0.0,0.0,0.0,0.0,0.8322,0.7979,0.7891,0.8116,0.7827,0.7778,0.0,0.0,0.0,0.0,0.0,0.0,0.0,0.0,0.0,0.0,0.0,0.0,0.0,0.0,0.0,0.0,0.0,0.0,0.0,0.0,0.0,0.0,0.0,0.0,0.0,0.0,0.0,0.0,0.0,0.0,0.0,0.0,0.0,0.0,0.0,0.0,0.0,0.0,0.0,0.0,0.0,0.0,0.0,0.0,0.0,0.0,0.0,0.0,0.0,0.0,0.0,0.0,0.0,0.0,0.0,0.0,0.0,0.0,0.0,0.0,0.0,0.0,0.0,0.0,0.0,0.0,0.0,0.0,0.0,0.0,0.0,0.0,0.0,0.0,0.0,0.0,0.0,0.0,0.0,0.0,0.0,0.0,0.0,0.0,0.0,0.0,0.0,0.0,0.0,0.0,0.0,0.0,0.0,0.0,0.0,0.0,0.0,0.0,0.0,0.0,0.0,0.0,0.0,0.0,0.0,0.0,0.0,0.0,0.0,0.8742,0.8468,0.8435,0.8621,0.8395,0.8349,0.8524,0.0,0.0,0.0,0.0,0.0,0.0,0.0,0.0,0.0,0.0,0.0,0.0,0.0,0.0,0.0,0.0,0.0,0.0,0.0,0.0,0.0,0.0,0.0,0.0,0.0,0.0,0.0,0.0,0.0,0.0,0.0,0.0,0.0,0.0,0.0,0.0,0.0,0.0,0.0,0.0,0.0,0.0,0.0,0.0,0.0,0.0,0.0,0.0,0.0,0.0,0.0,0.0,0.0,0.0,0.0,0.0,0.0,0.0,0.0,0.0,0.0,0.0,0.0,0.0,0.0,0.0,0.0,0.0,0.0,0.0,0.0,0.0,0.0,0.0,0.0,0.0,0.0,0.0,0.0,0.0,0.0,0.0,0.0,0.0,0.0,0.0,0.0,0.0,0.0,0.0,0.0,0.0,0.0,0.0,0.0,0.0,0.0,0.0,0.0,0.0,0.0,0.0,0.0,0.0,0.0,0.0,0.0,0.0,0.9359,0.9359,0.9258,0.9045,0.9056,0.9036,0.0,0.0,0.0,0.0,0.0,0.0,0.0,0.0,0.0,0.0,0.0,0.0,0.0,0.0,0.0,0.0,0.0,0.0,0.0,0.0,0.0,0.0,0.0,0.0,0.0,0.0,0.0,0.0,0.0,0.0,0.0,0.0,0.0,0.0,0.0,0.0,0.0,0.0,0.0,0.0,0.0,0.0,0.0,0.0,0.0,0.0,0.0,0.0,0.0,0.0,0.0,0.0,0.0,0.0,0.0,0.0,0.0,0.0,0.0,0.0,0.0,0.0,0.0,0.0,0.0,0.0,0.0,0.0,0.0,0.0,0.0,0.0,0.0,0.0,0.0,0.0,0.0,0.0,0.0,0.0,0.0,0.0,0.0,0.0,0.0,0.0,0.0,0.0,0.0,0.0,0.0,0.0,0.0,0.0,0.0,0.0,0.0,0.0,0.0,0.0,0.0,0.0,0.0,0.0,0.0,0.0,0.0,0.0,0.0,0.9954,0.996,0.989,0.9675,0.9516,0.9585,0.0,0.0,0.0,0.0,0.0,0.0,0.0,0.0,0.0,0.0,0.0,0.0,0.0,0.0,0.0,0.0,0.0,0.0,0.0,0.0,0.0,0.0,0.0,0.0,0.0,0.0,0.0,0.0,0.0,0.0,0.0,0.0,0.0,0.0,0.0,0.0,0.0,0.0,0.0,0.0,0.0,0.0,0.0,0.0,0.0,0.0,0.0,0.0,0.0,0.0,0.0,0.0,0.0,0.0,0.0,0.0,0.0,0.0,0.0,0.0,0.0,0.0,0.0,0.0,0.0,0.0,0.0,0.0,0.0,0.0,0.0,0.0,0.0,0.0,0.0,0.0,0.0,0.0,0.0,0.0,0.0,0.0,0.0,0.0,0.0,0.0,0.0,0.0,0.0,0.0,0.0,0.0,0.0,0.0,0.0,0.0,0.0,0.0,0.0,0.0,0.0,0.0,0.0,0.0,0.0,0.0,0.0,0.0,1.0067,1.0175,1.0293,1.0363,1.04,1.0122,1.0109,0.0,0.0,0.0,0.0,0.0,0.0,0.0,0.0,0.0,0.0,0.0,0.0,0.0,0.0,0.0,0.0,0.0,0.0,0.0,0.0,0.0,0.0,0.0,0.0,0.0,0.0,0.0,0.0,0.0,0.0,0.0,0.0,0.0,0.0,0.0,0.0,0.0,0.0,0.0,0.0,0.0,0.0,0.0,0.0,0.0,0.0,0.0,0.0,0.0,0.0,0.0,0.0,0.0,0.0,0.0,0.0,0.0,0.0,0.0,0.0,0.0,0.0,0.0,0.0,0.0,0.0,0.0,0.0,0.0,0.0,0.0,0.0,0.0,0.0,0.0,0.0,0.0,0.0,0.0,0.0,0.0,0.0,0.0,0.0,0.0,0.0,0.0,0.0,0.0,0.0,0.0,0.0,0.0,0.0,0.0,0.0,0.0,0.0,0.0,0.0,0.0,0.0,0.0,0.0,0.0,0.0,0.0,0.0,1.0257,1.0332,1.0521,1.0778,1.1154,1.0793,1.0633,0.0,0.0,0.0,0.0,0.0,0.0,0.0,0.0,0.0,0.0,0.0,0.0,0.0,0.0,0.0,0.0,0.0,0.0,0.0,0.0,0.0,0.0,0.0,0.0,0.0,0.0,0.0,0.0,0.0,0.0,0.0,0.0,0.0,0.0,0.0,0.0,0.0,0.0,0.0,0.0,0.0,0.0,0.0,0.0,0.0,0.0,0.0,0.0,0.0,0.0,0.0,0.0,0.0,0.0,0.0,0.0,0.0,0.0,0.0,0.0,0.0,0.0,0.0,0.0,0.0,0.0,0.0,0.0,0.0,0.0,0.0,0.0,0.0,0.0,0.0,0.0,0.0,0.0,0.0,0.0,0.0,0.0,0.0,0.0,0.0,0.0,0.0,0.0,0.0,0.0,0.0,0.0,0.0,0.0,0.0,0.0,0.0,0.0,0.0,0.0,0.0,0.0,0.0,0.0,0.0,0.0,0.0,0.0,1.0827,1.0981,1.1174,1.1399,1.1635,1.1226,1.1124,0.0,0.0,0.0,0.0,0.0,0.0,0.0,0.0,0.0,0.0,0.0,0.0,0.0,0.0,0.0,0.0,0.0,0.0,0.0,0.0,0.0,0.0,0.0,0.0,0.0,0.0,0.0,0.0,0.0,0.0,0.0,0.0,0.0,0.0,0.0,0.0,0.0,0.0,0.0,0.0,0.0,0.0,0.0,0.0,0.0,0.0,0.0,0.0,0.9786,0.0,0.0,0.0,0.0,0.0,0.0,0.0,0.0,0.0,0.0,0.0,0.0,0.0,0.0,0.0,0.0,0.0,0.0,0.0,0.0,0.0,0.0,0.0,0.0,0.0,0.0,0.0,0.0,0.0,0.0,0.0,0.0,0.0,0.0,0.0,0.0,0.0,0.0,0.0,0.0,0.0,0.0,0.0,0.0,0.0,0.0,0.0,0.0,0.0,0.0,0.0,0.0,0.0,0.0,0.0,0.0,0.0,0.0,0.0,1.1289,1.1406,1.1689,1.1927,1.2107,1.1828,1.1744,0.0,0.0,0.0,0.0,0.0,0.0,0.0,0.0,0.0,0.0,0.0,0.0,0.0,0.0,0.0,0.0,0.0,0.0,0.0,0.0,0.0,0.0,0.0,0.0,0.0,0.0,0.0,0.0,0.0,0.0,0.0,0.0,0.0,0.0,0.0,0.0,0.0,0.0,0.0,0.0,0.0,0.0,0.0,0.0,0.0,0.0,0.0,0.0,0.0,0.0,0.0,0.0,0.0,0.0,0.0,0.0,0.0,0.0,0.0,0.0,0.0,0.0,0.0,0.0,0.0,0.0,0.0,0.0,0.0,0.0,0.0,0.0,0.0,0.0,0.0,0.0,0.0,0.0,0.0,0.0,0.0,0.0,0.0,0.0,0.0,0.0,0.0,0.0,0.0,0.0,0.0,0.0,0.0,0.0,0.0,0.0,0.0,0.0,0.0,0.0,0.0,0.0,0.0,0.0,0.0,0.0,0.0,1.1342,1.1731,1.177,1.2131,1.2415,1.2608,1.2454,1.2378,1.2482,0.0,0.0,0.0,0.0,0.0,0.0,0.0,0.0,0.0,0.0,0.0,0.0,0.0,0.0,0.0,0.0,0.0,0.0,0.0,0.0,0.0,0.0,0.0,0.0,0.0,0.0,0.0,0.0,0.0,0.0,0.0,0.0,0.0,0.0,0.0,0.0,0.0,0.0,1.0015,1.0047,0.0,0.0,0.0,0.0,0.0,0.0,0.0,0.0,1.0586,0.0,0.0,0.0,0.0,0.0,0.0,0.0,0.0,0.0,0.0,0.0,0.0,0.0,0.0,0.0,0.0,0.0,0.0,0.0,0.0,0.0,0.0,0.0,0.0,0.0,0.0,0.0,0.0,0.0,0.0,0.0,0.0,0.0,0.0,0.0,0.0,0.0,0.0,0.0,0.0,0.0,0.0,0.0,0.0,0.0,0.0,0.0,0.0,0.0,0.0,0.0,0.0,0.0,0.0,0.0,0.0,1.126,1.1879,1.2257,1.2455,1.266,1.2864,1.3048,1.275,1.279,1.3229,0.0,0.0,0.0,0.0,0.0,0.0,0.0,0.0,0.0,0.0,0.0,0.0,0.0,0.0,0.0,0.0,0.0,0.0,0.0,0.0,0.0,0.0,0.0,0.0,0.0,0.0,0.0,0.0,0.0,0.0,0.0,0.0,0.0,0.0,0.0,0.0,0.0,0.0,0.0,1.0276,1.0339,0.0,0.0,0.0,0.0,0.0,0.0,0.0,0.0,1.0559,0.0,0.0,0.0,0.0,0.0,0.0,0.0,0.0,0.0,0.0,0.0,0.0,0.0,0.0,0.0,0.0,0.0,0.0,0.0,0.0,0.0,0.0,0.0,0.0,0.0,0.0,0.0,0.0,0.0,0.0,0.0,0.0,0.0,0.0,0.0,0.0,0.0,0.0,0.0,0.0,0.0,0.0,0.0,0.0,0.0,0.0,0.0,0.0,0.0,0.0,0.0,0.0,0.0,0.0,0.0,1.1589,1.2233,1.258,1.2563,1.2962,1.3159,1.3083,1.3063,1.32,0.0,0.0,0.0,0.0,0.0,0.0,0.0,0.0,0.0,0.0,0.0,0.0,0.0,0.0,0.0,0.0,0.0,0.0,0.0,0.0,0.0,0.0,0.0,0.0,0.0,0.0,0.0,0.0,0.0,0.0,0.0,0.0,0.0,0.0,0.0,0.0,0.0,0.0,0.0,0.0,1.0466,1.0498,1.0593,0.0,0.0,0.0,0.0,0.0,0.0,1.0586,1.0586,0.0,0.0,0.0,0.0,0.0,0.0,0.0,0.0,0.0,0.0,0.0,0.0,0.0,0.0,0.0,0.0,0.0,0.0,0.0,0.0,0.0,0.0,0.0,0.0,0.0,0.0,0.0,0.0,0.0,0.0,0.0,0.0,0.0,0.0,0.0,0.0,0.0,0.0,0.0,0.0,0.0,0.0,0.0,0.0,0.0,0.0,0.0,0.0,0.0,0.0,0.0,0.0,0.0,0.0,0.0,1.1763,1.2492,1.2804,1.2632,1.3174,1.3368,1.3165,1.3394,1.3572,0.0,0.0,0.0,0.0,0.0,0.0,0.0,0.0,0.0,0.0,0.0,0.0,0.0,0.0,0.0,0.0,0.0,0.0,0.0,0.0,0.0,0.0,0.0,0.0,0.0,0.0,0.0,0.0,0.0,0.0,0.0,0.0,0.0,0.0,0.0,0.0,0.0,0.0,0.0,0.0,0.0,1.0586,1.0586,1.0586,0.0,0.0,0.0,0.0,1.0586,1.0624,0.0,0.0,0.0,0.0,0.0,0.0,0.0,0.0,0.0,0.0,0.0,0.0,0.0,0.0,0.0,0.0,0.0,0.0,0.0,0.0,0.0,0.0,0.0,0.0,0.0,0.0,0.0,0.0,0.0,0.0,0.0,0.0,0.0,0.0,0.0,0.0,0.0,0.0,0.0,0.0,0.0,0.0,0.0,0.0,0.0,0.0,0.0,0.0,0.0,0.0,0.0,0.0,0.0,0.0,0.0,0.0,1.1979,1.2518,1.2856,1.2936,1.3199,1.3459,1.3778,1.3623,1.3746,0.0,0.0,0.0,0.0,0.0,0.0,0.0,0.0,0.0,0.0,0.0,0.0,0.0,0.0,0.0,0.0,0.0,0.0,0.0,0.0,0.0,0.0,0.0,0.0,0.0,0.0,0.0,0.0,0.0,0.0,0.0,0.0,0.0,0.0,0.0,0.0,0.0,0.0,0.0,0.0,0.0,1.0586,1.0586,1.0586,1.0586,0.0,0.0,1.0586,1.0586,1.0713,0.0,0.0,0.0,0.0,0.0,0.0,0.0,0.0,0.0,0.0,0.0,0.0,0.0,0.0,0.0,0.0,0.0,0.0,0.0,0.0,0.0,0.0,0.0,0.0,0.0,0.0,0.0,0.0,0.0,0.0,0.0,0.0,0.0,0.0,0.0,0.0,0.0,0.0,0.0,0.0,0.0,0.0,0.0,0.0,0.0,0.0,0.0,0.0,0.0,0.0,0.0,0.0,0.0,0.0,0.0,1.2415,1.2546,1.3071,1.3255,1.2968,1.3591,1.3834,1.3674,1.3886,1.4145,0.0,0.0,0.0,0.0,0.0,0.0,0.0,0.0,0.0,0.0,0.0,0.0,0.0,0.0,0.0,0.0,0.0,0.0,0.0,0.0,0.0,0.0,0.0,0.0,0.0,0.0,0.0,0.0,0.0,0.0,0.0,0.0,0.0,0.0,0.0,0.0,0.0,0.0,0.0,0.0,0.0,0.0,1.087,1.0877,0.0,0.0,0.0,1.0877,1.087,0.0,0.0,0.0,0.0,0.0,0.0,0.0,0.0,0.0,0.0,0.0,0.0,0.0,0.0,0.0,0.0,0.0,0.0,0.0,0.0,0.0,0.0,0.0,0.0,0.0,0.0,0.0,0.0,0.0,0.0,0.0,0.0,0.0,0.0,0.0,0.0,0.0,0.0,0.0,0.0,0.0,0.0,0.0,0.0,0.0,0.0,0.0,0.0,0.0,0.0,0.0,0.0,0.0,0.0,0.0,0.0,0.0,1.3026,1.355,1.3669,1.3331,1.4045,1.4258,1.3888,1.4219,0.0,0.0,0.0,0.0,0.0,0.0,0.0,0.0,0.0,0.0,0.0,0.0,0.0,0.0,0.0,0.0,0.0,0.0,0.0,0.0,0.0,0.0,0.0,0.0,0.0,0.0,0.0,1.1716,0.0,0.0,0.0,0.0,0.0,0.0,0.0,0.0,0.0,0.0,0.0,0.0,0.0,0.0,1.121,1.1203,1.1273,1.1322,0.0,0.0,1.1322,1.1322,1.1291,1.1273,0.0,0.0,0.0,0.0,0.0,0.0,0.0,0.0,0.0,0.0,0.0,0.0,0.0,0.0,0.0,0.0,0.0,0.0,0.0,0.0,0.0,0.0,0.0,0.0,0.0,0.0,0.0,0.0,0.0,0.0,0.0,0.0,0.0,0.0,0.0,0.0,0.0,0.0,0.0,0.0,0.0,0.0,0.0,0.0,0.0,0.0,0.0,0.0,0.0,0.0,0.0,0.0,0.0,0.0,0.0,1.3358,1.3762,1.4136,1.4386,1.4501,1.4659,1.4799,1.4525,1.4469,0.0,0.0,0.0,0.0,0.0,0.0,0.0,0.0,0.0,0.0,0.0,0.0,0.0,0.0,0.0,0.0,0.0,0.0,0.0,0.0,0.0,0.0,0.0,0.0,0.0,0.0,0.0,0.0,0.0,0.0,0.0,0.0,0.0,0.0,0.0,0.0,0.0,0.0,0.0,0.0,0.0,1.1486,1.1486,1.1738,1.1947,0.0,0.0,1.1954,1.1947,1.1841,1.1754,1.1747,0.0,0.0,0.0,0.0,0.0,0.0,0.0,0.0,0.0,0.0,0.0,0.0,0.0,0.0,0.0,0.0,0.0,0.0,0.0,0.0,0.0,0.0,0.0,0.0,0.0,0.0,0.0,0.0,0.0,0.0,0.0,0.0,0.0,0.0,0.0,0.0,0.0,0.0,0.0,0.0,0.0,0.0,0.0,0.0,0.0,0.0,0.0,0.0,0.0,0.0,0.0,0.0,0.0,1.4212,1.4452,1.4777,1.4961,1.4878,1.5187,1.5227,1.4883,1.4898,1.4798,0.0,0.0,0.0,0.0,0.0,0.0,0.0,0.0,0.0,0.0,0.0,0.0,0.0,0.0,0.0,0.0,0.0,0.0,0.0,0.0,0.0,0.0,0.0,0.0,0.0,0.0,0.0,0.0,1.1996,1.1996,1.1996,0.0,0.0,0.0,0.0,0.0,0.0,0.0,0.0,0.0,0.0,1.2476,1.2509,1.2587,0.0,0.0,1.2695,1.2661,1.2661,1.2624,1.2609,1.2609,1.257,0.0,0.0,0.0,0.0,0.0,0.0,0.0,0.0,0.0,0.0,0.0,0.0,0.0,0.0,0.0,0.0,0.0,0.0,0.0,0.0,0.0,0.0,0.0,0.0,0.0,0.0,0.0,0.0,0.0,0.0,0.0,0.0,0.0,0.0,0.0,0.0,0.0,0.0,0.0,0.0,0.0,0.0,0.0,0.0,0.0,0.0,0.0,0.0,0.0,0.0,0.0,0.0,1.5001,1.5225,1.5533,1.5634,1.5496,1.5825,1.574,1.5168,1.5154,1.5014,0.0,0.0,0.0,0.0,0.0,0.0,0.0,0.0,0.0,0.0,0.0,0.0,0.0,0.0,0.0,0.0,0.0,0.0,0.0,0.0,0.0,0.0,0.0,0.0,0.0,0.0,0.0,0.0,1.249,1.2498,1.2498,0.0,0.0,0.0,0.0,0.0,0.0,0.0,0.0,0.0,0.0,1.3267,1.3225,1.3343,1.3405,1.3405,1.3405,1.3405,1.3405,1.3328,1.3267,1.3267,0.0,0.0,0.0,0.0,0.0,0.0,0.0,0.0,0.0,0.0,0.0,0.0,0.0,0.0,0.0,0.0,0.0,0.0,0.0,0.0,0.0,0.0,0.0,0.0,0.0,0.0,0.0,0.0,0.0,0.0,1.4245,0.0,0.0,0.0,0.0,0.0,0.0,0.0,0.0,0.0,0.0,0.0,0.0,0.0,0.0,0.0,0.0,0.0,0.0,0.0,0.0,0.0,0.0,1.5248,1.5601,1.5816,1.6036,1.6339,1.626,1.6039,1.5682,1.5401,1.5022,1.4629,0.0,0.0,0.0,0.0,0.0,0.0,0.0,0.0,0.0,0.0,0.0,0.0,0.0,0.0,0.0,0.0,0.0,0.0,0.0,0.0,0.0,0.0,0.0,0.0,0.0,0.0,1.3312,1.3359,1.3351,0.0,0.0,0.0,0.0,0.0,0.0,0.0,0.0,0.0,0.0,1.3405,1.3576,1.3611,1.3871,1.4047,1.4055,1.4063,1.4063,1.4055,1.3803,1.3619,0.0,0.0,0.0,0.0,0.0,0.0,0.0,0.0,0.0,0.0,0.0,0.0,0.0,0.0,0.0,0.0,0.0,0.0,0.0,0.0,0.0,0.0,0.0,0.0,0.0,0.0,0.0,1.4842,1.4835,0.0,0.0,0.0,0.0,0.0,0.0,0.0,0.0,0.0,0.0,0.0,1.6087,1.6136,0.0,0.0,0.0,0.0,0.0,0.0,0.0,0.0,0.0,0.0,0.0,0.0,1.6073,1.6312,1.6393,1.6489,1.6599,1.657,1.6389,1.6039,1.592,1.5663,1.5227,0.0,0.0,0.0,0.0,0.0,0.0,0.0,0.0,0.0,0.0,0.0,0.0,0.0,0.0,0.0,0.0,0.0,0.0,0.0,0.0,0.0,0.0,0.0,0.0,0.0,1.3465,0.0,0.0,0.0,0.0,0.0,0.0,0.0,0.0,0.0,0.0,0.0,1.3865,1.4057,1.4183,1.4253,1.4261,1.4355,1.4425,0.0,0.0,0.0,0.0,0.0,0.0,0.0,0.0,0.0,0.0,0.0,0.0,0.0,0.0,1.3269,1.2606,1.2323,1.2153,1.1942,0.0,0.0,0.0,0.0,0.0,0.0,0.0,0.0,0.0,0.0,0.0,0.0,0.0,0.0,1.5316,0.0,1.5423,0.0,0.0,0.0,0.0,0.0,0.0,0.0,0.0,1.6203,1.6245,1.6286,1.6294,1.6335,0.0,1.6335,1.6335,0.0,0.0,0.0,0.0,0.0,0.0,0.0,0.0,1.6558,1.6689,1.6689,1.6689,1.6689,1.6689,1.6563,1.6222,1.6166,1.5954,1.5634,1.5454,1.5336,0.0,0.0,0.0,0.0,0.0,0.0,0.0,0.0,0.0,0.0,0.0,0.0,0.0,0.0,0.0,0.0,0.0,0.0,0.0,0.0,0.0,0.0,0.0,1.395,0.0,0.0,0.0,0.0,0.0,0.0,0.0,0.0,0.0,1.4288,1.4291,1.4344,1.4573,1.4605,1.4605,1.4605,0.0,0.0,0.0,0.0,0.0,0.0,0.0,1.4605,1.4605,1.4605,1.4569,1.4497,1.4353,1.4274,1.4274,0.0,0.0,1.3152,1.2904,1.2731,1.2472,1.2263,1.2088,1.2046,1.1836,1.1697,0.0,0.0,0.0,0.0,0.0,0.0,0.0,0.0,1.5842,1.576,0.0,1.5676,0.0,0.0,0.0,0.0,0.0,1.6144,0.0,0.0,1.6482,1.6549,1.6729,1.6745,1.6729,1.6721,1.6745,1.6745,1.6745,1.6317,0.0,0.0,0.0,0.0,0.0,0.0,1.6689,1.6689,1.6689,1.6689,1.6689,1.6689,1.6531,1.6238,1.6129,1.5989,1.5877,1.5864,1.5645,1.5237,1.5256,0.0,0.0,0.0,0.0,0.0,0.0,0.0,0.0,0.0,0.0,0.0,0.0,0.0,0.0,0.0,0.0,0.0,0.0,0.0,0.0,1.4605,0.0,0.0,0.0,0.0,0.0,0.0,0.0,0.0,0.0,0.0,1.4621,1.4605,1.4605,1.4605,0.0,0.0,0.0,0.0,1.4605,1.4605,1.4605,1.4605,1.4605,1.4605,1.4605,1.4605,0.0,0.0,1.4605,1.4605,1.4605,1.4605,1.4469,1.4289,1.3884,1.3753,1.3615,1.3273,1.3004,1.2849,1.2666,1.2391,1.2178,1.6734,0.0,0.0,0.0,0.0,1.6153,1.6228,1.6199,1.6425,1.6504,1.6415,1.6624,0.0,0.0,0.0,0.0,0.0,0.0,1.6994,1.7051,1.7273,1.7426,1.7469,1.7477,1.7469,1.7469,1.7477,1.7477,1.7461,1.7112,1.6826,1.6607,0.0,0.0,0.0,0.0,1.6689,1.6689,1.6689,1.6689,1.6689,1.6689,1.6723,1.6863,1.684,1.6843,1.6782,1.6683,1.6427,1.609,1.6037,0.0,0.0,0.0,0.0,0.0,0.0,0.0,0.0,0.0,0.0,0.0,0.0,0.0,0.0,0.0,0.0,0.0,0.0,0.0,1.4597,1.4605,1.4605,0.0,0.0,0.0,0.0,0.0,0.0,0.0,0.0,0.0,1.499,1.4764,1.4605,0.0,0.0,1.4605,1.4605,1.4605,1.4605,1.4605,0.0,0.0,0.0,1.4605,1.4605,1.4605,1.4605,1.4605,1.4605,1.4605,1.4605,1.4605,1.4497,1.4317,1.4072,1.3899,1.371,1.3455,1.3163,1.2893,1.282,1.2562,1.2278,1.7786,1.7051,1.7023,1.6824,1.6536,1.671,1.6727,1.6751,1.6885,1.6951,1.6947,1.7167,1.7255,1.7247,1.7255,0.0,0.0,0.0,1.7469,1.7528,1.7727,1.7806,1.7806,1.7806,1.7806,1.7806,1.7806,1.7806,1.7806,1.7572,1.7366,1.7151,0.0,0.0,1.6953,1.708,1.7143,1.7151,1.7143,1.7135,1.7143,1.7092,1.7162,1.7335,1.7369,1.7392,1.7327,1.7184,1.697,1.6593,1.6613,1.6482,0.0,0.0,0.0,0.0,0.0,0.0,0.0,0.0,0.0,0.0,0.0,1.4605,0.0,0.0,0.0,0.0,1.4605,1.4605,1.4605,1.4605,0.0,0.0,0.0,0.0,0.0,0.0,0.0,1.5009,1.5054,1.5133,1.5348,1.5189,1.5046,1.5009,1.5046,1.5054,1.5046,0.0,1.5054,1.5046,1.5046,1.5046,1.5046,1.5054,1.5054,1.5017,1.5017,1.5017,1.5054,1.5054,1.5017,1.4935,1.4731,1.4527,1.4227,1.396,1.3754,1.3535,1.3193,1.2936,1.29,1.2599,1.2305,1.8635,1.8313,1.8013,1.7658,1.7359,1.733,1.7348,1.7265,1.7281,1.7221,1.7244,1.7515,1.7595,1.7572,1.7775,0.0,1.7814,1.7838,1.7862,1.7854,1.7842,1.7902,1.7902,1.7858,1.7902,1.7894,1.7894,1.785,1.7858,1.7878,1.7862,1.7846,1.7517,1.7384,1.7334,1.7663,1.7806,1.7806,1.7798,1.7806,1.7806,1.7693,1.768,1.7759,1.7716,1.766,1.7535,1.7548,1.7355,1.7038,1.7004,1.6974,1.6974,0.0,0.0,0.0,0.0,0.0,0.0,0.0,0.0,0.0,0.0,0.0,0.0,0.0,0.0,0.0,1.4692,0.0,1.4684,1.4684,0.0,0.0,0.0,1.5221,1.5229,1.5483,1.5728,1.5752,0.0,0.0,1.5839,0.0,1.5855,1.5879,1.5816,1.576,1.5752,1.5776,1.5761,1.5769,1.5792,1.5753,1.569,1.565,1.561,1.5602,1.5674,1.5672,1.5626,1.5642,1.5597,1.5389,1.5124,1.4764,1.4404,1.4074,1.3755,1.355,1.3185,1.29,1.2856,1.2562,1.2305,1.8964,1.8664,1.8591,1.8364,1.805,1.7801,1.7757,1.7961,1.7939,1.7972,1.8178,1.8407,1.8348,1.8087,1.8176,1.8025,1.7822,1.8093,1.8176,1.8192,1.8454,1.8573,1.8581,1.8581,1.8581,1.8573,1.8581,1.8573,1.8565,1.8303,1.8176,1.8168,1.8097,1.7922,1.7668,1.7775,1.7806,1.7806,1.7806,1.7909,1.8091,1.7914,1.7945,1.8187,1.8023,1.7917,1.7903,1.7863,1.782,1.7735,1.7735,1.7726,1.7735,1.7735,0.0,0.0,0.0,0.0,0.0,0.0,0.0,0.0,0.0,1.5427,1.5427,0.0,1.5427,0.0,1.5427,1.5427,1.5427,1.5435,0.0,0.0,1.5507,1.5593,1.5601,1.5664,1.5777,1.6047,1.6079,1.6285,1.6833,1.6938,1.7034,1.7265,1.6571,1.6079,1.6087,1.6317,1.6484,1.6484,1.6484,1.6381,1.6126,1.584,1.5697,1.5674,1.5682,1.5674,1.5674,1.5574,1.5466,1.5389,1.5065,1.4734,1.4618,1.4236,1.3924,1.3656,1.326,1.2863,1.2716,1.2489,1.2305,1.9221,1.906,1.9008,1.8899,1.8694,1.8233,1.823,1.8618,1.8573,1.8697,1.8887,1.8806,1.8678,1.8541,1.8541,1.843,1.8263,1.8454,1.8533,1.8541,1.8686,1.8781,1.8781,1.8781,1.8781,1.8781,1.8781,1.8781,1.8765,1.8621,1.8533,1.8533,1.8533,1.843,1.8255,1.824,1.824,1.824,1.824,1.8354,1.8553,1.8444,1.8395,1.8438,1.835,1.8203,1.8,1.7991,1.8068,1.823,1.8288,1.8324,1.8528,1.8537,1.8545,0.0,0.0,0.0,0.0,0.0,0.0,0.0,0.0,0.0,0.0,0.0,1.615,1.6142,1.615,1.615,1.6142,1.615,1.615,1.615,1.6285,1.6389,1.6437,1.6516,1.6683,1.6873,1.6905,1.6992,1.7289,1.7321,1.7278,1.731,1.6953,1.6738,1.6889,1.7072,1.7191,1.7191,1.7191,1.7072,1.6738,1.6524,1.6333,1.6182,1.6142,1.6103,1.6031,1.5913,1.5754,1.5555,1.5202,1.4914,1.4821,1.4491,1.4117,1.3798,1.3395,1.3038,1.2663,1.2452,1.2305,1.9368,1.9272,1.9272,1.9272,1.928,1.8672,1.8699,1.9113,1.9117,1.9225,1.9415,1.905,1.8853,1.8891,1.8851,1.8781,1.8781,1.8781,1.8781,1.8781,1.8781,1.8781,1.8781,1.8781,1.8781,1.8781,1.8781,1.8781,1.8781,1.8781,1.8781,1.8781,1.8781,1.8781,1.8781,1.8781,1.8781,1.8781,1.8781,1.8859,1.9011,1.8998,1.8887,1.8734,1.8691,1.8485,1.8085,1.8068,1.8213,1.8562,1.8631,1.8845,1.9222,1.9342,1.9359,0.0,1.9316,0.0,0.0,0.0,0.0,0.0,0.0,0.0,0.0,1.6997,1.6824,1.6832,1.6824,1.6824,1.6824,1.6865,1.6808,1.6818,1.7088,1.7262,1.7231,1.7469,1.7703,1.7699,1.7751,1.7639,1.7432,1.7384,1.7215,1.7032,1.7183,1.7432,1.7676,1.7759,1.7759,1.7806,1.7806,1.7631,1.7366,1.7321,1.7119,1.6857,1.6673,1.6656,1.6396,1.6322,1.6221,1.5771,1.5446,1.5209,1.5006,1.475,1.4413,1.3991,1.3628,1.3296,1.275,1.2449,1.2305,1.9573,1.9279,1.9272,1.9272,1.9264,1.9192,1.9139,1.9175,1.9117,1.9357,1.9749,1.9415,1.9272,1.9248,1.8962,1.8781,1.8781,1.8781,1.8781,1.8781,1.8781,1.8781,1.8781,1.8781,1.8781,1.8781,1.8781,1.8781,1.8781,1.8781,1.8781,1.8781,1.8781,1.8781,1.8781,0.0,0.0,0.0,1.8781,1.8934,1.9128,1.9032,1.9085,1.925,1.9135,0.0,1.8502,1.8485,1.8511,1.8588,1.8938,0.0,0.0,0.0,0.0,0.0,0.0,0.0,0.0,0.0,0.0,0.0,1.9636,1.8991,1.8091,1.7752,1.7572,1.7615,1.7572,1.7572,1.758,1.7572,1.7469,1.7215,1.7231,1.7167,1.6848,1.6871,1.7032,1.7376,1.7374,1.7496,1.762,1.7727,1.7636,1.7517,1.7628,1.7743,1.7783,1.779,1.7806,1.7806,1.7806,1.779,1.7727,1.7488,1.7297,1.7159,1.6913,1.6623,1.6443,1.6245,1.6079,1.5733,1.5538,1.5362,1.5287,1.5039,1.4685,1.4275,1.395,1.3518,1.2871,1.2509,1.2305,1.972,0.0,1.939,1.9272,0.0,1.9272,1.9287,1.9272,1.9355,1.9599,1.9966,1.9724,1.9662,1.9646,1.9248,1.9098,1.909,1.8907,1.8781,1.8781,1.8781,1.8781,1.8781,1.8781,1.8781,1.8781,1.8781,1.8781,1.8781,1.8781,1.8781,1.8781,1.8781,1.8781,1.8781,1.8781,1.8781,1.8781,1.8781,1.892,1.918,1.9253,1.9342,1.9426,0.0,0.0,0.0,0.0,0.0,0.0,0.0,0.0,0.0,0.0,0.0,2.0018,1.9847,1.9788,1.9744,1.9788,1.9735,1.9735,1.9514,1.9159,1.8698,1.8411,1.8173,1.8069,1.7874,1.7806,1.7806,1.7806,1.7751,1.7591,1.756,1.7437,1.7286,1.7239,1.7318,1.752,1.7525,1.7583,1.7525,1.7568,1.7445,1.7294,1.7262,1.727,1.7294,1.7607,1.7806,1.7806,1.7806,1.7751,1.7556,1.7456,1.7199,1.704,1.6816,1.659,1.6327,1.617,1.6004,1.5665,1.5472,1.5389,1.5382,1.525,1.5066,1.4728,1.4339,1.394,1.3463,1.2948,1.2563,1.9867,1.9793,1.947,1.9272,1.9272,1.9272,1.9272,1.9331,0.0,0.0,0.0,1.9966,1.9955,1.9988,1.9654,1.9503,1.9487,1.9145,1.901,1.901,1.901,1.901,1.901,1.901,1.901,1.901,1.901,1.901,1.901,1.901,1.901,1.901,1.901,1.9002,1.9018,1.901,1.901,1.901,1.8891,1.892,1.9142,1.9387,1.9476,1.9438,1.9616,1.957,1.929,1.9281,1.9393,1.958,1.9665,1.9881,2.0163,1.9966,1.9794,1.9785,1.9547,1.941,1.9419,1.9376,1.9341,1.9281,1.9041,1.8948,1.9052,1.8795,1.8491,1.8208,1.7982,1.7806,1.7806,1.7806,1.779,1.7735,1.7727,1.7703,1.758,1.7631,1.7525,1.7588,1.7533,1.7485,1.7215,1.7183,1.708,1.6776,1.6753,1.6689,1.6761,1.7207,1.7517,1.7517,1.7607,1.7615,1.7366,1.7286,1.7159,1.6945,1.6761,1.6566,1.6245,1.6128,1.5929,1.5548,1.5431,1.5389,1.5389,1.5374,1.534,1.5131,1.4717,1.4315,1.4069,1.3479,1.2958,2.0011,1.9793,1.9463,1.9272,1.9272,1.9272,1.9272,1.9331,1.9576,1.9968,2.042,2.0128,2.0122,2.0297,2.0004,1.9845,1.9845,1.9741,1.9765,0.0,1.9765,1.9717,1.9717,1.9765,1.9765,1.9773,1.9717,1.9765,1.9765,1.9757,1.9765,1.9709,1.9717,1.9757,1.9765,1.9765,1.9765,1.975,1.9129,1.8827,1.8874,1.9142,1.9363,1.9559,1.9761,1.9774,1.9631,1.9623,1.953,1.9281,1.9564,1.9725,1.9776,2.0086,2.0215,2.0215,2.0163,2.0138,2.0129,2.0138,2.0001,1.9684,1.9324,1.9006,1.8613,1.8363,1.8077,1.7886,1.7822,1.7806,1.7806,1.7783,1.7671,1.7448,1.74,1.7239,1.6984,1.6953,1.6969,1.6984,1.684,1.6929,1.6921,1.6848,1.6881,1.6729,1.6713,1.6689,1.6705,1.6768,1.6873,1.6921,1.7151,1.7294,1.7247,1.7321,1.7215,1.7223,1.6921,1.6607,1.636,1.6203,1.5997,1.5699,1.5499,1.5423,1.5431,1.5389,1.5305,1.5131,1.4837,1.4559,1.4379,1.3858,1.3427,2.0318,1.9996,1.9674,1.9433,1.9272,1.9272,1.9272,1.9331,1.9428,1.9687,2.0034,2.0028,2.0112,2.0233,2.0006,1.9956,1.9956,1.9907,1.9909,1.9909,1.9909,1.9909,1.9909,1.9909,1.9909,1.9909,1.9909,1.9909,1.9909,1.9909,1.9909,1.9909,1.9909,1.9909,1.9909,1.9909,1.9909,1.9909,1.955,1.9391,1.9391,1.9444,1.9534,1.9635,1.9732,1.9778,1.9827,1.9819,1.9881,2.0103,2.0266,2.0446,2.0588,2.0626,2.0609,2.0609,2.0412,2.0292,2.0292,2.0292,2.0215,2.0007,1.9747,1.9423,1.912,1.8471,1.7886,1.7578,1.7334,1.7207,1.7207,1.7215,1.7223,1.7321,1.7321,1.7286,1.7302,1.7294,1.7294,1.7294,1.7294,1.7294,1.7294,1.7294,1.7207,1.7064,1.6848,1.6705,1.6705,1.6705,1.6697,1.6705,1.6881,1.6961,1.6992,1.6984,1.6984,1.6976,1.68,1.6615,1.6427,1.6278,1.6113,1.5775,1.5616,1.5541,1.5431,1.5389,1.5347,1.5257,1.495,1.4692,1.4545,1.4205,1.3734,2.0581,2.0318,1.9923,1.9625,1.9279,1.9272,1.9272,1.9272,1.9272,1.9428,1.9628,1.9879,2.0027,2.0107,2.0022,2.0008,2.0027,1.9978,1.9959,1.9951,1.9951,1.9951,1.9943,1.9951,1.9943,1.9951,1.9951,2.0,2.0008,2.0057,2.0057,2.0098,2.0106,2.0098,2.0156,2.0106,2.0098,2.0148,2.0148,2.0019,1.9917,1.9798,1.9749,1.9836,1.9741,1.9827,2.0042,2.0042,2.0315,2.0883,2.09,2.1075,2.1379,2.1148,2.1002,2.0977,2.0711,2.054,2.054,2.0417,2.0329,2.0329,2.0024,1.9708,1.9467,1.8759,1.8077,1.7682,1.7453,1.7236,1.7276,1.7228,1.7276,1.7596,1.7628,1.7763,1.7962,1.8009,1.8013,1.7922,1.7934,1.785,1.7838,1.7806,1.7652,1.7397,1.7135,1.6935,1.6919,1.6927,1.6969,1.6895,1.6808,1.6721,1.6689,1.6705,1.6713,1.6689,1.6697,1.6648,1.6517,1.6435,1.627,1.594,1.5824,1.5699,1.5548,1.5465,1.5465,1.5389,1.5082,1.4783,1.4608,1.4321,1.4003,2.0643,2.0589,2.0033,1.9625,1.9301,1.9279,1.9272,1.9272,1.9272,1.9331,1.9376,1.9628,1.9879,2.0078,2.004,2.0076,2.0069,2.0105,2.0066,2.0066,2.0089,2.0089,2.0051,2.0074,2.0097,2.0066,2.0059,2.0189,2.0358,2.044,2.0558,2.077,2.0821,2.0805,2.0805,2.0798,2.0805,2.0821,2.0821,2.0519,1.9949,1.9877,1.9966,2.0168,2.0136,2.0264,2.0456,2.0545,2.0697,2.0979,2.0979,2.114,2.1365,2.1388,2.1371,2.1371,2.1328,2.1302,2.1237,2.0776,2.053,2.0424,1.9957,1.9561,1.9361,1.9185,1.8959,1.8722,1.8661,1.848,1.8583,1.852,1.848,1.8573,1.8575,1.8654,1.867,1.8732,1.8613,1.8279,1.8335,1.8152,1.8029,1.7898,1.7803,1.7747,1.7628,1.7548,1.7556,1.7564,1.7615,1.7509,1.7175,1.6768,1.6729,1.6697,1.6721,1.6713,1.6689,1.6689,1.6607,1.6525,1.6353,1.627,1.6154,1.5955,1.5782,1.565,1.5582,1.5423,1.5215,1.4915,1.4524,1.4243,1.4057,2.0606,2.0426,2.0229,1.9878,1.9579,1.9412,1.9272,1.9272,1.9272,1.9272,1.9331,1.9428,1.9532,1.9628,1.9783,1.9887,1.9879,2.0027,2.0138,2.0138,2.0138,2.0138,2.0138,2.0138,2.0138,2.0138,2.0138,2.013,2.0248,2.0241,2.0292,2.0454,2.0557,2.0668,2.0668,2.0822,2.0925,2.0925,2.0925,2.0774,2.0504,2.0281,2.0227,2.031,2.0134,2.0111,2.0313,2.0362,2.0605,2.1056,2.1121,2.1278,2.1569,2.1578,2.1578,2.1578,2.1578,2.1578,2.1578,2.1345,2.1229,2.1221,2.0786,2.05,2.0443,2.0304,2.0157,1.9971,1.932,1.8781,1.8805,1.8789,1.8907,1.909,1.9153,1.9225,1.9423,1.9439,1.9368,1.9241,1.9225,1.9169,1.9025,1.8645,1.8335,1.8112,1.7974,1.7846,1.7822,1.7806,1.7806,1.7783,1.7509,1.7286,1.7104,1.7056,1.6969,1.6761,1.6689,1.6689,1.6705,1.6656,1.6558,1.6435,1.636,1.6203,1.5997,1.5775,1.565,1.5499,1.5124,1.4776,1.4475,1.4237,1.4124,2.0487,2.0295,2.0202,2.002,1.9779,1.9539,1.9439,1.9463,1.9463,1.9419,1.9279,1.9272,1.9272,1.9324,1.9524,1.9583,1.9628,1.9783,1.9879,1.9879,1.9879,1.9887,1.9879,1.9879,1.9879,1.9879,1.9879,1.9931,1.9975,2.0086,2.0138,2.0138,2.03,2.0403,2.0411,2.0609,2.0719,2.0771,2.0763,2.0822,2.0826,2.067,2.0535,2.0519,2.0289,2.0253,2.0359,2.0409,2.0628,2.1187,2.1204,2.1361,2.165,2.1674,2.1674,2.1674,2.1674,2.1674,2.1674,2.1623,2.1573,2.1573,2.1326,2.1173,2.1173,2.1027,2.0925,2.0813,1.9908,1.932,1.9344,1.9399,1.9526,1.9765,1.9797,1.9908,2.0122,2.0154,2.0106,2.0076,1.9877,1.9821,1.9542,1.9098,1.8684,1.8462,1.824,1.8057,1.8057,1.8089,1.8089,1.8065,1.8065,1.7866,1.756,1.7413,1.7262,1.7143,1.7064,1.7048,1.6921,1.6889,1.6745,1.6637,1.6515,1.6402,1.6196,1.5982,1.5692,1.5533,1.52,1.4776,1.4566,1.4328,1.4166,2.0321,2.0265,1.9934,1.9856,1.9785,1.975,1.974,1.9747,1.9793,1.9579,1.9345,1.9316,1.9286,1.9316,1.939,1.9338,1.9338,1.942,1.9442,1.9435,1.9413,1.9338,1.9331,1.9331,1.9324,1.9428,1.9472,1.9561,1.9754,1.9939,2.0138,2.0078,2.0138,2.0138,2.0138,2.0138,2.0292,2.0514,2.0522,2.0617,2.0873,2.0893,2.0818,2.0861,2.0861,2.0821,2.0837,2.0861,2.0971,2.1293,2.1277,2.1404,2.1623,2.1666,2.1674,2.1674,2.1674,2.1674,2.1623,2.1479,2.131,2.1251,2.1081,2.0893,2.0872,2.0813,2.0821,2.0877,2.0424,2.0289,2.0543,2.044,2.0559,2.0639,2.0742,2.0734,2.0782,2.0655,2.0686,2.0361,2.0035,1.9654,1.9034,1.8805,1.8797,1.8742,1.8756,1.8724,1.8669,1.8708,1.87,1.8692,1.8661,1.8533,1.793,1.7755,1.779,1.7631,1.7469,1.7564,1.7397,1.7223,1.7048,1.6848,1.6767,1.6637,1.6425,1.6154,1.5873,1.5582,1.5291,1.4957,1.4657,1.4482,1.4321,1.9982,1.9954,1.9884,1.9801,1.98,1.9782,1.9804,1.9798,2.0008,2.0003,1.9908,1.9886,1.9886,1.9894,1.9894,1.9777,1.9623,1.9798,1.9894,1.9864,1.9689,1.9639,1.9617,1.9434,1.9272,1.9301,1.9484,1.9692,1.9715,1.9688,1.9576,1.9628,1.9776,1.9828,1.9879,2.0034,2.0138,2.0248,2.0248,2.0351,2.0617,2.0624,2.0719,2.0865,2.0925,2.0925,2.0925,2.0925,2.0976,2.1019,2.107,2.107,2.1173,2.1173,2.1173,2.1173,2.1173,2.1173,2.1165,2.1121,2.0966,2.0758,2.0633,2.048,2.0297,2.0249,2.0249,2.0226,2.0162,2.0138,2.0243,2.0241,2.0249,2.0249,2.0249,2.0273,2.0241,2.0249,2.0194,2.0067,1.9965,1.9669,1.9288,1.9177,1.9082,1.8829,1.8781,1.8781,1.8781,1.8781,1.8781,1.8781,1.8773,1.8702,1.8504,1.8232,1.8057,1.7894,1.7775,1.7767,1.7663,1.7639,1.7469,1.7199,1.708,1.6927,1.668,1.6268,1.5978,1.5665,1.5374,1.5041,1.4741,1.4566,1.4363,1.9649,1.9666,1.9654,1.9735,1.9821,1.9808,1.9828,1.9854,2.0123,2.0175,2.0095,2.0183,2.0183,2.0205,2.034,2.0289,2.0091,2.0194,2.0183,2.0168,2.0011,1.9923,1.9886,1.9689,1.9528,1.9455,1.9535,1.9698,1.9786,1.9595,1.9491,1.9586,1.979,1.9843,1.9888,2.0046,2.0114,2.012,2.015,2.0216,2.0382,2.047,2.0573,2.0771,2.0873,2.0925,2.0925,2.0925,2.0925,2.0925,2.0925,2.0869,2.0758,2.0647,2.0575,2.0583,2.0575,2.0583,2.0583,2.0583,2.0472,2.0249,2.0218,2.0106,1.9933,1.9909,1.9909,1.9901,1.9797,1.9757,1.9726,1.9654,1.9614,1.9837,1.9909,1.9909,1.9909,1.9917,1.9877,1.9781,1.9742,1.9534,1.928,1.9201,1.9066,1.8805,1.8781,1.8781,1.8781,1.8781,1.8781,1.8781,1.8781,1.8781,1.8678,1.8541,1.8454,1.8271,1.8152,1.8073,1.7998,1.7946,1.7826,1.7548,1.735,1.7173,1.6847,1.6402,1.6076,1.5805,1.5499,1.5173,1.4915,1.465,1.4447,1.9424,1.9424,1.9424,1.9564,1.9768,1.9798,1.9789,1.9836,2.0174,2.0199,2.0005,2.0132,2.03,2.03,2.0611,2.0713,2.0647,2.045,2.0292,2.027,2.0267,2.0237,2.0183,2.011,2.0033,1.9806,1.9529,1.9558,1.9791,1.9845,1.9894,2.0135,2.0128,2.0113,2.0201,2.0182,2.0187,2.0187,2.0173,2.0189,2.0139,2.0392,2.0548,2.062,2.081,2.0905,2.0925,2.0925,2.0925,2.0925,2.0925,2.0758,2.0488,2.0186,1.9988,2.0003,1.9932,1.9949,1.9957,1.9988,2.002,1.9917,1.9917,1.9885,1.9789,1.9789,1.9797,1.9742,1.9566,1.9368,1.9312,1.9113,1.9145,1.9757,1.9789,1.9781,1.9821,1.9869,1.9773,1.9495,1.9368,1.9217,1.8955,1.8883,1.8821,1.8805,1.8781,1.8781,1.8781,1.8781,1.8781,1.8781,1.8781,1.8781,1.8781,1.8773,1.8758,1.8726,1.8639,1.8544,1.8375,1.8295,1.8136,1.789,1.7652,1.7458,1.7199,1.6749,1.6255,1.591,1.5622,1.5327,1.5041,1.4783,1.4566,1.9424,1.9424,1.9424,1.9424,1.9533,1.97,1.9805,1.9844,2.0359,2.053,2.05,2.0727,2.0911,2.0918,2.102,2.1057,2.105,2.0947,2.0903,2.0852,2.0669,2.0518,2.053,2.0285,2.0311,2.0355,2.0091,1.9981,2.0062,2.0091,2.0055,1.9967,2.015,2.0183,2.0197,2.0176,2.0219,2.0214,2.0192,2.0288,2.0414,2.0513,2.0628,2.0851,2.0924,2.0979,2.0889,2.0925,2.0925,2.0925,2.0925,2.0869,2.071,2.0424,2.0234,2.0194,2.0036,1.9909,1.9909,1.9893,1.9797,1.963,1.9574,1.9391,1.9193,1.9177,1.9185,1.9161,1.905,1.8994,1.897,1.8907,1.897,1.9129,1.9145,1.9193,1.9248,1.9217,1.9105,1.9026,1.9002,1.8939,1.8813,1.8781,1.8781,1.8781,1.8781,1.8781,1.8781,1.8781,1.8781,1.8781,1.8781,1.8781,1.8781,1.8781,1.8781,1.8781,1.8773,1.8765,1.8615,1.8557,1.8398,1.8224,1.7985,1.7735,1.7423,1.7005,1.6507,1.6136,1.5846,1.5513,1.5202,1.4915,1.4699,1.9424,1.9424,1.9424,1.9424,1.9424,1.9591,1.9649,1.97,2.0155,2.0429,2.0608,2.0895,2.1089,2.1211,2.1211,2.1211,2.1211,2.1211,2.1211,2.1181,2.102,2.0911,2.0859,2.0574,2.0508,2.057,2.0336,2.0249,2.0358,2.0358,2.0318,2.0201,2.0442,2.0482,2.0394,2.0537,2.0504,2.0387,2.042,2.0417,2.0471,2.055,2.0677,2.0872,2.1055,2.1151,2.1105,2.1254,2.1187,2.0948,2.0805,2.0726,2.0702,2.0392,2.0202,2.0154,2.0052,1.9869,1.9757,1.9702,1.9526,1.9248,1.9169,1.909,1.8837,1.8781,1.8781,1.8781,1.8789,1.8781,1.8797,1.897,1.9018,1.9034,1.8923,1.8899,1.8986,1.9145,1.9153,1.9129,1.9058,1.897,1.8867,1.8781,1.8781,1.8781,1.8781,1.8781,1.8781,1.8781,1.8781,1.8781,1.8781,1.8781,1.8781,1.8781,1.8781,1.8781,1.8781,1.8781,1.871,1.8694,1.8645,1.8494,1.8279,1.7971,1.7702,1.719,1.6716,1.6415,1.6104,1.5773,1.5439,1.5091,1.4846,1.9424,1.9424,1.9424,1.9424,1.9424,1.9424,1.9424,1.9424,1.97,2.004,2.0328,2.0608,2.0902,2.1146,2.1211,2.1211,2.1211,2.1211,2.1211,2.1211,2.1167,2.1159,2.1108,2.0874,2.0779,2.0742,2.0501,2.0416,2.0599,2.0664,2.0679,2.0676,2.0925,2.102,2.073,2.102,2.0976,2.0713,2.072,2.0611,2.0369,2.0552,2.0672,2.0696,2.1178,2.1457,2.1486,2.1723,2.1661,2.1052,2.0798,2.0694,2.0496,2.0162,2.0156,2.0138,1.9979,1.9901,1.9638,1.9685,1.9534,1.9272,1.9233,1.89,1.9106,1.9169,1.9074,1.9051,1.9026,1.8955,1.9018,1.9201,1.9376,1.936,1.9169,1.9145,1.9368,1.9638,1.9662,1.9495,1.9423,1.9288,1.9026,1.8986,1.897,1.8962,1.8955,1.8931,1.8899,1.8915,1.8797,1.8781,1.8789,1.8781,1.8781,1.8781,1.8781,1.8781,1.8781,1.8781,1.8781,1.8781,1.8781,1.8639,1.852,1.8218,1.7926,1.7478,1.7096,1.6749,1.6432,1.6066,1.5741,1.544,1.5198,1.9424,1.9424,1.9424,1.9424,1.9424,1.9424,1.9424,1.9424,1.97,1.9982,2.027,2.0608,2.0845,2.1203,2.1211,2.1211,2.1211,2.1211,2.1211,2.1211,2.1211,2.1211,2.1203,2.113,2.1072,2.105,2.094,2.0881,2.075,2.0955,2.0933,2.0735,2.1035,2.105,2.0823,2.1042,2.102,2.0808,2.0976,2.1028,2.094,2.0967,2.0984,2.0985,2.1357,2.1564,2.1565,2.1796,2.1955,2.1719,2.1608,2.1597,2.1501,2.1171,2.0964,2.0941,2.0766,2.0607,2.0519,2.0488,2.044,2.0392,2.0226,2.0369,2.0319,2.0114,2.0003,1.9932,1.9765,1.9574,1.9598,1.9677,1.9781,1.9773,1.9654,1.963,1.9765,1.9837,1.9869,1.9797,1.9789,1.971,1.9574,1.9526,1.9526,1.9495,1.9368,1.9217,1.9193,1.905,1.901,1.8837,1.8797,1.8789,1.8781,1.8781,1.8781,1.8781,1.8781,1.8781,1.8781,1.8781,1.8781,1.8734,1.864,1.8415,1.8177,1.7864,1.7492,1.7049,1.6677,1.6323,1.6213,1.5951,1.574,1.9424,1.9424,1.9424,1.9424,1.9424,1.9424,1.9424,1.9424,1.954,1.9815,2.0097,2.0378,2.0723,2.0967,2.1146,2.1211,2.1211,2.1211,2.1211,2.1211,2.1211,2.1211,2.1211,2.1211,2.1211,2.1211,2.1211,2.1101,2.0984,2.113,2.102,2.0837,2.105,2.1035,2.0764,2.1028,2.105,2.0759,2.0861,2.1006,2.1006,2.1006,2.107,2.1185,2.1481,2.1704,2.193,2.2245,2.2291,2.2099,2.2003,2.2011,2.1995,2.1783,2.1663,2.1655,2.1465,2.1306,2.1111,2.1095,2.1016,2.0897,2.0925,2.0925,2.0861,2.0718,2.0615,2.0559,2.0289,2.0122,2.0091,2.0091,2.0162,2.0289,2.0305,2.0249,2.0106,2.0241,2.0218,2.0146,2.0132,2.006,1.9949,1.9925,1.9917,1.9869,1.9734,1.9606,1.9558,1.936,1.9225,1.9169,1.9082,1.909,1.9034,1.9002,1.8876,1.8853,1.8781,1.8781,1.8781,1.8781,1.8781,1.8781,1.8697,1.8589,1.8272,1.798,1.7604,1.7203,1.6831,1.6653,1.6534,1.6424,1.6186,1.9424,1.9424,1.9424,1.9424,1.9424,1.9424,1.9424,1.9424,1.9424,1.9591,1.9873,2.0155,2.0493,2.0716,2.1081,2.1211,2.1211,2.1211,2.1211,2.1211,2.1218,2.1233,2.1313,2.1233,2.1211,2.1211,2.1211,2.1196,2.1159,2.1196,2.1064,2.0933,2.1101,2.1013,2.0845,2.1042,2.102,2.073,2.0694,2.0786,2.0757,2.0728,2.075,2.0967,2.1368,2.1835,2.235,2.2718,2.2648,2.21,2.2123,2.2186,2.2162,2.2084,2.2092,2.2162,2.2084,2.1949,2.1711,2.1658,2.1499,2.137,2.129,2.1139,2.1282,2.1274,2.1203,2.1211,2.0774,2.0647,2.0535,2.0496,2.0551,2.0734,2.0853,2.0742,2.0599,2.0726,2.0798,2.0512,2.0448,2.0281,2.0148,2.002,2.0003,2.0234,2.0083,2.0004,1.9876,1.9717,1.9662,1.971,1.9598,1.9463,1.9312,1.9201,1.9082,1.8994,1.8821,1.8781,1.8781,1.8781,1.8781,1.8781,1.8697,1.8465,1.821,1.7902,1.7615,1.737,1.7049,1.6983,1.6894,1.6799,1.6566,1.9424,1.9424,1.9424,1.9424,1.9424,1.9424,1.9424,1.9424,1.9424,1.9533,1.9815,2.0162,2.0436,2.0716,2.1024,2.1211,2.1211,2.1211,2.1211,2.1211,2.1211,2.1372,2.1474,2.1372,2.124,2.1247,2.1225,2.1225,2.124,2.1284,2.1196,2.1167,2.1218,2.1064,2.0881,2.113,2.1057,2.073,2.0686,2.0764,2.0698,2.0516,2.038,2.0523,2.0992,2.16,2.2123,2.2542,2.271,2.2767,2.272,2.2609,2.2649,2.2672,2.2641,2.2625,2.2688,2.268,2.2649,2.2466,2.2561,2.2386,2.2283,2.2569,2.2545,2.2196,2.2108,2.2077,2.1892,2.1385,2.1115,2.0925,2.0853,2.0893,2.0917,2.0893,2.0837,2.0869,2.0861,2.0813,2.0782,2.0774,2.0686,2.0623,2.0615,2.0639,2.0496,2.0321,2.0202,2.014,2.0124,2.0091,1.9957,1.9813,1.9742,1.955,1.9383,1.9217,1.905,1.8939,1.8931,1.8781,1.8781,1.8743,1.8658,1.8419,1.8133,1.79,1.7606,1.7436,1.7267,1.7194,1.7106,1.704,1.6943,1.9424,1.9424,1.9424,1.9424,1.9424,1.9424,1.9424,1.9424,1.9424,1.9482,1.9707,2.0104,2.0378,2.0558,2.0967,2.1211,2.1211,2.1211,2.1211,2.1247,2.1342,2.1533,2.1679,2.1701,2.1672,2.1657,2.1679,2.1672,2.1664,2.165,2.1701,2.1664,2.1657,2.1642,2.1437,2.1554,2.1503,2.1269,2.1174,2.1115,2.0933,2.064,2.0355,2.0329,2.0681,2.1203,2.1618,2.197,2.2229,2.2466,2.2529,2.2609,2.2696,2.2609,2.2537,2.2521,2.2521,2.2521,2.2506,2.2521,2.2466,2.2537,2.2521,2.2521,2.2498,2.2331,2.2314,2.2218,2.1894,2.156,2.119,2.1068,2.0933,2.0925,2.0925,2.0925,2.0925,2.0925,2.0925,2.0925,2.0901,2.0901,2.0917,2.0925,2.0901,2.0774,2.0774,2.0623,2.0639,2.0543,2.0496,2.0448,2.0249,2.0114,2.0124,1.998,1.9773,1.9534,1.9336,1.9225,1.9161,1.9002,1.8781,1.8743,1.8658,1.8373,1.8141,1.7861,1.7628,1.7412,1.7264,1.7279,1.725,1.7201,1.714,1.9424,1.9424,1.9424,1.9424,1.9424,1.9424,1.9424,1.9424,1.9424,1.9424,1.9482,1.9989,2.0213,2.0443,2.0852,2.1089,2.1203,2.1211,2.1211,2.124,2.1415,2.1576,2.1723,2.1942,2.214,2.2235,2.2132,2.2118,2.2118,2.2176,2.2059,2.214,2.2154,2.2052,2.2125,2.2154,2.1986,2.1745,2.1628,2.1518,2.1269,2.0962,2.0662,2.0476,2.0707,2.0901,2.1184,2.1456,2.1759,2.1911,2.191,2.2045,2.2164,2.2202,2.2011,2.2035,2.2099,2.2123,2.2147,2.2091,2.2075,2.2011,2.2035,2.2035,2.2051,2.2075,2.2067,2.1886,2.1695,2.1341,2.1,2.0956,2.0941,2.0925,2.0925,2.0925,2.0925,2.0925,2.0925,2.0925,2.0925,2.0925,2.0925,2.0925,2.0925,2.0925,2.0925,2.0925,2.0925,2.0901,2.0798,2.075,2.0567,2.0488,2.0448,2.0226,2.0035,1.9892,1.9669,1.9487,1.9383,1.9201,1.9018,1.8767,1.8604,1.8373,1.8141,1.7861,1.7628,1.738,1.7286,1.7286,1.7286,1.7286,1.7286,1.9424,1.9424,1.9424,1.9424,1.9424,1.9424,1.9424,1.9424,1.9424,1.9424,1.9424,1.9758,2.0046,2.0328,2.0608,2.0902,2.1146,2.1211,2.1211,2.1218,2.135,2.1474,2.1737,2.203,2.2279,2.2425,2.233,2.2198,2.2242,2.2184,2.2293,2.222,2.2235,2.2242,2.2257,2.2191,2.225,2.2147,2.1972,2.1789,2.162,2.1306,2.0969,2.0698,2.0906,2.0948,2.0948,2.1298,2.1611,2.165,2.1536,2.1555,2.1671,2.1806,2.1924,2.1916,2.19,2.1876,2.1892,2.1955,2.1987,2.2011,2.1939,2.1955,2.1963,2.1963,2.1884,2.1783,2.1608,2.1341,2.1317,2.1076,2.0941,2.0925,2.0925,2.0925,2.0925,2.0925,2.0925,2.0925,2.0925,2.0925,2.0925,2.0925,2.0925,2.0925,2.0925,2.0925,2.0925,2.0925,2.0885,2.0877,2.0869,2.0845,2.0829,2.0543,2.0313,2.0241,2.0035,1.9725,1.959,1.9455,1.9233,1.9011,1.8714,1.8465,1.8195,1.7962,1.7675,1.7481,1.738,1.7333,1.7286,1.7286,1.7286,1.9506,1.943,1.9424,1.9424,1.9424,1.9424,1.9424,1.9424,1.9424,1.9424,1.9475,1.97,1.9982,2.0328,2.0608,2.0902,2.1153,2.1211,2.1211,2.1225,2.1386,2.1525,2.1745,2.2037,2.2228,2.2323,2.225,2.2389,2.263,2.2674,2.2623,2.2667,2.2659,2.2659,2.2659,2.2689,2.2652,2.2593,2.2484,2.2315,2.2132,2.1737,2.1328,2.1101,2.0962,2.094,2.0985,2.1112,2.1348,2.1316,2.1386,2.1317,2.1262,2.133,2.1441,2.1457,2.1457,2.1433,2.1433,2.1425,2.1401,2.1409,2.1433,2.1417,2.1425,2.1393,2.1465,2.1401,2.1338,2.1127,2.1095,2.102,2.0941,2.0925,2.0925,2.0925,2.0925,2.0925,2.0925,2.0925,2.0925,2.0925,2.0925,2.0925,2.0925,2.0925,2.0925,2.0925,2.0925,2.0925,2.0925,2.0925,2.0925,2.0925,2.0925,2.0766,2.0575,2.0512,2.0392,2.0083,1.9876,1.9733,1.9487,1.9241,1.8949,1.8644,1.8427,1.8249,1.7908,1.7621,1.7574,1.7527,1.738,1.7286,1.7333,1.9666,1.9511,1.9392,1.9424,1.9424,1.9424,1.9424,1.9424,1.9424,1.9424,1.9424,1.9649,1.9873,2.0233,2.0622,2.1011,2.132,2.1379,2.1459,2.1511,2.1679,2.1803,2.1884,2.2081,2.2315,2.2374,2.2462,2.2586,2.2806,2.2886,2.3003,2.3018,2.3076,2.3106,2.3062,2.3003,2.3106,2.3106,2.3098,2.2959,2.2652,2.225,2.1825,2.1525,2.124,2.1229,2.1237,2.1249,2.1276,2.1264,2.1313,2.1344,2.1143,2.1068,2.0976,2.0968,2.0972,2.0933,2.0948,2.0921,2.1036,2.1044,2.0956,2.0941,2.0956,2.1036,2.098,2.0925,2.0941,2.0956,2.098,2.0933,2.0925,2.0925,2.0925,2.0925,2.0925,2.0925,2.0925,2.0925,2.0925,2.0925,2.0925,2.0925,2.0925,2.0925,2.0925,2.0925,2.0925,2.0925,2.0925,2.0925,2.0925,2.0925,2.0925,2.0925,2.0798,2.0758,2.0647,2.0432,2.0265,2.0122,1.9828,1.9534,1.9217,1.8918,1.873,1.8489,1.8148,1.7908,1.7815,1.7714,1.7527,1.7426,1.7426,1.978,1.9726,1.9472,1.9424,1.9424,1.9424,1.9424,1.9424,1.9424,1.9424,1.9464,1.9437,1.9676,2.0092,2.0819,2.1314,2.1649,2.1862,2.195,2.1957,2.2037,2.2074,2.214,2.2432,2.2454,2.2476,2.274,2.2828,2.2791,2.2732,2.2842,2.3018,2.3025,2.3091,2.3032,2.3032,2.3106,2.3106,2.3106,2.3076,2.3018,2.2901,2.2681,2.2476,2.2286,2.2037,2.17,2.1656,2.1553,2.1568,2.1527,2.1633,2.1737,2.1536,2.1373,2.1246,2.1087,2.0925,2.0925,2.0925,2.0925,2.0925,2.0925,2.0925,2.0925,2.0925,2.0925,2.0925,2.0925,2.0925,2.0925,2.0925,2.0925,2.0925,2.0925,2.0925,2.0925,2.0925,2.0925,2.0925,2.0925,2.0925,2.0925,2.0925,2.0925,2.0925,2.0925,2.0925,2.0925,2.0925,2.0925,2.0925,2.0925,2.0925,2.0925,2.0925,2.0925,2.0925,2.0829,2.071,2.0575,2.0392,2.0186,1.9884,1.955,1.9209,1.8855,1.8621,1.8365,1.8241,1.8094,1.7908,1.7721,1.7628,1.7527,2.01,1.9793,1.9666,1.9512,1.943,1.9424,1.9424,1.9424,1.9424,1.9459,1.9593,1.9619,1.9988,2.0597,2.1246,2.1653,2.1941,2.2147,2.2184,2.2213,2.2213,2.2198,2.2198,2.2308,2.2367,2.2476,2.2513,2.2586,2.2571,2.2637,2.2725,2.2791,2.2703,2.2659,2.2813,2.2835,2.2952,2.3047,2.3106,2.3106,2.3106,2.3098,2.304,2.2893,2.2725,2.2476,2.228,2.2216,2.218,2.2135,2.2129,2.2119,2.2173,2.1949,2.1735,2.1703,2.1417,2.1095,2.0913,2.0941,2.0925,2.0925,2.0925,2.0925,2.0925,2.0925,2.0925,2.0925,2.0925,2.0925,2.0925,2.0925,2.0925,2.0925,2.0925,2.0925,2.0925,2.0925,2.0925,2.0925,2.0925,2.0925,2.0925,2.0925,2.0925,2.0925,2.0925,2.0925,2.0925,2.0925,2.0925,2.0925,2.0925,2.0925,2.0925,2.0925,2.0925,2.0925,2.0925,2.0821,2.0782,2.0631,2.044,2.0305,2.0075,1.9653,1.9131,1.8816,1.8629,1.8504,1.8334,1.8148,1.7955,1.7721,1.7574,2.0481,2.0013,1.994,1.978,1.9586,1.9586,1.9599,1.9593,1.9599,1.9713,1.986,1.9913,2.0333,2.1053,2.1491,2.1857,2.218,2.2367,2.241,2.2418,2.2418,2.2447,2.2498,2.2476,2.2476,2.241,2.2571,2.2645,2.2703,2.2681,2.263,2.2615,2.2528,2.2418,2.2469,2.2528,2.2615,2.2769,2.2806,2.2857,2.2937,2.2967,2.3025,2.2996,2.2893,2.2747,2.2696,2.2614,2.2587,2.2813,2.2709,2.271,2.2886,2.2672,2.2474,2.2355,2.2061,2.1679,2.1393,2.1195,2.098,2.0925,2.0925,2.0925,2.0925,2.0925,2.0925,2.0925,2.0925,2.0925,2.0925,2.0925,2.0925,2.0925,2.0925,2.0925,2.0925,2.0925,2.0925,2.0925,2.0925,2.0925,2.0925,2.0925,2.0925,2.0925,2.0925,2.0925,2.0925,2.0925,2.0925,2.0925,2.0925,2.0925,2.0925,2.0925,2.0925,2.0925,2.0925,2.0909,2.0861,2.0837,2.0726,2.0607,2.048,2.0194,1.9668,1.9288,1.8892,1.8698,1.8512,1.8427,1.8241,1.7955,1.7675,2.0902,2.0595,2.0321,2.0187,2.014,2.0174,2.0093,2.01,2.0134,2.0154,2.0201,2.0221,2.0443,2.0875,2.1455,2.1867,2.2173,2.2784,2.2875,2.2967,2.304,2.2945,2.2923,2.2915,2.2959,2.2967,2.2908,2.2945,2.2988,2.2776,2.2689,2.2601,2.2425,2.2359,2.2323,2.2301,2.2293,2.2389,2.2389,2.2484,2.2601,2.2689,2.2784,2.2996,2.3054,2.3069,2.304,2.2735,2.2818,2.3262,2.3045,2.322,2.3399,2.326,2.3085,2.295,2.2545,2.2227,2.2029,2.1433,2.0937,2.0933,2.0925,2.0925,2.0925,2.0925,2.0925,2.0925,2.0925,2.0925,2.0925,2.0925,2.0925,2.0925,2.0925,2.0925,2.0925,2.0925,2.0925,2.0925,2.0925,2.0925,2.0925,2.0925,2.0925,2.0925,2.0925,2.0925,2.0925,2.0925,2.0925,2.0925,2.0925,2.0925,2.0925,2.0925,2.0925,2.0925,2.0925,2.0925,2.0909,2.0893,2.0869,2.0798,2.0639,2.0456,2.0249,1.9805,1.9383,1.8948,1.8735,1.8558,1.8381,1.8148,1.7869,2.1042,2.0929,2.0815,2.0561,2.0173,2.0173,2.0173,2.0173,2.0173,2.0347,2.0521,2.0681,2.0955,2.1231,2.1465,2.1936,2.2379,2.2596,2.2911,2.3043,2.3106,2.3106,2.3106,2.3106,2.3098,2.3106,2.3106,2.3106,2.3069,2.2937,2.2776,2.2615,2.2345,2.2191,2.2118,2.2132,2.2132,2.2154,2.2162,2.2264,2.2301,2.2352,2.2418,2.2513,2.2542,2.2542,2.2498,2.2418,2.2781,2.3051,2.2994,2.3255,2.3652,2.3417,2.3348,2.3219,2.2815,2.2601,2.2418,2.1759,2.1135,2.0941,2.0925,2.0948,2.1004,2.0948,2.0925,2.0925,2.0964,2.102,2.0941,2.0933,2.0925,2.0925,2.0956,2.0988,2.0972,2.0996,2.0933,2.0941,2.0933,2.0925,2.0925,2.0925,2.0925,2.0925,2.0925,2.0925,2.0925,2.0925,2.0925,2.0925,2.0925,2.0925,2.0925,2.0925,2.0925,2.0925,2.0925,2.0925,2.0925,2.0917,2.0893,2.0853,2.0805,2.0631,2.0432,2.0186,1.9789,1.9272,1.8932,1.8697,1.852,1.8295,1.8102,2.1102,2.1102,2.1102,2.0875,2.0514,2.0433,2.0433,2.0494,2.0508,2.0595,2.0822,2.1029,2.1235,2.1418,2.1601,2.1783,2.2208,2.2473,2.2731,2.2918,2.3043,2.3106,2.3106,2.3106,2.3106,2.3106,2.3106,2.3106,2.3106,2.3106,2.2981,2.2689,2.2271,2.2162,2.1935,2.1935,2.1898,2.1891,2.1898,2.1979,2.2001,2.2037,2.214,2.2191,2.2242,2.225,2.2257,2.2295,2.2572,2.2848,2.2999,2.3162,2.3386,2.3491,2.3348,2.3197,2.3022,2.2791,2.2609,2.2069,2.1528,2.1354,2.1298,2.1282,2.1227,2.1227,2.1338,2.1298,2.1266,2.1219,2.1203,2.1306,2.1338,2.1409,2.1393,2.1401,2.1227,2.1119,2.1044,2.0956,2.0941,2.0933,2.0933,2.0933,2.0933,2.0933,2.0925,2.0925,2.0925,2.0925,2.0925,2.0925,2.0925,2.0925,2.0925,2.0925,2.0925,2.0925,2.0925,2.0925,2.0925,2.0925,2.0925,2.0893,2.0845,2.0774,2.0615,2.0392,1.9955,1.9455,1.9122,1.8783,1.8651,1.8473,1.8342,2.1102,2.1102,2.1102,2.1089,2.1022,2.1076,2.1049,2.0989,2.1009,2.1029,2.1049,2.1102,2.1102,2.1229,2.1418,2.1607,2.1866,2.2299,2.2543,2.2668,2.2918,2.3043,2.3128,2.3135,2.3208,2.3128,2.3223,2.3281,2.3201,2.3281,2.3193,2.3084,2.2806,2.2337,2.1774,2.1408,2.1269,2.1262,2.1328,2.1489,2.165,2.1708,2.184,2.1964,2.2008,2.1986,2.1986,2.2045,2.2379,2.2754,2.293,2.3169,2.3695,2.3769,2.3803,2.3745,2.3522,2.3362,2.3338,2.2482,2.2075,2.1884,2.1735,2.1814,2.1932,2.1947,2.1868,2.1711,2.182,2.1876,2.1924,2.1924,2.1868,2.1836,2.1751,2.1703,2.152,2.1433,2.133,2.1282,2.1091,2.0948,2.0948,2.0948,2.0948,2.0941,2.0925,2.0925,2.0925,2.0925,2.0925,2.0925,2.0925,2.0925,2.0925,2.0925,2.0925,2.0925,2.0925,2.0925,2.0925,2.0925,2.0925,2.0925,2.0893,2.0845,2.0742,2.0615,2.017,1.9733,1.9209,1.8876,1.8783,1.8658,1.852,2.1102,2.1102,2.1102,2.1102,2.1102,2.1102,2.1102,2.1102,2.1102,2.1102,2.1102,2.1102,2.1102,2.1166,2.1235,2.1418,2.1607,2.1734,2.2041,2.2606,2.2731,2.2918,2.3094,2.331,2.3413,2.3493,2.3588,2.3706,2.3779,2.3684,2.3727,2.3676,2.3332,2.2806,2.2169,2.1723,2.154,2.1503,2.1379,2.1276,2.1379,2.1415,2.1459,2.1598,2.1591,2.1598,2.1613,2.1803,2.2145,2.2528,2.2651,2.3048,2.3385,2.3435,2.3411,2.3395,2.3213,2.3197,2.3116,2.2736,2.2434,2.229,2.2242,2.2204,2.2083,2.2212,2.221,2.2131,2.2162,2.2139,2.1987,2.1995,2.1971,2.1955,2.1939,2.1932,2.1791,2.1844,2.1796,2.1735,2.1616,2.1401,2.1322,2.1266,2.1234,2.1091,2.1068,2.0956,2.0925,2.0925,2.0925,2.0925,2.0925,2.0925,2.0925,2.0925,2.0925,2.0925,2.0925,2.0925,2.0925,2.0925,2.0925,2.0925,2.0925,2.0909,2.0813,2.0678,2.0424,2.0019,1.9582,1.9248,1.9154,1.8949,1.8651,2.1102,2.1102,2.1102,2.1102,2.1102,2.1102,2.1102,2.1102,2.1102,2.1102,2.1102,2.1102,2.1102,2.1102,2.1109,2.1179,2.1418,2.1607,2.1734,2.2292,2.255,2.2817,2.3151,2.343,2.3632,2.3779,2.394,2.4057,2.402,2.4064,2.4042,2.3969,2.3866,2.3464,2.2893,2.255,2.2228,2.2176,2.2023,2.1745,2.1657,2.1511,2.135,2.1291,2.1247,2.124,2.1283,2.1504,2.1839,2.2116,2.24,2.2747,2.2909,2.3014,2.3014,2.3014,2.3014,2.3022,2.3014,2.3014,2.2704,2.2458,2.2577,2.2609,2.2537,2.2791,2.276,2.2649,2.2474,2.241,2.2363,2.2393,2.2354,2.2354,2.2283,2.2291,2.2148,2.2194,2.2115,2.2069,2.2051,2.1822,2.1695,2.1632,2.1576,2.1385,2.1211,2.1091,2.0913,2.0933,2.0925,2.0925,2.0925,2.0925,2.0925,2.0925,2.0925,2.0925,2.0925,2.0925,2.0925,2.0925,2.0925,2.0925,2.0925,2.0909,2.0877,2.0742,2.0591,2.04,2.0106,1.982,1.9646,1.9312,1.8941,2.1102,2.1102,2.1102,2.1102,2.1102,2.1102,2.1102,2.1102,2.1102,2.1102,2.1102,2.1102,2.1102,2.1102,2.1102,2.1102,2.1172,2.1418,2.1607,2.1824,2.2244,2.2645,2.3134,2.3484,2.3839,2.4049,2.4203,2.4335,2.4166,2.4276,2.4269,2.4203,2.4225,2.4064,2.3815,2.3545,2.3171,2.2937,2.2623,2.2374,2.2213,2.1979,2.1774,2.162,2.1503,2.1423,2.1487,2.1643,2.1877,2.2139,2.2456,2.2732,2.2901,2.3014,2.3014,2.3014,2.3014,2.3014,2.3014,2.3014,2.3006,2.2815,2.2911,2.3181,2.3276,2.3252,2.3236,2.3187,2.3181,2.3141,2.3101,2.3022,2.295,2.2927,2.2895,2.2768,2.2561,2.245,2.2339,2.2275,2.2242,2.2131,2.2067,2.1957,2.191,2.1703,2.1505,2.1306,2.1163,2.0889,2.0881,2.0925,2.0925,2.0925,2.0925,2.0925,2.0925,2.0925,2.0925,2.0925,2.0925,2.0925,2.0925,2.0925,2.0925,2.0909,2.0893,2.0893,2.0869,2.067,2.0448,2.0234,2.0012,1.967,1.9312,2.1102,2.1102,2.1102,2.1102,2.1102,2.1102,2.1102,2.1102,2.1102,2.1102,2.1102,2.1102,2.1102,2.1102,2.1102,2.1102,2.1102,2.1229,2.1425,2.1732,2.2067,2.2596,2.3078,2.3631,2.4014,2.44,2.4605,2.4693,2.4752,2.4752,2.4804,2.4855,2.4679,2.4708,2.4649,2.4635,2.4057,2.3596,2.323,2.3018,2.2879,2.2696,2.2425,2.222,2.2125,2.1972,2.1803,2.2115,2.2314,2.2234,2.2642,2.2965,2.2958,2.3014,2.3014,2.3014,2.3014,2.3014,2.3014,2.3014,2.3014,2.3014,2.3014,2.3038,2.3197,2.3379,2.3457,2.3481,2.3481,2.3362,2.3348,2.33,2.3236,2.3181,2.3109,2.2942,2.2768,2.2736,2.2633,2.2617,2.2521,2.2442,2.2378,2.2385,2.2259,2.2037,2.183,2.1632,2.1393,2.1127,2.0897,2.0933,2.0925,2.0925,2.0925,2.0925,2.0925,2.0925,2.0925,2.0925,2.0925,2.0925,2.0925,2.0925,2.0925,2.0925,2.0917,2.0925,2.0925,2.0925,2.0742,2.0543,2.0313,1.9979,1.9677,2.1299,2.1299,2.1172,2.1102,2.1102,2.1102,2.1102,2.1102,2.1102,2.1102,2.1102,2.1102,2.1102,2.1102,2.1102,2.1102,2.1102,2.1116,2.1289,2.1619,2.1926,2.2489,2.3079,2.3669,2.4178,2.4573,2.4838,2.4979,2.503,2.5052,2.5037,2.5083,2.5059,2.5052,2.5008,2.4905,2.4782,2.4276,2.391,2.3662,2.3515,2.3376,2.3106,2.2915,2.2842,2.2588,2.2386,2.278,2.2765,2.2579,2.3001,2.3084,2.3085,2.3014,2.3014,2.3014,2.3014,2.3014,2.3014,2.3014,2.3014,2.3014,2.3014,2.3022,2.3149,2.3275,2.3401,2.3481,2.3488,2.3473,2.3499,2.3459,2.3379,2.33,2.3165,2.303,2.3006,2.2998,2.299,2.2982,2.2927,2.2839,2.2776,2.272,2.2649,2.2498,2.2315,2.2116,2.1806,2.1436,2.1111,2.0948,2.0933,2.0925,2.0925,2.0925,2.0925,2.0925,2.0925,2.0925,2.0925,2.0925,2.0925,2.0925,2.0925,2.0925,2.0925,2.0925,2.0925,2.0925,2.0925,2.0774,2.0567,2.0329,2.0059,2.167,2.1607,2.1292,2.1109,2.1102,2.1102,2.1102,2.1102,2.1102,2.1102,2.1102,2.1102,2.1102,2.1102,2.1102,2.1102,2.1142,2.1176,2.1316,2.1614,2.1947,2.2425,2.2911,2.3521,2.3802,2.4341,2.4651,2.4714,2.4898,2.4862,2.4818,2.4979,2.4973,2.4907,2.481,2.4913,2.4863,2.4738,2.451,2.4364,2.4137,2.3874,2.3559,2.3332,2.33,2.3223,2.3228,2.3377,2.3472,2.3403,2.3323,2.337,2.322,2.303,2.3022,2.3014,2.3014,2.3014,2.3014,2.3014,2.3014,2.3014,2.3014,2.3014,2.3125,2.3171,2.329,2.3457,2.3488,2.3594,2.3586,2.3475,2.3371,2.3284,2.3165,2.3062,2.3014,2.3014,2.3014,2.3014,2.2998,2.2942,2.2934,2.2855,2.2839,2.2831,2.2744,2.2529,2.2243,2.1862,2.1452,2.1139,2.1084,2.1068,2.0925,2.0925,2.0925,2.0925,2.0925,2.0925,2.0925,2.0925,2.0925,2.0925,2.0925,2.0925,2.0925,2.0925,2.0925,2.0925,2.0925,2.0925,2.0774,2.0575,2.0377,2.1985,2.1922,2.1614,2.1362,2.1109,2.1102,2.1102,2.1102,2.1102,2.1102,2.1102,2.1102,2.1102,2.1102,2.1109,2.1116,2.1162,2.1323,2.1534,2.1695,2.1946,2.2212,2.2533,2.2939,2.3304,2.3685,2.3991,2.4203,2.4423,2.4393,2.4342,2.4342,2.4379,2.4423,2.443,2.4569,2.4753,2.4753,2.4819,2.4819,2.4664,2.4693,2.4562,2.4305,2.421,2.4038,2.4015,2.3929,2.3932,2.3909,2.3886,2.3718,2.3385,2.3181,2.3038,2.3014,2.3014,2.3014,2.3014,2.3014,2.3014,2.3014,2.3014,2.3014,2.3054,2.3117,2.3236,2.3362,2.3481,2.3602,2.3602,2.3459,2.3282,2.3252,2.3165,2.3093,2.3014,2.3014,2.3014,2.3014,2.3014,2.3014,2.3014,2.3014,2.3014,2.2998,2.2966,2.2815,2.2585,2.2259,2.1941,2.1608,2.1341,2.1246,2.1099,2.0972,2.1004,2.0948,2.0925,2.0925,2.0925,2.0925,2.0925,2.0925,2.0925,2.0925,2.0925,2.0925,2.0925,2.0925,2.0925,2.0925,2.0925,2.0766,2.0599,2.2292,2.2299,2.1985,2.1607,2.1362,2.1299,2.1235,2.1102,2.1102,2.1102,2.1102,2.1102,2.1102,2.1102,2.1109,2.1216,2.1289,2.1463,2.163,2.1777,2.1909,2.2075,2.2247,2.2411,2.2735,2.3107,2.35,2.3789,2.4035,2.4101,2.4123,2.4057,2.4057,2.4057,2.4086,2.4269,2.4415,2.4357,2.4569,2.4708,2.4847,2.498,2.4979,2.481,2.476,2.4701,2.4855,2.4769,2.4772,2.461,2.4519,2.394,2.3584,2.3371,2.3181,2.307,2.3014,2.3014,2.3014,2.3014,2.3014,2.3014,2.3014,2.3014,2.3014,2.307,2.3077,2.3236,2.3244,2.3292,2.3308,2.3205,2.3181,2.3125,2.3085,2.3046,2.3014,2.3014,2.3014,2.3014,2.3014,2.3014,2.3014,2.3014,2.3014,2.3014,2.3006,2.3006,2.2799,2.2649,2.2331,2.2084,2.187,2.1507,2.1254,2.1135,2.1079,2.1,2.1004,2.0964,2.098,2.0941,2.0925,2.0956,2.0956,2.0925,2.0925,2.0925,2.0925,2.0925,2.0925,2.0925,2.0925,2.0925,2.079,2.2498,2.2479,2.2278,2.1985,2.167,2.1607,2.1418,2.1172,2.1102,2.1102,2.1102,2.1102,2.1102,2.1102,2.1116,2.1329,2.1541,2.1588,2.171,2.1871,2.1891,2.1936,2.1975,2.2105,2.2298,2.2667,2.3063,2.353,2.3837,2.3837,2.3837,2.3947,2.3962,2.3947,2.3969,2.4005,2.402,2.4049,2.4174,2.4291,2.4532,2.4899,2.5002,2.5008,2.5105,2.5301,2.5514,2.56,2.5634,2.5486,2.5151,2.4566,2.4102,2.3816,2.3499,2.334,2.3077,2.3054,2.3014,2.3014,2.3014,2.3014,2.3022,2.3038,2.3046,2.3046,2.3054,2.311,2.3118,2.311,2.3175,2.3175,2.3167,2.3102,2.3086,2.3014,2.3014,2.3014,2.3014,2.3014,2.3014,2.3014,2.3014,2.3014,2.3014,2.3014,2.3014,2.3014,2.2982,2.2879,2.268,2.2513,2.2363,2.2013,2.1555,2.1489,2.1433,2.1377,2.1338,2.1171,2.1068,2.1131,2.1123,2.1044,2.1028,2.0972,2.0933,2.0925,2.0925,2.0933,2.0925,2.0925,2.0925,2.0925,2.0925,2.2255,2.2248,2.2429,2.2292,2.1978,2.1734,2.1551,2.1488,2.1235,2.1102,2.1102,2.1102,2.1102,2.1102,2.1102,2.1269,2.1588,2.1641,2.1815,2.1937,2.177,2.1748,2.1661,2.1639,2.1769,2.2151,2.2638,2.2947,2.3415,2.3413,2.3318,2.3362,2.3347,2.3347,2.3376,2.3486,2.3691,2.3735,2.3888,2.4049,2.4188,2.4481,2.487,2.4935,2.5119,2.5487,2.5718,2.5698,2.599,2.606,2.5834,2.5381,2.4921,2.4428,2.4078,2.3832,2.3546,2.3316,2.3308,2.3276,2.33,2.3181,2.3189,2.3157,2.3157,2.3149,2.3262,2.3489,2.3473,2.3465,2.3456,2.3601,2.3649,2.3368,2.3247,2.3135,2.3078,2.3014,2.3014,2.3014,2.3014,2.3014,2.3014,2.3014,2.3014,2.3014,2.3014,2.3014,2.3014,2.2998,2.2974,2.2863,2.2736,2.241,2.1989,2.1886,2.1822,2.1767,2.1687,2.156,2.1473,2.1433,2.1349,2.1346,2.1155,2.0976,2.0988,2.1036,2.0897,2.0897,2.0933,2.0925,2.0925,2.0925,2.0925]}]]